<?xml version="1.0" encoding="UTF-8" standalone="no" ?>
<gpx xmlns="http://www.topografix.com/GPX/1/1" xmlns:xsi="http://www.w3.org/2001/XMLSchema-instance" xsi:schemaLocation="http://www.topografix.com/GPX/1/1 http://www.topografix.com/GPX/1/1/gpx.xsd" version="1.1" creator="VisuGPX - https://www.visugpx.com">
  <metadata>
    <name>TET_B-05_20240507</name>
    <desc><![CDATA[

]]></desc>
  </metadata>
  <wpt lat="49.63849" lon="5.34814">
    <ele>209.5</ele>
    <name><![CDATA[Abbaye Orval]]></name>
    <desc><![CDATA[Abbaye Orval]]></desc>
    <cmt><![CDATA[Abbaye Orval]]></cmt>
    <type><![CDATA[user]]></type>
  </wpt>
  <wpt lat="49.91157" lon="5.57084">
    <ele>439.7</ele>
    <name><![CDATA[Fuel_B06]]></name>
    <desc><![CDATA[Fuel]]></desc>
    <cmt><![CDATA[Fuel]]></cmt>
    <type><![CDATA[user]]></type>
  </wpt>
  <wpt lat="49.91157" lon="5.57084">
    <ele>439.7</ele>
    <name><![CDATA[Fuel_B08]]></name>
    <desc><![CDATA[Fuel]]></desc>
    <cmt><![CDATA[Fuel]]></cmt>
    <type><![CDATA[user]]></type>
  </wpt>
  <trk>
    <name><![CDATA[TET_B-05_20240507]]></name>
    <extensions>
      <line xmlns="http://www.topografix.com/GPX/gpx_style/0/2">
        <color>0000FF</color>
        <width>4</width>
      </line>
    </extensions>
    <trkseg>
      <trkpt lat="49.88042" lon="5.55964">
        <ele>474</ele>
        <time>2023-06-09T17:14:54Z</time>
      </trkpt>
      <trkpt lat="49.88044" lon="5.55956">
        <ele>474.5</ele>
        <time>2023-06-09T17:14:55Z</time>
      </trkpt>
      <trkpt lat="49.88056" lon="5.5592">
        <ele>476.8</ele>
        <time>2023-06-09T17:15:01Z</time>
      </trkpt>
      <trkpt lat="49.88077" lon="5.55886">
        <ele>477.8</ele>
        <time>2023-06-09T17:15:07Z</time>
      </trkpt>
      <trkpt lat="49.88116" lon="5.55847">
        <ele>478.8</ele>
        <time>2023-06-09T17:15:16Z</time>
      </trkpt>
      <trkpt lat="49.88206" lon="5.5575">
        <ele>482.3</ele>
        <time>2023-06-09T17:15:39Z</time>
      </trkpt>
      <trkpt lat="49.88222" lon="5.55728">
        <ele>481.5</ele>
        <time>2023-06-09T17:15:43Z</time>
      </trkpt>
      <trkpt lat="49.88235" lon="5.55695">
        <ele>479.8</ele>
        <time>2023-06-09T17:15:48Z</time>
      </trkpt>
      <trkpt lat="49.88245" lon="5.55658">
        <ele>477.5</ele>
        <time>2023-06-09T17:15:53Z</time>
      </trkpt>
      <trkpt lat="49.88245" lon="5.55635">
        <ele>476.3</ele>
        <time>2023-06-09T17:15:56Z</time>
      </trkpt>
      <trkpt lat="49.88242" lon="5.55611">
        <ele>475</ele>
        <time>2023-06-09T17:15:59Z</time>
      </trkpt>
      <trkpt lat="49.88167" lon="5.55269">
        <ele>456.5</ele>
        <time>2023-06-09T17:16:47Z</time>
      </trkpt>
      <trkpt lat="49.8815" lon="5.55184">
        <ele>452</ele>
        <time>2023-06-09T17:16:59Z</time>
      </trkpt>
      <trkpt lat="49.88147" lon="5.55163">
        <ele>451</ele>
        <time>2023-06-09T17:17:01Z</time>
      </trkpt>
      <trkpt lat="49.88147" lon="5.5515">
        <ele>450.8</ele>
        <time>2023-06-09T17:17:03Z</time>
      </trkpt>
      <trkpt lat="49.88148" lon="5.55142">
        <ele>450.5</ele>
        <time>2023-06-09T17:17:04Z</time>
      </trkpt>
      <trkpt lat="49.88148" lon="5.55137">
        <ele>450.5</ele>
        <time>2023-06-09T17:17:05Z</time>
      </trkpt>
      <trkpt lat="49.88153" lon="5.55124">
        <ele>450.3</ele>
        <time>2023-06-09T17:17:07Z</time>
      </trkpt>
      <trkpt lat="49.88159" lon="5.55111">
        <ele>450.3</ele>
        <time>2023-06-09T17:17:09Z</time>
      </trkpt>
      <trkpt lat="49.88166" lon="5.55099">
        <ele>450.5</ele>
        <time>2023-06-09T17:17:11Z</time>
      </trkpt>
      <trkpt lat="49.88174" lon="5.55086">
        <ele>450.3</ele>
        <time>2023-06-09T17:17:13Z</time>
      </trkpt>
      <trkpt lat="49.88184" lon="5.55076">
        <ele>450.5</ele>
        <time>2023-06-09T17:17:16Z</time>
      </trkpt>
      <trkpt lat="49.88176" lon="5.55061">
        <ele>449.8</ele>
        <time>2023-06-09T17:17:18Z</time>
      </trkpt>
      <trkpt lat="49.88158" lon="5.55007">
        <ele>448</ele>
        <time>2023-06-09T17:17:26Z</time>
      </trkpt>
      <trkpt lat="49.88149" lon="5.5498">
        <ele>448.5</ele>
        <time>2023-06-09T17:17:30Z</time>
      </trkpt>
      <trkpt lat="49.88128" lon="5.54916">
        <ele>449</ele>
        <time>2023-06-09T17:17:40Z</time>
      </trkpt>
      <trkpt lat="49.8812" lon="5.54905">
        <ele>449</ele>
        <time>2023-06-09T17:17:42Z</time>
      </trkpt>
      <trkpt lat="49.88127" lon="5.54864">
        <ele>450.3</ele>
        <time>2023-06-09T17:17:47Z</time>
      </trkpt>
      <trkpt lat="49.88131" lon="5.54817">
        <ele>451.5</ele>
        <time>2023-06-09T17:17:54Z</time>
      </trkpt>
      <trkpt lat="49.88134" lon="5.54791">
        <ele>452.3</ele>
        <time>2023-06-09T17:17:57Z</time>
      </trkpt>
      <trkpt lat="49.8814" lon="5.54775">
        <ele>452.8</ele>
        <time>2023-06-09T17:18:00Z</time>
      </trkpt>
      <trkpt lat="49.88151" lon="5.54766">
        <ele>453.3</ele>
        <time>2023-06-09T17:18:02Z</time>
      </trkpt>
      <trkpt lat="49.88162" lon="5.54754">
        <ele>453.8</ele>
        <time>2023-06-09T17:18:05Z</time>
      </trkpt>
      <trkpt lat="49.88168" lon="5.5474">
        <ele>454.5</ele>
        <time>2023-06-09T17:18:07Z</time>
      </trkpt>
      <trkpt lat="49.88169" lon="5.54736">
        <ele>454.8</ele>
        <time>2023-06-09T17:18:08Z</time>
      </trkpt>
      <trkpt lat="49.88171" lon="5.54717">
        <ele>456</ele>
        <time>2023-06-09T17:18:10Z</time>
      </trkpt>
      <trkpt lat="49.8817" lon="5.54668">
        <ele>459</ele>
        <time>2023-06-09T17:18:17Z</time>
      </trkpt>
      <trkpt lat="49.88168" lon="5.54601">
        <ele>462</ele>
        <time>2023-06-09T17:18:25Z</time>
      </trkpt>
      <trkpt lat="49.88169" lon="5.54568">
        <ele>463.3</ele>
        <time>2023-06-09T17:18:30Z</time>
      </trkpt>
      <trkpt lat="49.88185" lon="5.54419">
        <ele>465.3</ele>
        <time>2023-06-09T17:18:49Z</time>
      </trkpt>
      <trkpt lat="49.88196" lon="5.54333">
        <ele>467.3</ele>
        <time>2023-06-09T17:19:01Z</time>
      </trkpt>
      <trkpt lat="49.88215" lon="5.54206">
        <ele>467.5</ele>
        <time>2023-06-09T17:19:18Z</time>
      </trkpt>
      <trkpt lat="49.88208" lon="5.54165">
        <ele>468</ele>
        <time>2023-06-09T17:19:23Z</time>
      </trkpt>
      <trkpt lat="49.88205" lon="5.5415">
        <ele>469.3</ele>
        <time>2023-06-09T17:19:26Z</time>
      </trkpt>
      <trkpt lat="49.88199" lon="5.54132">
        <ele>468.8</ele>
        <time>2023-06-09T17:19:27Z</time>
      </trkpt>
      <trkpt lat="49.88194" lon="5.54112">
        <ele>468.3</ele>
        <time>2023-06-09T17:19:28Z</time>
      </trkpt>
      <trkpt lat="49.88185" lon="5.54095">
        <ele>468.8</ele>
        <time>2023-06-09T17:19:29Z</time>
      </trkpt>
      <trkpt lat="49.88174" lon="5.54078">
        <ele>470.2</ele>
        <time>2023-06-09T17:19:30Z</time>
      </trkpt>
      <trkpt lat="49.88164" lon="5.5406">
        <ele>470.7</ele>
        <time>2023-06-09T17:19:31Z</time>
      </trkpt>
      <trkpt lat="49.88098" lon="5.53959">
        <ele>474.1</ele>
        <time>2023-06-09T17:19:37Z</time>
      </trkpt>
      <trkpt lat="49.88054" lon="5.53905">
        <ele>476.9</ele>
        <time>2023-06-09T17:19:41Z</time>
      </trkpt>
      <trkpt lat="49.88037" lon="5.53882">
        <ele>478.4</ele>
        <time>2023-06-09T17:19:43Z</time>
      </trkpt>
      <trkpt lat="49.88021" lon="5.53859">
        <ele>479.4</ele>
        <time>2023-06-09T17:19:44Z</time>
      </trkpt>
      <trkpt lat="49.88021" lon="5.53859">
        <ele>479.8</ele>
        <time>2023-06-09T17:19:45Z</time>
      </trkpt>
      <trkpt lat="49.88014" lon="5.53844">
        <ele>479.8</ele>
        <time>2023-06-09T17:19:46Z</time>
      </trkpt>
      <trkpt lat="49.88011" lon="5.53828">
        <ele>478.9</ele>
        <time>2023-06-09T17:19:47Z</time>
      </trkpt>
      <trkpt lat="49.88008" lon="5.53812">
        <ele>478.9</ele>
        <time>2023-06-09T17:19:48Z</time>
      </trkpt>
      <trkpt lat="49.87976" lon="5.53678">
        <ele>480.3</ele>
        <time>2023-06-09T17:19:56Z</time>
      </trkpt>
      <trkpt lat="49.87953" lon="5.53587">
        <ele>480.8</ele>
        <time>2023-06-09T17:20:03Z</time>
      </trkpt>
      <trkpt lat="49.87949" lon="5.53558">
        <ele>480.3</ele>
        <time>2023-06-09T17:20:10Z</time>
      </trkpt>
      <trkpt lat="49.87946" lon="5.53534">
        <ele>480.3</ele>
        <time>2023-06-09T17:20:12Z</time>
      </trkpt>
      <trkpt lat="49.87945" lon="5.53333">
        <ele>483.2</ele>
        <time>2023-06-09T17:20:24Z</time>
      </trkpt>
      <trkpt lat="49.8795" lon="5.53275">
        <ele>482.2</ele>
        <time>2023-06-09T17:20:31Z</time>
      </trkpt>
      <trkpt lat="49.87941" lon="5.53262">
        <ele>480.8</ele>
        <time>2023-06-09T17:20:33Z</time>
      </trkpt>
      <trkpt lat="49.87941" lon="5.53262">
        <ele>479.8</ele>
        <time>2023-06-09T17:20:34Z</time>
      </trkpt>
      <trkpt lat="49.87931" lon="5.53246">
        <ele>479.4</ele>
        <time>2023-06-09T17:20:36Z</time>
      </trkpt>
      <trkpt lat="49.87911" lon="5.53213">
        <ele>477.9</ele>
        <time>2023-06-09T17:20:39Z</time>
      </trkpt>
      <trkpt lat="49.87825" lon="5.53075">
        <ele>476</ele>
        <time>2023-06-09T17:20:49Z</time>
      </trkpt>
      <trkpt lat="49.87789" lon="5.53017">
        <ele>473.6</ele>
        <time>2023-06-09T17:20:54Z</time>
      </trkpt>
      <trkpt lat="49.87784" lon="5.53009">
        <ele>473.6</ele>
        <time>2023-06-09T17:20:55Z</time>
      </trkpt>
      <trkpt lat="49.87776" lon="5.53009">
        <ele>473.6</ele>
        <time>2023-06-09T17:20:56Z</time>
      </trkpt>
      <trkpt lat="49.87769" lon="5.53009">
        <ele>473.6</ele>
        <time>2023-06-09T17:20:57Z</time>
      </trkpt>
      <trkpt lat="49.87762" lon="5.53009">
        <ele>473.6</ele>
        <time>2023-06-09T17:20:58Z</time>
      </trkpt>
      <trkpt lat="49.87756" lon="5.53009">
        <ele>473.6</ele>
        <time>2023-06-09T17:20:59Z</time>
      </trkpt>
      <trkpt lat="49.8775" lon="5.53009">
        <ele>473.6</ele>
        <time>2023-06-09T17:21:00Z</time>
      </trkpt>
      <trkpt lat="49.87745" lon="5.53009">
        <ele>474.1</ele>
        <time>2023-06-09T17:21:01Z</time>
      </trkpt>
      <trkpt lat="49.87741" lon="5.53009">
        <ele>474.1</ele>
        <time>2023-06-09T17:21:02Z</time>
      </trkpt>
      <trkpt lat="49.87739" lon="5.53009">
        <ele>474.6</ele>
        <time>2023-06-09T17:21:03Z</time>
      </trkpt>
      <trkpt lat="49.87739" lon="5.53009">
        <ele>477.4</ele>
        <time>2023-06-09T17:21:06Z</time>
      </trkpt>
      <trkpt lat="49.87739" lon="5.53009">
        <ele>478.4</ele>
        <time>2023-06-09T17:21:13Z</time>
      </trkpt>
      <trkpt lat="49.87741" lon="5.5298">
        <ele>477.9</ele>
        <time>2023-06-09T17:21:15Z</time>
      </trkpt>
      <trkpt lat="49.8776" lon="5.52929">
        <ele>479.8</ele>
        <time>2023-06-09T17:21:19Z</time>
      </trkpt>
      <trkpt lat="49.8777" lon="5.52899">
        <ele>478.4</ele>
        <time>2023-06-09T17:21:21Z</time>
      </trkpt>
      <trkpt lat="49.87797" lon="5.52807">
        <ele>476.9</ele>
        <time>2023-06-09T17:21:26Z</time>
      </trkpt>
      <trkpt lat="49.87797" lon="5.52807">
        <ele>476.9</ele>
        <time>2023-06-09T17:21:27Z</time>
      </trkpt>
      <trkpt lat="49.87796" lon="5.52789">
        <ele>476</ele>
        <time>2023-06-09T17:21:28Z</time>
      </trkpt>
      <trkpt lat="49.87795" lon="5.5277">
        <ele>476</ele>
        <time>2023-06-09T17:21:29Z</time>
      </trkpt>
      <trkpt lat="49.87793" lon="5.52751">
        <ele>475.5</ele>
        <time>2023-06-09T17:21:30Z</time>
      </trkpt>
      <trkpt lat="49.87789" lon="5.52736">
        <ele>474.1</ele>
        <time>2023-06-09T17:21:31Z</time>
      </trkpt>
      <trkpt lat="49.87781" lon="5.52719">
        <ele>473.6</ele>
        <time>2023-06-09T17:21:32Z</time>
      </trkpt>
      <trkpt lat="49.87772" lon="5.52701">
        <ele>473.1</ele>
        <time>2023-06-09T17:21:33Z</time>
      </trkpt>
      <trkpt lat="49.87724" lon="5.52599">
        <ele>469.3</ele>
        <time>2023-06-09T17:21:38Z</time>
      </trkpt>
      <trkpt lat="49.87686" lon="5.52524">
        <ele>466.4</ele>
        <time>2023-06-09T17:21:42Z</time>
      </trkpt>
      <trkpt lat="49.87644" lon="5.52419">
        <ele>463</ele>
        <time>2023-06-09T17:21:47Z</time>
      </trkpt>
      <trkpt lat="49.87615" lon="5.52322">
        <ele>459.6</ele>
        <time>2023-06-09T17:21:51Z</time>
      </trkpt>
      <trkpt lat="49.87608" lon="5.52296">
        <ele>459.6</ele>
        <time>2023-06-09T17:21:52Z</time>
      </trkpt>
      <trkpt lat="49.87581" lon="5.52161">
        <ele>464</ele>
        <time>2023-06-09T17:21:57Z</time>
      </trkpt>
      <trkpt lat="49.8757" lon="5.52081">
        <ele>467.3</ele>
        <time>2023-06-09T17:22:00Z</time>
      </trkpt>
      <trkpt lat="49.8756" lon="5.51968">
        <ele>469.3</ele>
        <time>2023-06-09T17:22:04Z</time>
      </trkpt>
      <trkpt lat="49.8755" lon="5.51674">
        <ele>469.7</ele>
        <time>2023-06-09T17:22:14Z</time>
      </trkpt>
      <trkpt lat="49.87555" lon="5.5143">
        <ele>470.2</ele>
        <time>2023-06-09T17:22:23Z</time>
      </trkpt>
      <trkpt lat="49.87553" lon="5.51356">
        <ele>468.3</ele>
        <time>2023-06-09T17:22:27Z</time>
      </trkpt>
      <trkpt lat="49.87551" lon="5.51329">
        <ele>467.3</ele>
        <time>2023-06-09T17:22:28Z</time>
      </trkpt>
      <trkpt lat="49.87551" lon="5.51329">
        <ele>468.3</ele>
        <time>2023-06-09T17:22:29Z</time>
      </trkpt>
      <trkpt lat="49.87548" lon="5.51317">
        <ele>467.8</ele>
        <time>2023-06-09T17:22:30Z</time>
      </trkpt>
      <trkpt lat="49.87546" lon="5.51304">
        <ele>467.3</ele>
        <time>2023-06-09T17:22:31Z</time>
      </trkpt>
      <trkpt lat="49.87537" lon="5.51259">
        <ele>465.4</ele>
        <time>2023-06-09T17:22:33Z</time>
      </trkpt>
      <trkpt lat="49.87533" lon="5.51243">
        <ele>464.9</ele>
        <time>2023-06-09T17:22:34Z</time>
      </trkpt>
      <trkpt lat="49.87526" lon="5.51208">
        <ele>463.5</ele>
        <time>2023-06-09T17:22:36Z</time>
      </trkpt>
      <trkpt lat="49.87526" lon="5.51208">
        <ele>464</ele>
        <time>2023-06-09T17:22:37Z</time>
      </trkpt>
      <trkpt lat="49.87521" lon="5.51193">
        <ele>464.4</ele>
        <time>2023-06-09T17:22:38Z</time>
      </trkpt>
      <trkpt lat="49.87474" lon="5.51056">
        <ele>466.9</ele>
        <time>2023-06-09T17:22:47Z</time>
      </trkpt>
      <trkpt lat="49.87435" lon="5.50963">
        <ele>468.8</ele>
        <time>2023-06-09T17:22:55Z</time>
      </trkpt>
      <trkpt lat="49.87417" lon="5.5093">
        <ele>471.2</ele>
        <time>2023-06-09T17:23:02Z</time>
      </trkpt>
      <trkpt lat="49.87386" lon="5.50873">
        <ele>474.1</ele>
        <time>2023-06-09T17:23:07Z</time>
      </trkpt>
      <trkpt lat="49.8737" lon="5.50834">
        <ele>475.5</ele>
        <time>2023-06-09T17:23:10Z</time>
      </trkpt>
      <trkpt lat="49.87328" lon="5.50669">
        <ele>476.9</ele>
        <time>2023-06-09T17:23:20Z</time>
      </trkpt>
      <trkpt lat="49.87279" lon="5.50518">
        <ele>478.9</ele>
        <time>2023-06-09T17:23:30Z</time>
      </trkpt>
      <trkpt lat="49.87218" lon="5.50378">
        <ele>482.2</ele>
        <time>2023-06-09T17:23:37Z</time>
      </trkpt>
      <trkpt lat="49.87145" lon="5.5021">
        <ele>485.6</ele>
        <time>2023-06-09T17:23:46Z</time>
      </trkpt>
      <trkpt lat="49.87134" lon="5.50196">
        <ele>486.1</ele>
        <time>2023-06-09T17:23:47Z</time>
      </trkpt>
      <trkpt lat="49.87124" lon="5.50184">
        <ele>486.6</ele>
        <time>2023-06-09T17:23:48Z</time>
      </trkpt>
      <trkpt lat="49.87114" lon="5.50172">
        <ele>486.6</ele>
        <time>2023-06-09T17:23:49Z</time>
      </trkpt>
      <trkpt lat="49.87105" lon="5.50161">
        <ele>485.6</ele>
        <time>2023-06-09T17:23:50Z</time>
      </trkpt>
      <trkpt lat="49.87016" lon="5.50092">
        <ele>484.6</ele>
        <time>2023-06-09T17:23:58Z</time>
      </trkpt>
      <trkpt lat="49.86992" lon="5.50074">
        <ele>483.2</ele>
        <time>2023-06-09T17:24:01Z</time>
      </trkpt>
      <trkpt lat="49.86977" lon="5.50058">
        <ele>482.7</ele>
        <time>2023-06-09T17:24:06Z</time>
      </trkpt>
      <trkpt lat="49.86975" lon="5.50055">
        <ele>482.7</ele>
        <time>2023-06-09T17:24:07Z</time>
      </trkpt>
      <trkpt lat="49.86936" lon="5.50004">
        <ele>480.3</ele>
        <time>2023-06-09T17:24:13Z</time>
      </trkpt>
      <trkpt lat="49.86876" lon="5.4992">
        <ele>476.9</ele>
        <time>2023-06-09T17:24:20Z</time>
      </trkpt>
      <trkpt lat="49.86846" lon="5.49867">
        <ele>473.6</ele>
        <time>2023-06-09T17:24:25Z</time>
      </trkpt>
      <trkpt lat="49.86823" lon="5.4981">
        <ele>470.2</ele>
        <time>2023-06-09T17:24:30Z</time>
      </trkpt>
      <trkpt lat="49.86817" lon="5.49797">
        <ele>468.8</ele>
        <time>2023-06-09T17:24:31Z</time>
      </trkpt>
      <trkpt lat="49.86813" lon="5.49785">
        <ele>468.3</ele>
        <time>2023-06-09T17:24:32Z</time>
      </trkpt>
      <trkpt lat="49.86808" lon="5.4977">
        <ele>466.9</ele>
        <time>2023-06-09T17:24:33Z</time>
      </trkpt>
      <trkpt lat="49.86803" lon="5.49756">
        <ele>465.9</ele>
        <time>2023-06-09T17:24:34Z</time>
      </trkpt>
      <trkpt lat="49.86799" lon="5.49744">
        <ele>464.9</ele>
        <time>2023-06-09T17:24:35Z</time>
      </trkpt>
      <trkpt lat="49.86798" lon="5.49725">
        <ele>464.4</ele>
        <time>2023-06-09T17:24:36Z</time>
      </trkpt>
      <trkpt lat="49.86798" lon="5.49714">
        <ele>464.4</ele>
        <time>2023-06-09T17:24:37Z</time>
      </trkpt>
      <trkpt lat="49.86798" lon="5.49704">
        <ele>464</ele>
        <time>2023-06-09T17:24:38Z</time>
      </trkpt>
      <trkpt lat="49.86799" lon="5.49697">
        <ele>464</ele>
        <time>2023-06-09T17:24:39Z</time>
      </trkpt>
      <trkpt lat="49.86799" lon="5.49691">
        <ele>464</ele>
        <time>2023-06-09T17:24:40Z</time>
      </trkpt>
      <trkpt lat="49.86799" lon="5.49687">
        <ele>464</ele>
        <time>2023-06-09T17:24:41Z</time>
      </trkpt>
      <trkpt lat="49.86799" lon="5.49683">
        <ele>464</ele>
        <time>2023-06-09T17:24:42Z</time>
      </trkpt>
      <trkpt lat="49.86799" lon="5.4968">
        <ele>464</ele>
        <time>2023-06-09T17:24:43Z</time>
      </trkpt>
      <trkpt lat="49.86797" lon="5.49669">
        <ele>464.9</ele>
        <time>2023-06-09T17:24:44Z</time>
      </trkpt>
      <trkpt lat="49.86794" lon="5.4967">
        <ele>465.4</ele>
        <time>2023-06-09T17:24:45Z</time>
      </trkpt>
      <trkpt lat="49.86789" lon="5.49671">
        <ele>466.4</ele>
        <time>2023-06-09T17:24:46Z</time>
      </trkpt>
      <trkpt lat="49.86777" lon="5.49675">
        <ele>466.9</ele>
        <time>2023-06-09T17:24:47Z</time>
      </trkpt>
      <trkpt lat="49.86777" lon="5.49675">
        <ele>467.3</ele>
        <time>2023-06-09T17:24:48Z</time>
      </trkpt>
      <trkpt lat="49.8677" lon="5.49679">
        <ele>467.8</ele>
        <time>2023-06-09T17:24:49Z</time>
      </trkpt>
      <trkpt lat="49.86752" lon="5.49693">
        <ele>468.3</ele>
        <time>2023-06-09T17:24:50Z</time>
      </trkpt>
      <trkpt lat="49.86752" lon="5.49693">
        <ele>469.3</ele>
        <time>2023-06-09T17:24:51Z</time>
      </trkpt>
      <trkpt lat="49.86743" lon="5.49705">
        <ele>470.2</ele>
        <time>2023-06-09T17:24:52Z</time>
      </trkpt>
      <trkpt lat="49.86737" lon="5.49715">
        <ele>471.2</ele>
        <time>2023-06-09T17:24:53Z</time>
      </trkpt>
      <trkpt lat="49.86732" lon="5.49725">
        <ele>472.1</ele>
        <time>2023-06-09T17:24:54Z</time>
      </trkpt>
      <trkpt lat="49.8671" lon="5.49772">
        <ele>476</ele>
        <time>2023-06-09T17:24:59Z</time>
      </trkpt>
      <trkpt lat="49.86694" lon="5.49803">
        <ele>478.9</ele>
        <time>2023-06-09T17:25:02Z</time>
      </trkpt>
      <trkpt lat="49.8666" lon="5.49853">
        <ele>482.2</ele>
        <time>2023-06-09T17:25:06Z</time>
      </trkpt>
      <trkpt lat="49.86631" lon="5.4989">
        <ele>484.2</ele>
        <time>2023-06-09T17:25:09Z</time>
      </trkpt>
      <trkpt lat="49.86576" lon="5.49959">
        <ele>486.1</ele>
        <time>2023-06-09T17:25:16Z</time>
      </trkpt>
      <trkpt lat="49.86566" lon="5.49972">
        <ele>488</ele>
        <time>2023-06-09T17:25:20Z</time>
      </trkpt>
      <trkpt lat="49.86519" lon="5.5002">
        <ele>488</ele>
        <time>2023-06-09T17:25:26Z</time>
      </trkpt>
      <trkpt lat="49.86512" lon="5.50026">
        <ele>488</ele>
        <time>2023-06-09T17:25:27Z</time>
      </trkpt>
      <trkpt lat="49.86506" lon="5.50031">
        <ele>488.5</ele>
        <time>2023-06-09T17:25:28Z</time>
      </trkpt>
      <trkpt lat="49.86497" lon="5.50033">
        <ele>488.5</ele>
        <time>2023-06-09T17:25:29Z</time>
      </trkpt>
      <trkpt lat="49.8649" lon="5.50032">
        <ele>488.5</ele>
        <time>2023-06-09T17:25:30Z</time>
      </trkpt>
      <trkpt lat="49.86386" lon="5.50049">
        <ele>486.1</ele>
        <time>2023-06-09T17:25:40Z</time>
      </trkpt>
      <trkpt lat="49.86289" lon="5.50131">
        <ele>485.6</ele>
        <time>2023-06-09T17:25:47Z</time>
      </trkpt>
      <trkpt lat="49.86187" lon="5.50245">
        <ele>483.7</ele>
        <time>2023-06-09T17:25:56Z</time>
      </trkpt>
      <trkpt lat="49.86026" lon="5.50306">
        <ele>480.8</ele>
        <time>2023-06-09T17:26:06Z</time>
      </trkpt>
      <trkpt lat="49.8601" lon="5.50308">
        <ele>479.8</ele>
        <time>2023-06-09T17:26:08Z</time>
      </trkpt>
      <trkpt lat="49.85949" lon="5.50313">
        <ele>482.7</ele>
        <time>2023-06-09T17:26:12Z</time>
      </trkpt>
      <trkpt lat="49.85923" lon="5.50315">
        <ele>483.7</ele>
        <time>2023-06-09T17:26:14Z</time>
      </trkpt>
      <trkpt lat="49.8584" lon="5.50327">
        <ele>487.1</ele>
        <time>2023-06-09T17:26:20Z</time>
      </trkpt>
      <trkpt lat="49.85781" lon="5.50351">
        <ele>489.9</ele>
        <time>2023-06-09T17:26:25Z</time>
      </trkpt>
      <trkpt lat="49.85761" lon="5.50363">
        <ele>491.4</ele>
        <time>2023-06-09T17:26:27Z</time>
      </trkpt>
      <trkpt lat="49.85729" lon="5.50391">
        <ele>493.8</ele>
        <time>2023-06-09T17:26:30Z</time>
      </trkpt>
      <trkpt lat="49.85708" lon="5.50404">
        <ele>494.3</ele>
        <time>2023-06-09T17:26:31Z</time>
      </trkpt>
      <trkpt lat="49.85708" lon="5.50404">
        <ele>495.2</ele>
        <time>2023-06-09T17:26:32Z</time>
      </trkpt>
      <trkpt lat="49.85698" lon="5.50407">
        <ele>494.7</ele>
        <time>2023-06-09T17:26:33Z</time>
      </trkpt>
      <trkpt lat="49.85675" lon="5.50414">
        <ele>495.7</ele>
        <time>2023-06-09T17:26:35Z</time>
      </trkpt>
      <trkpt lat="49.85663" lon="5.50417">
        <ele>496.7</ele>
        <time>2023-06-09T17:26:36Z</time>
      </trkpt>
      <trkpt lat="49.85653" lon="5.50423">
        <ele>497.1</ele>
        <time>2023-06-09T17:26:37Z</time>
      </trkpt>
      <trkpt lat="49.85596" lon="5.50456">
        <ele>499.1</ele>
        <time>2023-06-09T17:26:41Z</time>
      </trkpt>
      <trkpt lat="49.85525" lon="5.50541">
        <ele>502.9</ele>
        <time>2023-06-09T17:26:47Z</time>
      </trkpt>
      <trkpt lat="49.85504" lon="5.50567">
        <ele>503.9</ele>
        <time>2023-06-09T17:26:49Z</time>
      </trkpt>
      <trkpt lat="49.85494" lon="5.50579">
        <ele>503.4</ele>
        <time>2023-06-09T17:26:50Z</time>
      </trkpt>
      <trkpt lat="49.85484" lon="5.50584">
        <ele>503.9</ele>
        <time>2023-06-09T17:26:51Z</time>
      </trkpt>
      <trkpt lat="49.85387" lon="5.50612">
        <ele>504.4</ele>
        <time>2023-06-09T17:26:58Z</time>
      </trkpt>
      <trkpt lat="49.85265" lon="5.50689">
        <ele>504.8</ele>
        <time>2023-06-09T17:27:07Z</time>
      </trkpt>
      <trkpt lat="49.85102" lon="5.50733">
        <ele>504.4</ele>
        <time>2023-06-09T17:27:17Z</time>
      </trkpt>
      <trkpt lat="49.85037" lon="5.50729">
        <ele>503.9</ele>
        <time>2023-06-09T17:27:21Z</time>
      </trkpt>
      <trkpt lat="49.85021" lon="5.50724">
        <ele>503.9</ele>
        <time>2023-06-09T17:27:22Z</time>
      </trkpt>
      <trkpt lat="49.84877" lon="5.5068">
        <ele>503.4</ele>
        <time>2023-06-09T17:27:31Z</time>
      </trkpt>
      <trkpt lat="49.84808" lon="5.5066">
        <ele>503.4</ele>
        <time>2023-06-09T17:27:36Z</time>
      </trkpt>
      <trkpt lat="49.84796" lon="5.5066">
        <ele>502.9</ele>
        <time>2023-06-09T17:27:37Z</time>
      </trkpt>
      <trkpt lat="49.8471" lon="5.50673">
        <ele>504.4</ele>
        <time>2023-06-09T17:27:45Z</time>
      </trkpt>
      <trkpt lat="49.84636" lon="5.5069">
        <ele>503.9</ele>
        <time>2023-06-09T17:27:55Z</time>
      </trkpt>
      <trkpt lat="49.84634" lon="5.5069">
        <ele>504.4</ele>
        <time>2023-06-09T17:28:10Z</time>
      </trkpt>
      <trkpt lat="49.84624" lon="5.50693">
        <ele>504.4</ele>
        <time>2023-06-09T17:28:12Z</time>
      </trkpt>
      <trkpt lat="49.84618" lon="5.50694">
        <ele>504.4</ele>
        <time>2023-06-09T17:28:13Z</time>
      </trkpt>
      <trkpt lat="49.84616" lon="5.50707">
        <ele>504</ele>
        <time>2023-06-09T17:28:16Z</time>
      </trkpt>
      <trkpt lat="49.84597" lon="5.50732">
        <ele>502.8</ele>
        <time>2023-06-09T17:28:27Z</time>
      </trkpt>
      <trkpt lat="49.84505" lon="5.50853">
        <ele>495.5</ele>
        <time>2023-06-09T17:29:17Z</time>
      </trkpt>
      <trkpt lat="49.84504" lon="5.50846">
        <ele>494.3</ele>
        <time>2023-06-09T17:29:19Z</time>
      </trkpt>
      <trkpt lat="49.84502" lon="5.50839">
        <ele>493.8</ele>
        <time>2023-06-09T17:29:20Z</time>
      </trkpt>
      <trkpt lat="49.84499" lon="5.50831">
        <ele>493.3</ele>
        <time>2023-06-09T17:29:21Z</time>
      </trkpt>
      <trkpt lat="49.84494" lon="5.50824">
        <ele>492.8</ele>
        <time>2023-06-09T17:29:22Z</time>
      </trkpt>
      <trkpt lat="49.84488" lon="5.50816">
        <ele>492.3</ele>
        <time>2023-06-09T17:29:23Z</time>
      </trkpt>
      <trkpt lat="49.84475" lon="5.50797">
        <ele>491.4</ele>
        <time>2023-06-09T17:29:24Z</time>
      </trkpt>
      <trkpt lat="49.84445" lon="5.50768">
        <ele>487.5</ele>
        <time>2023-06-09T17:29:28Z</time>
      </trkpt>
      <trkpt lat="49.84418" lon="5.50742">
        <ele>486.1</ele>
        <time>2023-06-09T17:29:31Z</time>
      </trkpt>
      <trkpt lat="49.84369" lon="5.50696">
        <ele>482.7</ele>
        <time>2023-06-09T17:29:37Z</time>
      </trkpt>
      <trkpt lat="49.84353" lon="5.50682">
        <ele>482.2</ele>
        <time>2023-06-09T17:29:39Z</time>
      </trkpt>
      <trkpt lat="49.84345" lon="5.50677">
        <ele>481.8</ele>
        <time>2023-06-09T17:29:40Z</time>
      </trkpt>
      <trkpt lat="49.84337" lon="5.50673">
        <ele>481.8</ele>
        <time>2023-06-09T17:29:41Z</time>
      </trkpt>
      <trkpt lat="49.84292" lon="5.50648">
        <ele>478.9</ele>
        <time>2023-06-09T17:29:45Z</time>
      </trkpt>
      <trkpt lat="49.84279" lon="5.50641">
        <ele>478.4</ele>
        <time>2023-06-09T17:29:46Z</time>
      </trkpt>
      <trkpt lat="49.84186" lon="5.50558">
        <ele>476.5</ele>
        <time>2023-06-09T17:29:54Z</time>
      </trkpt>
      <trkpt lat="49.84139" lon="5.50523">
        <ele>477.4</ele>
        <time>2023-06-09T17:29:58Z</time>
      </trkpt>
      <trkpt lat="49.84127" lon="5.50518">
        <ele>476.9</ele>
        <time>2023-06-09T17:29:59Z</time>
      </trkpt>
      <trkpt lat="49.84116" lon="5.50517">
        <ele>477.4</ele>
        <time>2023-06-09T17:30:00Z</time>
      </trkpt>
      <trkpt lat="49.84106" lon="5.50517">
        <ele>477.4</ele>
        <time>2023-06-09T17:30:01Z</time>
      </trkpt>
      <trkpt lat="49.84096" lon="5.50516">
        <ele>477.4</ele>
        <time>2023-06-09T17:30:02Z</time>
      </trkpt>
      <trkpt lat="49.84084" lon="5.50515">
        <ele>477.9</ele>
        <time>2023-06-09T17:30:03Z</time>
      </trkpt>
      <trkpt lat="49.84072" lon="5.50515">
        <ele>477.4</ele>
        <time>2023-06-09T17:30:04Z</time>
      </trkpt>
      <trkpt lat="49.84058" lon="5.50513">
        <ele>477.9</ele>
        <time>2023-06-09T17:30:05Z</time>
      </trkpt>
      <trkpt lat="49.84046" lon="5.50505">
        <ele>477.9</ele>
        <time>2023-06-09T17:30:06Z</time>
      </trkpt>
      <trkpt lat="49.84035" lon="5.50498">
        <ele>478.4</ele>
        <time>2023-06-09T17:30:07Z</time>
      </trkpt>
      <trkpt lat="49.83932" lon="5.50413">
        <ele>482.2</ele>
        <time>2023-06-09T17:30:16Z</time>
      </trkpt>
      <trkpt lat="49.83909" lon="5.5039">
        <ele>482.2</ele>
        <time>2023-06-09T17:30:17Z</time>
      </trkpt>
      <trkpt lat="49.83899" lon="5.50376">
        <ele>483.2</ele>
        <time>2023-06-09T17:30:19Z</time>
      </trkpt>
      <trkpt lat="49.8389" lon="5.50363">
        <ele>484.2</ele>
        <time>2023-06-09T17:30:20Z</time>
      </trkpt>
      <trkpt lat="49.83848" lon="5.50298">
        <ele>487.5</ele>
        <time>2023-06-09T17:30:24Z</time>
      </trkpt>
      <trkpt lat="49.83848" lon="5.50298">
        <ele>487.5</ele>
        <time>2023-06-09T17:30:25Z</time>
      </trkpt>
      <trkpt lat="49.83839" lon="5.50291">
        <ele>487.5</ele>
        <time>2023-06-09T17:30:26Z</time>
      </trkpt>
      <trkpt lat="49.8383" lon="5.50285">
        <ele>487.1</ele>
        <time>2023-06-09T17:30:27Z</time>
      </trkpt>
      <trkpt lat="49.83757" lon="5.50231">
        <ele>484.2</ele>
        <time>2023-06-09T17:30:33Z</time>
      </trkpt>
      <trkpt lat="49.83748" lon="5.50221">
        <ele>482.7</ele>
        <time>2023-06-09T17:30:35Z</time>
      </trkpt>
      <trkpt lat="49.83725" lon="5.50198">
        <ele>479.4</ele>
        <time>2023-06-09T17:30:38Z</time>
      </trkpt>
      <trkpt lat="49.83718" lon="5.5019">
        <ele>478.4</ele>
        <time>2023-06-09T17:30:39Z</time>
      </trkpt>
      <trkpt lat="49.83695" lon="5.50167">
        <ele>474.6</ele>
        <time>2023-06-09T17:30:42Z</time>
      </trkpt>
      <trkpt lat="49.83658" lon="5.50136">
        <ele>471.2</ele>
        <time>2023-06-09T17:30:46Z</time>
      </trkpt>
      <trkpt lat="49.83649" lon="5.50117">
        <ele>469.3</ele>
        <time>2023-06-09T17:30:48Z</time>
      </trkpt>
      <trkpt lat="49.83645" lon="5.50109">
        <ele>468.3</ele>
        <time>2023-06-09T17:30:49Z</time>
      </trkpt>
      <trkpt lat="49.83641" lon="5.50102">
        <ele>467.3</ele>
        <time>2023-06-09T17:30:50Z</time>
      </trkpt>
      <trkpt lat="49.8364" lon="5.50096">
        <ele>466.4</ele>
        <time>2023-06-09T17:30:51Z</time>
      </trkpt>
      <trkpt lat="49.83638" lon="5.50088">
        <ele>465.4</ele>
        <time>2023-06-09T17:30:52Z</time>
      </trkpt>
      <trkpt lat="49.83636" lon="5.50079">
        <ele>465.4</ele>
        <time>2023-06-09T17:30:53Z</time>
      </trkpt>
      <trkpt lat="49.83634" lon="5.50069">
        <ele>464.4</ele>
        <time>2023-06-09T17:30:54Z</time>
      </trkpt>
      <trkpt lat="49.83622" lon="5.50015">
        <ele>461.1</ele>
        <time>2023-06-09T17:30:59Z</time>
      </trkpt>
      <trkpt lat="49.83609" lon="5.49958">
        <ele>458.2</ele>
        <time>2023-06-09T17:31:04Z</time>
      </trkpt>
      <trkpt lat="49.83595" lon="5.49897">
        <ele>455.3</ele>
        <time>2023-06-09T17:31:11Z</time>
      </trkpt>
      <trkpt lat="49.83591" lon="5.49893">
        <ele>454.8</ele>
        <time>2023-06-09T17:31:13Z</time>
      </trkpt>
      <trkpt lat="49.83591" lon="5.49893">
        <ele>455.8</ele>
        <time>2023-06-09T17:31:14Z</time>
      </trkpt>
      <trkpt lat="49.83588" lon="5.49895">
        <ele>455.8</ele>
        <time>2023-06-09T17:31:15Z</time>
      </trkpt>
      <trkpt lat="49.83584" lon="5.49898">
        <ele>455.8</ele>
        <time>2023-06-09T17:31:16Z</time>
      </trkpt>
      <trkpt lat="49.83578" lon="5.49902">
        <ele>456.3</ele>
        <time>2023-06-09T17:31:17Z</time>
      </trkpt>
      <trkpt lat="49.835" lon="5.49954">
        <ele>456.8</ele>
        <time>2023-06-09T17:31:27Z</time>
      </trkpt>
      <trkpt lat="49.83495" lon="5.49958">
        <ele>456.8</ele>
        <time>2023-06-09T17:31:28Z</time>
      </trkpt>
      <trkpt lat="49.8349" lon="5.49962">
        <ele>457.7</ele>
        <time>2023-06-09T17:31:29Z</time>
      </trkpt>
      <trkpt lat="49.83479" lon="5.49959">
        <ele>457.2</ele>
        <time>2023-06-09T17:31:30Z</time>
      </trkpt>
      <trkpt lat="49.83476" lon="5.49952">
        <ele>457.2</ele>
        <time>2023-06-09T17:31:31Z</time>
      </trkpt>
      <trkpt lat="49.83473" lon="5.49943">
        <ele>456.8</ele>
        <time>2023-06-09T17:31:32Z</time>
      </trkpt>
      <trkpt lat="49.83461" lon="5.49926">
        <ele>456.8</ele>
        <time>2023-06-09T17:31:33Z</time>
      </trkpt>
      <trkpt lat="49.83461" lon="5.49926">
        <ele>456.8</ele>
        <time>2023-06-09T17:31:34Z</time>
      </trkpt>
      <trkpt lat="49.83446" lon="5.49913">
        <ele>456.3</ele>
        <time>2023-06-09T17:31:35Z</time>
      </trkpt>
      <trkpt lat="49.83446" lon="5.49913">
        <ele>455.8</ele>
        <time>2023-06-09T17:31:36Z</time>
      </trkpt>
      <trkpt lat="49.83438" lon="5.49909">
        <ele>455.3</ele>
        <time>2023-06-09T17:31:37Z</time>
      </trkpt>
      <trkpt lat="49.8342" lon="5.49902">
        <ele>454.8</ele>
        <time>2023-06-09T17:31:38Z</time>
      </trkpt>
      <trkpt lat="49.83412" lon="5.49895">
        <ele>454.4</ele>
        <time>2023-06-09T17:31:39Z</time>
      </trkpt>
      <trkpt lat="49.83412" lon="5.49895">
        <ele>453.4</ele>
        <time>2023-06-09T17:31:40Z</time>
      </trkpt>
      <trkpt lat="49.83406" lon="5.49885">
        <ele>452.4</ele>
        <time>2023-06-09T17:31:41Z</time>
      </trkpt>
      <trkpt lat="49.83403" lon="5.49872">
        <ele>452.4</ele>
        <time>2023-06-09T17:31:42Z</time>
      </trkpt>
      <trkpt lat="49.83399" lon="5.49859">
        <ele>451</ele>
        <time>2023-06-09T17:31:43Z</time>
      </trkpt>
      <trkpt lat="49.834" lon="5.49843">
        <ele>451</ele>
        <time>2023-06-09T17:31:44Z</time>
      </trkpt>
      <trkpt lat="49.83401" lon="5.49718">
        <ele>448.1</ele>
        <time>2023-06-09T17:31:53Z</time>
      </trkpt>
      <trkpt lat="49.83399" lon="5.49675">
        <ele>446.7</ele>
        <time>2023-06-09T17:31:56Z</time>
      </trkpt>
      <trkpt lat="49.834" lon="5.49663">
        <ele>446.2</ele>
        <time>2023-06-09T17:31:57Z</time>
      </trkpt>
      <trkpt lat="49.83403" lon="5.4965">
        <ele>446.2</ele>
        <time>2023-06-09T17:31:58Z</time>
      </trkpt>
      <trkpt lat="49.83412" lon="5.49632">
        <ele>445.7</ele>
        <time>2023-06-09T17:32:00Z</time>
      </trkpt>
      <trkpt lat="49.83418" lon="5.49621">
        <ele>445.2</ele>
        <time>2023-06-09T17:32:01Z</time>
      </trkpt>
      <trkpt lat="49.83432" lon="5.49591">
        <ele>443.8</ele>
        <time>2023-06-09T17:32:03Z</time>
      </trkpt>
      <trkpt lat="49.83441" lon="5.49574">
        <ele>443.3</ele>
        <time>2023-06-09T17:32:04Z</time>
      </trkpt>
      <trkpt lat="49.83472" lon="5.4953">
        <ele>443.3</ele>
        <time>2023-06-09T17:32:07Z</time>
      </trkpt>
      <trkpt lat="49.83482" lon="5.49519">
        <ele>444.3</ele>
        <time>2023-06-09T17:32:08Z</time>
      </trkpt>
      <trkpt lat="49.83488" lon="5.49502">
        <ele>444.8</ele>
        <time>2023-06-09T17:32:09Z</time>
      </trkpt>
      <trkpt lat="49.83494" lon="5.49484">
        <ele>445.7</ele>
        <time>2023-06-09T17:32:10Z</time>
      </trkpt>
      <trkpt lat="49.83497" lon="5.49464">
        <ele>445.7</ele>
        <time>2023-06-09T17:32:11Z</time>
      </trkpt>
      <trkpt lat="49.835" lon="5.49441">
        <ele>445.7</ele>
        <time>2023-06-09T17:32:12Z</time>
      </trkpt>
      <trkpt lat="49.83512" lon="5.49361">
        <ele>449.1</ele>
        <time>2023-06-09T17:32:15Z</time>
      </trkpt>
      <trkpt lat="49.83529" lon="5.49249">
        <ele>452.4</ele>
        <time>2023-06-09T17:32:19Z</time>
      </trkpt>
      <trkpt lat="49.8354" lon="5.4917">
        <ele>455.8</ele>
        <time>2023-06-09T17:32:22Z</time>
      </trkpt>
      <trkpt lat="49.83555" lon="5.49073">
        <ele>459.2</ele>
        <time>2023-06-09T17:32:26Z</time>
      </trkpt>
      <trkpt lat="49.83572" lon="5.48948">
        <ele>463</ele>
        <time>2023-06-09T17:32:31Z</time>
      </trkpt>
      <trkpt lat="49.83576" lon="5.48854">
        <ele>463</ele>
        <time>2023-06-09T17:32:35Z</time>
      </trkpt>
      <trkpt lat="49.83573" lon="5.48831">
        <ele>463</ele>
        <time>2023-06-09T17:32:36Z</time>
      </trkpt>
      <trkpt lat="49.8357" lon="5.48808">
        <ele>463</ele>
        <time>2023-06-09T17:32:37Z</time>
      </trkpt>
      <trkpt lat="49.83565" lon="5.48762">
        <ele>463.5</ele>
        <time>2023-06-09T17:32:38Z</time>
      </trkpt>
      <trkpt lat="49.83565" lon="5.48762">
        <ele>462.5</ele>
        <time>2023-06-09T17:32:39Z</time>
      </trkpt>
      <trkpt lat="49.83543" lon="5.48668">
        <ele>461.1</ele>
        <time>2023-06-09T17:32:43Z</time>
      </trkpt>
      <trkpt lat="49.83543" lon="5.48668">
        <ele>459.2</ele>
        <time>2023-06-09T17:32:44Z</time>
      </trkpt>
      <trkpt lat="49.8354" lon="5.48652">
        <ele>458.2</ele>
        <time>2023-06-09T17:32:45Z</time>
      </trkpt>
      <trkpt lat="49.83539" lon="5.48587">
        <ele>456.3</ele>
        <time>2023-06-09T17:32:49Z</time>
      </trkpt>
      <trkpt lat="49.83541" lon="5.48539">
        <ele>453.9</ele>
        <time>2023-06-09T17:32:52Z</time>
      </trkpt>
      <trkpt lat="49.83546" lon="5.48497">
        <ele>455.3</ele>
        <time>2023-06-09T17:32:55Z</time>
      </trkpt>
      <trkpt lat="49.83556" lon="5.48455">
        <ele>458.7</ele>
        <time>2023-06-09T17:32:59Z</time>
      </trkpt>
      <trkpt lat="49.83557" lon="5.48448">
        <ele>458.7</ele>
        <time>2023-06-09T17:33:00Z</time>
      </trkpt>
      <trkpt lat="49.83558" lon="5.48434">
        <ele>458.7</ele>
        <time>2023-06-09T17:33:01Z</time>
      </trkpt>
      <trkpt lat="49.83532" lon="5.48341">
        <ele>456.3</ele>
        <time>2023-06-09T17:33:08Z</time>
      </trkpt>
      <trkpt lat="49.83522" lon="5.48296">
        <ele>457.2</ele>
        <time>2023-06-09T17:33:11Z</time>
      </trkpt>
      <trkpt lat="49.83519" lon="5.48282">
        <ele>457.2</ele>
        <time>2023-06-09T17:33:12Z</time>
      </trkpt>
      <trkpt lat="49.83505" lon="5.48253">
        <ele>457.2</ele>
        <time>2023-06-09T17:33:13Z</time>
      </trkpt>
      <trkpt lat="49.8349" lon="5.4823">
        <ele>458.2</ele>
        <time>2023-06-09T17:33:16Z</time>
      </trkpt>
      <trkpt lat="49.83482" lon="5.48219">
        <ele>458.7</ele>
        <time>2023-06-09T17:33:17Z</time>
      </trkpt>
      <trkpt lat="49.83475" lon="5.48207">
        <ele>459.6</ele>
        <time>2023-06-09T17:33:18Z</time>
      </trkpt>
      <trkpt lat="49.83467" lon="5.48195">
        <ele>459.6</ele>
        <time>2023-06-09T17:33:19Z</time>
      </trkpt>
      <trkpt lat="49.8346" lon="5.48182">
        <ele>461.1</ele>
        <time>2023-06-09T17:33:20Z</time>
      </trkpt>
      <trkpt lat="49.83454" lon="5.48167">
        <ele>461.1</ele>
        <time>2023-06-09T17:33:21Z</time>
      </trkpt>
      <trkpt lat="49.83432" lon="5.48084">
        <ele>464.4</ele>
        <time>2023-06-09T17:33:26Z</time>
      </trkpt>
      <trkpt lat="49.83427" lon="5.48067">
        <ele>465.9</ele>
        <time>2023-06-09T17:33:27Z</time>
      </trkpt>
      <trkpt lat="49.83422" lon="5.48051">
        <ele>466.9</ele>
        <time>2023-06-09T17:33:28Z</time>
      </trkpt>
      <trkpt lat="49.83408" lon="5.48022">
        <ele>467.8</ele>
        <time>2023-06-09T17:33:30Z</time>
      </trkpt>
      <trkpt lat="49.83372" lon="5.47946">
        <ele>471.2</ele>
        <time>2023-06-09T17:33:35Z</time>
      </trkpt>
      <trkpt lat="49.83347" lon="5.47883">
        <ele>475.5</ele>
        <time>2023-06-09T17:33:39Z</time>
      </trkpt>
      <trkpt lat="49.83332" lon="5.47844">
        <ele>477.9</ele>
        <time>2023-06-09T17:33:42Z</time>
      </trkpt>
      <trkpt lat="49.83328" lon="5.47834">
        <ele>478.4</ele>
        <time>2023-06-09T17:33:48Z</time>
      </trkpt>
      <trkpt lat="49.83328" lon="5.47834">
        <ele>478.4</ele>
        <time>2023-06-09T17:33:59Z</time>
      </trkpt>
      <trkpt lat="49.83328" lon="5.47834">
        <ele>478.4</ele>
        <time>2023-06-09T17:34:00Z</time>
      </trkpt>
      <trkpt lat="49.83324" lon="5.47837">
        <ele>478.4</ele>
        <time>2023-06-09T17:34:01Z</time>
      </trkpt>
      <trkpt lat="49.83256" lon="5.47892">
        <ele>475.5</ele>
        <time>2023-06-09T17:34:08Z</time>
      </trkpt>
      <trkpt lat="49.83215" lon="5.47926">
        <ele>473.6</ele>
        <time>2023-06-09T17:34:12Z</time>
      </trkpt>
      <trkpt lat="49.83207" lon="5.47932">
        <ele>472.6</ele>
        <time>2023-06-09T17:34:13Z</time>
      </trkpt>
      <trkpt lat="49.83199" lon="5.47939">
        <ele>472.6</ele>
        <time>2023-06-09T17:34:14Z</time>
      </trkpt>
      <trkpt lat="49.83191" lon="5.47945">
        <ele>472.1</ele>
        <time>2023-06-09T17:34:15Z</time>
      </trkpt>
      <trkpt lat="49.83182" lon="5.47952">
        <ele>471.7</ele>
        <time>2023-06-09T17:34:16Z</time>
      </trkpt>
      <trkpt lat="49.83165" lon="5.47941">
        <ele>471.7</ele>
        <time>2023-06-09T17:34:17Z</time>
      </trkpt>
      <trkpt lat="49.83138" lon="5.47926">
        <ele>471.2</ele>
        <time>2023-06-09T17:34:18Z</time>
      </trkpt>
      <trkpt lat="49.8311" lon="5.47909">
        <ele>468.3</ele>
        <time>2023-06-09T17:34:21Z</time>
      </trkpt>
      <trkpt lat="49.83071" lon="5.4788">
        <ele>466.9</ele>
        <time>2023-06-09T17:34:24Z</time>
      </trkpt>
      <trkpt lat="49.83047" lon="5.4786">
        <ele>464.9</ele>
        <time>2023-06-09T17:34:26Z</time>
      </trkpt>
      <trkpt lat="49.83036" lon="5.47844">
        <ele>464.4</ele>
        <time>2023-06-09T17:34:27Z</time>
      </trkpt>
      <trkpt lat="49.83025" lon="5.47827">
        <ele>464.9</ele>
        <time>2023-06-09T17:34:28Z</time>
      </trkpt>
      <trkpt lat="49.82944" lon="5.47675">
        <ele>463.5</ele>
        <time>2023-06-09T17:34:37Z</time>
      </trkpt>
      <trkpt lat="49.82868" lon="5.47539">
        <ele>463</ele>
        <time>2023-06-09T17:34:44Z</time>
      </trkpt>
      <trkpt lat="49.82856" lon="5.47522">
        <ele>463</ele>
        <time>2023-06-09T17:34:45Z</time>
      </trkpt>
      <trkpt lat="49.82842" lon="5.47507">
        <ele>462.5</ele>
        <time>2023-06-09T17:34:46Z</time>
      </trkpt>
      <trkpt lat="49.82811" lon="5.47483">
        <ele>462.1</ele>
        <time>2023-06-09T17:34:47Z</time>
      </trkpt>
      <trkpt lat="49.82811" lon="5.47483">
        <ele>461.1</ele>
        <time>2023-06-09T17:34:48Z</time>
      </trkpt>
      <trkpt lat="49.82794" lon="5.47475">
        <ele>460.6</ele>
        <time>2023-06-09T17:34:49Z</time>
      </trkpt>
      <trkpt lat="49.8266" lon="5.47441">
        <ele>458.7</ele>
        <time>2023-06-09T17:34:56Z</time>
      </trkpt>
      <trkpt lat="49.82448" lon="5.47451">
        <ele>456.3</ele>
        <time>2023-06-09T17:35:07Z</time>
      </trkpt>
      <trkpt lat="49.82405" lon="5.47451">
        <ele>456.3</ele>
        <time>2023-06-09T17:35:12Z</time>
      </trkpt>
      <trkpt lat="49.82399" lon="5.4745">
        <ele>456.3</ele>
        <time>2023-06-09T17:35:16Z</time>
      </trkpt>
      <trkpt lat="49.82395" lon="5.47449">
        <ele>455.8</ele>
        <time>2023-06-09T17:35:17Z</time>
      </trkpt>
      <trkpt lat="49.82389" lon="5.47448">
        <ele>455.8</ele>
        <time>2023-06-09T17:35:18Z</time>
      </trkpt>
      <trkpt lat="49.82373" lon="5.47445">
        <ele>455.3</ele>
        <time>2023-06-09T17:35:20Z</time>
      </trkpt>
      <trkpt lat="49.82362" lon="5.47443">
        <ele>456.3</ele>
        <time>2023-06-09T17:35:21Z</time>
      </trkpt>
      <trkpt lat="49.82211" lon="5.4741">
        <ele>456.8</ele>
        <time>2023-06-09T17:35:33Z</time>
      </trkpt>
      <trkpt lat="49.82155" lon="5.47399">
        <ele>454.8</ele>
        <time>2023-06-09T17:35:38Z</time>
      </trkpt>
      <trkpt lat="49.82129" lon="5.47394">
        <ele>453.4</ele>
        <time>2023-06-09T17:35:40Z</time>
      </trkpt>
      <trkpt lat="49.82118" lon="5.47397">
        <ele>452.9</ele>
        <time>2023-06-09T17:35:41Z</time>
      </trkpt>
      <trkpt lat="49.82094" lon="5.47404">
        <ele>452</ele>
        <time>2023-06-09T17:35:42Z</time>
      </trkpt>
      <trkpt lat="49.82094" lon="5.47404">
        <ele>451</ele>
        <time>2023-06-09T17:35:43Z</time>
      </trkpt>
      <trkpt lat="49.82082" lon="5.47409">
        <ele>449.6</ele>
        <time>2023-06-09T17:35:44Z</time>
      </trkpt>
      <trkpt lat="49.82071" lon="5.47418">
        <ele>448.1</ele>
        <time>2023-06-09T17:35:45Z</time>
      </trkpt>
      <trkpt lat="49.82037" lon="5.47445">
        <ele>443.8</ele>
        <time>2023-06-09T17:35:48Z</time>
      </trkpt>
      <trkpt lat="49.82004" lon="5.47471">
        <ele>439.5</ele>
        <time>2023-06-09T17:35:51Z</time>
      </trkpt>
      <trkpt lat="49.81962" lon="5.47504">
        <ele>436.1</ele>
        <time>2023-06-09T17:35:55Z</time>
      </trkpt>
      <trkpt lat="49.81919" lon="5.47537">
        <ele>432.3</ele>
        <time>2023-06-09T17:35:58Z</time>
      </trkpt>
      <trkpt lat="49.81908" lon="5.47545">
        <ele>429.4</ele>
        <time>2023-06-09T17:36:00Z</time>
      </trkpt>
      <trkpt lat="49.81892" lon="5.4755">
        <ele>429.4</ele>
        <time>2023-06-09T17:36:01Z</time>
      </trkpt>
      <trkpt lat="49.81892" lon="5.4755">
        <ele>429.9</ele>
        <time>2023-06-09T17:36:02Z</time>
      </trkpt>
      <trkpt lat="49.81885" lon="5.4755">
        <ele>429.4</ele>
        <time>2023-06-09T17:36:03Z</time>
      </trkpt>
      <trkpt lat="49.8188" lon="5.47549">
        <ele>429.4</ele>
        <time>2023-06-09T17:36:04Z</time>
      </trkpt>
      <trkpt lat="49.81872" lon="5.47542">
        <ele>429.4</ele>
        <time>2023-06-09T17:36:05Z</time>
      </trkpt>
      <trkpt lat="49.81872" lon="5.47542">
        <ele>428.9</ele>
        <time>2023-06-09T17:36:06Z</time>
      </trkpt>
      <trkpt lat="49.81866" lon="5.47531">
        <ele>428.9</ele>
        <time>2023-06-09T17:36:07Z</time>
      </trkpt>
      <trkpt lat="49.81851" lon="5.47505">
        <ele>427.9</ele>
        <time>2023-06-09T17:36:11Z</time>
      </trkpt>
      <trkpt lat="49.81841" lon="5.47492">
        <ele>427.4</ele>
        <time>2023-06-09T17:36:13Z</time>
      </trkpt>
      <trkpt lat="49.81835" lon="5.47485">
        <ele>427</ele>
        <time>2023-06-09T17:36:14Z</time>
      </trkpt>
      <trkpt lat="49.818" lon="5.47436">
        <ele>429</ele>
        <time>2023-06-09T17:37:01Z</time>
      </trkpt>
      <trkpt lat="49.81797" lon="5.47433">
        <ele>429</ele>
        <time>2023-06-09T17:37:04Z</time>
      </trkpt>
      <trkpt lat="49.81784" lon="5.47412">
        <ele>428.3</ele>
        <time>2023-06-09T17:37:24Z</time>
      </trkpt>
      <trkpt lat="49.81778" lon="5.4739">
        <ele>427</ele>
        <time>2023-06-09T17:37:39Z</time>
      </trkpt>
      <trkpt lat="49.81776" lon="5.47382">
        <ele>427</ele>
        <time>2023-06-09T17:37:46Z</time>
      </trkpt>
      <trkpt lat="49.81775" lon="5.47381">
        <ele>425.8</ele>
        <time>2023-06-09T17:37:47Z</time>
      </trkpt>
      <trkpt lat="49.81774" lon="5.47365">
        <ele>428.4</ele>
        <time>2023-06-09T17:38:12Z</time>
      </trkpt>
      <trkpt lat="49.81774" lon="5.47365">
        <ele>427.9</ele>
        <time>2023-06-09T17:38:13Z</time>
      </trkpt>
      <trkpt lat="49.81773" lon="5.47351">
        <ele>427.4</ele>
        <time>2023-06-09T17:38:14Z</time>
      </trkpt>
      <trkpt lat="49.81773" lon="5.47333">
        <ele>426.5</ele>
        <time>2023-06-09T17:38:15Z</time>
      </trkpt>
      <trkpt lat="49.81773" lon="5.47316">
        <ele>426</ele>
        <time>2023-06-09T17:38:16Z</time>
      </trkpt>
      <trkpt lat="49.81774" lon="5.47262">
        <ele>423.6</ele>
        <time>2023-06-09T17:38:20Z</time>
      </trkpt>
      <trkpt lat="49.81774" lon="5.47239">
        <ele>423.6</ele>
        <time>2023-06-09T17:38:22Z</time>
      </trkpt>
      <trkpt lat="49.81774" lon="5.47229">
        <ele>423.1</ele>
        <time>2023-06-09T17:38:23Z</time>
      </trkpt>
      <trkpt lat="49.81774" lon="5.47218">
        <ele>423.1</ele>
        <time>2023-06-09T17:38:24Z</time>
      </trkpt>
      <trkpt lat="49.81773" lon="5.47207">
        <ele>422.6</ele>
        <time>2023-06-09T17:38:25Z</time>
      </trkpt>
      <trkpt lat="49.81772" lon="5.47194">
        <ele>422.6</ele>
        <time>2023-06-09T17:38:26Z</time>
      </trkpt>
      <trkpt lat="49.81771" lon="5.47168">
        <ele>421.2</ele>
        <time>2023-06-09T17:38:28Z</time>
      </trkpt>
      <trkpt lat="49.8177" lon="5.47155">
        <ele>420.7</ele>
        <time>2023-06-09T17:38:29Z</time>
      </trkpt>
      <trkpt lat="49.81768" lon="5.47132">
        <ele>420.2</ele>
        <time>2023-06-09T17:38:30Z</time>
      </trkpt>
      <trkpt lat="49.81768" lon="5.47132">
        <ele>420.2</ele>
        <time>2023-06-09T17:38:31Z</time>
      </trkpt>
      <trkpt lat="49.81766" lon="5.47118">
        <ele>420.2</ele>
        <time>2023-06-09T17:38:32Z</time>
      </trkpt>
      <trkpt lat="49.81734" lon="5.47049">
        <ele>421.2</ele>
        <time>2023-06-09T17:38:37Z</time>
      </trkpt>
      <trkpt lat="49.81734" lon="5.47049">
        <ele>421.2</ele>
        <time>2023-06-09T17:38:38Z</time>
      </trkpt>
      <trkpt lat="49.8173" lon="5.47041">
        <ele>421.2</ele>
        <time>2023-06-09T17:38:39Z</time>
      </trkpt>
      <trkpt lat="49.81721" lon="5.47049">
        <ele>421.7</ele>
        <time>2023-06-09T17:38:40Z</time>
      </trkpt>
      <trkpt lat="49.81721" lon="5.47049">
        <ele>421.7</ele>
        <time>2023-06-09T17:38:41Z</time>
      </trkpt>
      <trkpt lat="49.81717" lon="5.47059">
        <ele>422.2</ele>
        <time>2023-06-09T17:38:42Z</time>
      </trkpt>
      <trkpt lat="49.81712" lon="5.47071">
        <ele>422.6</ele>
        <time>2023-06-09T17:38:43Z</time>
      </trkpt>
      <trkpt lat="49.81685" lon="5.47128">
        <ele>423.6</ele>
        <time>2023-06-09T17:38:47Z</time>
      </trkpt>
      <trkpt lat="49.81654" lon="5.47172">
        <ele>422.2</ele>
        <time>2023-06-09T17:38:51Z</time>
      </trkpt>
      <trkpt lat="49.81645" lon="5.47184">
        <ele>421.2</ele>
        <time>2023-06-09T17:38:52Z</time>
      </trkpt>
      <trkpt lat="49.8161" lon="5.47205">
        <ele>417.8</ele>
        <time>2023-06-09T17:38:55Z</time>
      </trkpt>
      <trkpt lat="49.81558" lon="5.47235">
        <ele>417.8</ele>
        <time>2023-06-09T17:39:00Z</time>
      </trkpt>
      <trkpt lat="49.81548" lon="5.47242">
        <ele>417.8</ele>
        <time>2023-06-09T17:39:01Z</time>
      </trkpt>
      <trkpt lat="49.81451" lon="5.47362">
        <ele>420.7</ele>
        <time>2023-06-09T17:39:10Z</time>
      </trkpt>
      <trkpt lat="49.81406" lon="5.47417">
        <ele>417.4</ele>
        <time>2023-06-09T17:39:15Z</time>
      </trkpt>
      <trkpt lat="49.81394" lon="5.47429">
        <ele>417.8</ele>
        <time>2023-06-09T17:39:16Z</time>
      </trkpt>
      <trkpt lat="49.8132" lon="5.47502">
        <ele>414.5</ele>
        <time>2023-06-09T17:39:22Z</time>
      </trkpt>
      <trkpt lat="49.81309" lon="5.47514">
        <ele>414.9</ele>
        <time>2023-06-09T17:39:23Z</time>
      </trkpt>
      <trkpt lat="49.81299" lon="5.47526">
        <ele>414.9</ele>
        <time>2023-06-09T17:39:24Z</time>
      </trkpt>
      <trkpt lat="49.81292" lon="5.47541">
        <ele>414.9</ele>
        <time>2023-06-09T17:39:25Z</time>
      </trkpt>
      <trkpt lat="49.81289" lon="5.4756">
        <ele>414.9</ele>
        <time>2023-06-09T17:39:26Z</time>
      </trkpt>
      <trkpt lat="49.81288" lon="5.4761">
        <ele>414.9</ele>
        <time>2023-06-09T17:39:27Z</time>
      </trkpt>
      <trkpt lat="49.81282" lon="5.47702">
        <ele>414.5</ele>
        <time>2023-06-09T17:39:32Z</time>
      </trkpt>
      <trkpt lat="49.81273" lon="5.47737">
        <ele>414.9</ele>
        <time>2023-06-09T17:39:33Z</time>
      </trkpt>
      <trkpt lat="49.81266" lon="5.47753">
        <ele>415.9</ele>
        <time>2023-06-09T17:39:34Z</time>
      </trkpt>
      <trkpt lat="49.81266" lon="5.47753">
        <ele>415.9</ele>
        <time>2023-06-09T17:39:35Z</time>
      </trkpt>
      <trkpt lat="49.81257" lon="5.4777">
        <ele>415.9</ele>
        <time>2023-06-09T17:39:36Z</time>
      </trkpt>
      <trkpt lat="49.81176" lon="5.4791">
        <ele>415.9</ele>
        <time>2023-06-09T17:39:44Z</time>
      </trkpt>
      <trkpt lat="49.81126" lon="5.47982">
        <ele>414</ele>
        <time>2023-06-09T17:39:49Z</time>
      </trkpt>
      <trkpt lat="49.81065" lon="5.48039">
        <ele>410.1</ele>
        <time>2023-06-09T17:39:55Z</time>
      </trkpt>
      <trkpt lat="49.81045" lon="5.48062">
        <ele>406.8</ele>
        <time>2023-06-09T17:39:58Z</time>
      </trkpt>
      <trkpt lat="49.81036" lon="5.48073">
        <ele>406.8</ele>
        <time>2023-06-09T17:39:59Z</time>
      </trkpt>
      <trkpt lat="49.80998" lon="5.48117">
        <ele>406.3</ele>
        <time>2023-06-09T17:40:04Z</time>
      </trkpt>
      <trkpt lat="49.80994" lon="5.48122">
        <ele>406.3</ele>
        <time>2023-06-09T17:40:05Z</time>
      </trkpt>
      <trkpt lat="49.8098" lon="5.48117">
        <ele>406.8</ele>
        <time>2023-06-09T17:40:06Z</time>
      </trkpt>
      <trkpt lat="49.8098" lon="5.48117">
        <ele>406.8</ele>
        <time>2023-06-09T17:40:07Z</time>
      </trkpt>
      <trkpt lat="49.80972" lon="5.48111">
        <ele>406.3</ele>
        <time>2023-06-09T17:40:08Z</time>
      </trkpt>
      <trkpt lat="49.80911" lon="5.48092">
        <ele>409.2</ele>
        <time>2023-06-09T17:40:14Z</time>
      </trkpt>
      <trkpt lat="49.809" lon="5.4809">
        <ele>409.7</ele>
        <time>2023-06-09T17:40:15Z</time>
      </trkpt>
      <trkpt lat="49.80864" lon="5.48108">
        <ele>413</ele>
        <time>2023-06-09T17:40:18Z</time>
      </trkpt>
      <trkpt lat="49.80804" lon="5.48131">
        <ele>416.9</ele>
        <time>2023-06-09T17:40:22Z</time>
      </trkpt>
      <trkpt lat="49.80749" lon="5.48151">
        <ele>420.7</ele>
        <time>2023-06-09T17:40:25Z</time>
      </trkpt>
      <trkpt lat="49.80675" lon="5.48172">
        <ele>422.6</ele>
        <time>2023-06-09T17:40:28Z</time>
      </trkpt>
      <trkpt lat="49.80642" lon="5.48178">
        <ele>424.1</ele>
        <time>2023-06-09T17:40:31Z</time>
      </trkpt>
      <trkpt lat="49.80566" lon="5.48192">
        <ele>420.7</ele>
        <time>2023-06-09T17:40:36Z</time>
      </trkpt>
      <trkpt lat="49.80536" lon="5.48198">
        <ele>419.8</ele>
        <time>2023-06-09T17:40:38Z</time>
      </trkpt>
      <trkpt lat="49.80522" lon="5.48205">
        <ele>419.8</ele>
        <time>2023-06-09T17:40:39Z</time>
      </trkpt>
      <trkpt lat="49.80509" lon="5.48213">
        <ele>421.2</ele>
        <time>2023-06-09T17:40:40Z</time>
      </trkpt>
      <trkpt lat="49.80499" lon="5.48222">
        <ele>421.7</ele>
        <time>2023-06-09T17:40:41Z</time>
      </trkpt>
      <trkpt lat="49.80488" lon="5.48232">
        <ele>422.6</ele>
        <time>2023-06-09T17:40:42Z</time>
      </trkpt>
      <trkpt lat="49.8044" lon="5.48294">
        <ele>425</ele>
        <time>2023-06-09T17:40:47Z</time>
      </trkpt>
      <trkpt lat="49.80433" lon="5.48305">
        <ele>425</ele>
        <time>2023-06-09T17:40:48Z</time>
      </trkpt>
      <trkpt lat="49.80424" lon="5.4833">
        <ele>425</ele>
        <time>2023-06-09T17:40:49Z</time>
      </trkpt>
      <trkpt lat="49.80424" lon="5.4833">
        <ele>424.1</ele>
        <time>2023-06-09T17:40:50Z</time>
      </trkpt>
      <trkpt lat="49.80423" lon="5.48344">
        <ele>424.1</ele>
        <time>2023-06-09T17:40:51Z</time>
      </trkpt>
      <trkpt lat="49.80422" lon="5.48359">
        <ele>424.1</ele>
        <time>2023-06-09T17:40:52Z</time>
      </trkpt>
      <trkpt lat="49.8041" lon="5.48522">
        <ele>423.6</ele>
        <time>2023-06-09T17:41:01Z</time>
      </trkpt>
      <trkpt lat="49.80398" lon="5.48606">
        <ele>422.2</ele>
        <time>2023-06-09T17:41:06Z</time>
      </trkpt>
      <trkpt lat="49.80395" lon="5.48616">
        <ele>422.6</ele>
        <time>2023-06-09T17:41:07Z</time>
      </trkpt>
      <trkpt lat="49.80392" lon="5.48622">
        <ele>423.1</ele>
        <time>2023-06-09T17:41:08Z</time>
      </trkpt>
      <trkpt lat="49.80388" lon="5.48628">
        <ele>423.6</ele>
        <time>2023-06-09T17:41:09Z</time>
      </trkpt>
      <trkpt lat="49.80377" lon="5.48642">
        <ele>423.6</ele>
        <time>2023-06-09T17:41:10Z</time>
      </trkpt>
      <trkpt lat="49.80344" lon="5.48683">
        <ele>427</ele>
        <time>2023-06-09T17:41:15Z</time>
      </trkpt>
      <trkpt lat="49.80285" lon="5.48759">
        <ele>423.6</ele>
        <time>2023-06-09T17:41:21Z</time>
      </trkpt>
      <trkpt lat="49.80232" lon="5.48816">
        <ele>420.2</ele>
        <time>2023-06-09T17:41:26Z</time>
      </trkpt>
      <trkpt lat="49.80222" lon="5.48821">
        <ele>419.8</ele>
        <time>2023-06-09T17:41:27Z</time>
      </trkpt>
      <trkpt lat="49.80201" lon="5.48827">
        <ele>419.3</ele>
        <time>2023-06-09T17:41:28Z</time>
      </trkpt>
      <trkpt lat="49.80182" lon="5.4882">
        <ele>416.9</ele>
        <time>2023-06-09T17:41:30Z</time>
      </trkpt>
      <trkpt lat="49.80174" lon="5.48812">
        <ele>416.4</ele>
        <time>2023-06-09T17:41:31Z</time>
      </trkpt>
      <trkpt lat="49.80174" lon="5.48812">
        <ele>415.4</ele>
        <time>2023-06-09T17:41:32Z</time>
      </trkpt>
      <trkpt lat="49.80166" lon="5.48798">
        <ele>414.5</ele>
        <time>2023-06-09T17:41:33Z</time>
      </trkpt>
      <trkpt lat="49.80158" lon="5.48785">
        <ele>414.5</ele>
        <time>2023-06-09T17:41:34Z</time>
      </trkpt>
      <trkpt lat="49.80152" lon="5.48775">
        <ele>414</ele>
        <time>2023-06-09T17:41:35Z</time>
      </trkpt>
      <trkpt lat="49.80146" lon="5.48765">
        <ele>414.5</ele>
        <time>2023-06-09T17:41:36Z</time>
      </trkpt>
      <trkpt lat="49.80141" lon="5.48755">
        <ele>414</ele>
        <time>2023-06-09T17:41:37Z</time>
      </trkpt>
      <trkpt lat="49.80125" lon="5.48741">
        <ele>413</ele>
        <time>2023-06-09T17:41:38Z</time>
      </trkpt>
      <trkpt lat="49.80125" lon="5.48741">
        <ele>411.6</ele>
        <time>2023-06-09T17:41:39Z</time>
      </trkpt>
      <trkpt lat="49.80109" lon="5.48735">
        <ele>410.6</ele>
        <time>2023-06-09T17:41:41Z</time>
      </trkpt>
      <trkpt lat="49.80103" lon="5.48733">
        <ele>410.6</ele>
        <time>2023-06-09T17:41:42Z</time>
      </trkpt>
      <trkpt lat="49.80103" lon="5.48733">
        <ele>409.7</ele>
        <time>2023-06-09T17:41:43Z</time>
      </trkpt>
      <trkpt lat="49.80036" lon="5.48639">
        <ele>406.8</ele>
        <time>2023-06-09T17:41:49Z</time>
      </trkpt>
      <trkpt lat="49.79959" lon="5.48518">
        <ele>407.7</ele>
        <time>2023-06-09T17:41:59Z</time>
      </trkpt>
      <trkpt lat="49.79918" lon="5.4847">
        <ele>411.6</ele>
        <time>2023-06-09T17:42:02Z</time>
      </trkpt>
      <trkpt lat="49.79892" lon="5.48431">
        <ele>414.9</ele>
        <time>2023-06-09T17:42:06Z</time>
      </trkpt>
      <trkpt lat="49.7987" lon="5.48391">
        <ele>418.3</ele>
        <time>2023-06-09T17:42:09Z</time>
      </trkpt>
      <trkpt lat="49.79848" lon="5.48349">
        <ele>419.3</ele>
        <time>2023-06-09T17:42:11Z</time>
      </trkpt>
      <trkpt lat="49.79824" lon="5.48306">
        <ele>423.6</ele>
        <time>2023-06-09T17:42:15Z</time>
      </trkpt>
      <trkpt lat="49.798" lon="5.48262">
        <ele>427.4</ele>
        <time>2023-06-09T17:42:18Z</time>
      </trkpt>
      <trkpt lat="49.79721" lon="5.48119">
        <ele>426.5</ele>
        <time>2023-06-09T17:42:28Z</time>
      </trkpt>
      <trkpt lat="49.797" lon="5.48089">
        <ele>427.9</ele>
        <time>2023-06-09T17:42:30Z</time>
      </trkpt>
      <trkpt lat="49.797" lon="5.48089">
        <ele>427.9</ele>
        <time>2023-06-09T17:42:31Z</time>
      </trkpt>
      <trkpt lat="49.79632" lon="5.47995">
        <ele>429.4</ele>
        <time>2023-06-09T17:42:39Z</time>
      </trkpt>
      <trkpt lat="49.79625" lon="5.47981">
        <ele>429.9</ele>
        <time>2023-06-09T17:42:40Z</time>
      </trkpt>
      <trkpt lat="49.7955" lon="5.47826">
        <ele>430.3</ele>
        <time>2023-06-09T17:42:49Z</time>
      </trkpt>
      <trkpt lat="49.79539" lon="5.47807">
        <ele>430.3</ele>
        <time>2023-06-09T17:42:50Z</time>
      </trkpt>
      <trkpt lat="49.79454" lon="5.47648">
        <ele>430.3</ele>
        <time>2023-06-09T17:42:58Z</time>
      </trkpt>
      <trkpt lat="49.79454" lon="5.47648">
        <ele>430.8</ele>
        <time>2023-06-09T17:42:59Z</time>
      </trkpt>
      <trkpt lat="49.7943" lon="5.47622">
        <ele>430.8</ele>
        <time>2023-06-09T17:43:02Z</time>
      </trkpt>
      <trkpt lat="49.79422" lon="5.47619">
        <ele>430.3</ele>
        <time>2023-06-09T17:43:03Z</time>
      </trkpt>
      <trkpt lat="49.79403" lon="5.47613">
        <ele>429.4</ele>
        <time>2023-06-09T17:43:05Z</time>
      </trkpt>
      <trkpt lat="49.79306" lon="5.47566">
        <ele>429.9</ele>
        <time>2023-06-09T17:43:14Z</time>
      </trkpt>
      <trkpt lat="49.79278" lon="5.47551">
        <ele>431.3</ele>
        <time>2023-06-09T17:43:20Z</time>
      </trkpt>
      <trkpt lat="49.79278" lon="5.47551">
        <ele>431.8</ele>
        <time>2023-06-09T17:43:24Z</time>
      </trkpt>
      <trkpt lat="49.79273" lon="5.47549">
        <ele>431.8</ele>
        <time>2023-06-09T17:43:25Z</time>
      </trkpt>
      <trkpt lat="49.79271" lon="5.4755">
        <ele>431.8</ele>
        <time>2023-06-09T17:43:26Z</time>
      </trkpt>
      <trkpt lat="49.79231" lon="5.47595">
        <ele>433.2</ele>
        <time>2023-06-09T17:43:31Z</time>
      </trkpt>
      <trkpt lat="49.791" lon="5.47743">
        <ele>433.2</ele>
        <time>2023-06-09T17:43:41Z</time>
      </trkpt>
      <trkpt lat="49.78984" lon="5.47873">
        <ele>437.5</ele>
        <time>2023-06-09T17:43:49Z</time>
      </trkpt>
      <trkpt lat="49.78933" lon="5.47934">
        <ele>440.4</ele>
        <time>2023-06-09T17:43:52Z</time>
      </trkpt>
      <trkpt lat="49.78922" lon="5.47944">
        <ele>440.9</ele>
        <time>2023-06-09T17:43:54Z</time>
      </trkpt>
      <trkpt lat="49.78911" lon="5.4795">
        <ele>442.3</ele>
        <time>2023-06-09T17:43:55Z</time>
      </trkpt>
      <trkpt lat="49.78902" lon="5.47956">
        <ele>442.8</ele>
        <time>2023-06-09T17:43:56Z</time>
      </trkpt>
      <trkpt lat="49.78891" lon="5.47957">
        <ele>443.3</ele>
        <time>2023-06-09T17:43:57Z</time>
      </trkpt>
      <trkpt lat="49.78878" lon="5.47958">
        <ele>443.8</ele>
        <time>2023-06-09T17:43:58Z</time>
      </trkpt>
      <trkpt lat="49.78864" lon="5.47954">
        <ele>444.8</ele>
        <time>2023-06-09T17:43:59Z</time>
      </trkpt>
      <trkpt lat="49.7885" lon="5.47943">
        <ele>445.7</ele>
        <time>2023-06-09T17:44:00Z</time>
      </trkpt>
      <trkpt lat="49.78836" lon="5.47929">
        <ele>445.7</ele>
        <time>2023-06-09T17:44:01Z</time>
      </trkpt>
      <trkpt lat="49.78824" lon="5.47913">
        <ele>444.8</ele>
        <time>2023-06-09T17:44:02Z</time>
      </trkpt>
      <trkpt lat="49.78756" lon="5.47822">
        <ele>445.7</ele>
        <time>2023-06-09T17:44:06Z</time>
      </trkpt>
      <trkpt lat="49.78741" lon="5.47806">
        <ele>445.7</ele>
        <time>2023-06-09T17:44:07Z</time>
      </trkpt>
      <trkpt lat="49.78724" lon="5.47795">
        <ele>446.2</ele>
        <time>2023-06-09T17:44:08Z</time>
      </trkpt>
      <trkpt lat="49.78724" lon="5.47795">
        <ele>445.2</ele>
        <time>2023-06-09T17:44:09Z</time>
      </trkpt>
      <trkpt lat="49.78707" lon="5.47788">
        <ele>444.3</ele>
        <time>2023-06-09T17:44:10Z</time>
      </trkpt>
      <trkpt lat="49.78687" lon="5.47787">
        <ele>444.3</ele>
        <time>2023-06-09T17:44:11Z</time>
      </trkpt>
      <trkpt lat="49.786" lon="5.47784">
        <ele>445.2</ele>
        <time>2023-06-09T17:44:15Z</time>
      </trkpt>
      <trkpt lat="49.78494" lon="5.47777">
        <ele>445.2</ele>
        <time>2023-06-09T17:44:20Z</time>
      </trkpt>
      <trkpt lat="49.78473" lon="5.4777">
        <ele>444.8</ele>
        <time>2023-06-09T17:44:21Z</time>
      </trkpt>
      <trkpt lat="49.78454" lon="5.47761">
        <ele>444.3</ele>
        <time>2023-06-09T17:44:22Z</time>
      </trkpt>
      <trkpt lat="49.78326" lon="5.47656">
        <ele>441.4</ele>
        <time>2023-06-09T17:44:29Z</time>
      </trkpt>
      <trkpt lat="49.78309" lon="5.47645">
        <ele>440.4</ele>
        <time>2023-06-09T17:44:30Z</time>
      </trkpt>
      <trkpt lat="49.78292" lon="5.47638">
        <ele>439.9</ele>
        <time>2023-06-09T17:44:31Z</time>
      </trkpt>
      <trkpt lat="49.78273" lon="5.47637">
        <ele>438.5</ele>
        <time>2023-06-09T17:44:32Z</time>
      </trkpt>
      <trkpt lat="49.78256" lon="5.47636">
        <ele>437.5</ele>
        <time>2023-06-09T17:44:33Z</time>
      </trkpt>
      <trkpt lat="49.7824" lon="5.47641">
        <ele>437.1</ele>
        <time>2023-06-09T17:44:34Z</time>
      </trkpt>
      <trkpt lat="49.78138" lon="5.47673">
        <ele>433.7</ele>
        <time>2023-06-09T17:44:41Z</time>
      </trkpt>
      <trkpt lat="49.78071" lon="5.47696">
        <ele>430.3</ele>
        <time>2023-06-09T17:44:45Z</time>
      </trkpt>
      <trkpt lat="49.78032" lon="5.47713">
        <ele>428.4</ele>
        <time>2023-06-09T17:44:49Z</time>
      </trkpt>
      <trkpt lat="49.77973" lon="5.47753">
        <ele>425.5</ele>
        <time>2023-06-09T17:44:54Z</time>
      </trkpt>
      <trkpt lat="49.77898" lon="5.47802">
        <ele>421.2</ele>
        <time>2023-06-09T17:45:02Z</time>
      </trkpt>
      <trkpt lat="49.77893" lon="5.47806">
        <ele>420.7</ele>
        <time>2023-06-09T17:45:03Z</time>
      </trkpt>
      <trkpt lat="49.77883" lon="5.47805">
        <ele>420.2</ele>
        <time>2023-06-09T17:45:04Z</time>
      </trkpt>
      <trkpt lat="49.77879" lon="5.47797">
        <ele>420.2</ele>
        <time>2023-06-09T17:45:05Z</time>
      </trkpt>
      <trkpt lat="49.77872" lon="5.47786">
        <ele>418.8</ele>
        <time>2023-06-09T17:45:06Z</time>
      </trkpt>
      <trkpt lat="49.77837" lon="5.47735">
        <ele>415.4</ele>
        <time>2023-06-09T17:45:10Z</time>
      </trkpt>
      <trkpt lat="49.77807" lon="5.47703">
        <ele>413.5</ele>
        <time>2023-06-09T17:45:13Z</time>
      </trkpt>
      <trkpt lat="49.77796" lon="5.47694">
        <ele>413</ele>
        <time>2023-06-09T17:45:14Z</time>
      </trkpt>
      <trkpt lat="49.77783" lon="5.47684">
        <ele>412.5</ele>
        <time>2023-06-09T17:45:15Z</time>
      </trkpt>
      <trkpt lat="49.77721" lon="5.47662">
        <ele>409.7</ele>
        <time>2023-06-09T17:45:19Z</time>
      </trkpt>
      <trkpt lat="49.77652" lon="5.47643">
        <ele>407.3</ele>
        <time>2023-06-09T17:45:22Z</time>
      </trkpt>
      <trkpt lat="49.77621" lon="5.47629">
        <ele>405.8</ele>
        <time>2023-06-09T17:45:25Z</time>
      </trkpt>
      <trkpt lat="49.77605" lon="5.47621">
        <ele>405.8</ele>
        <time>2023-06-09T17:45:26Z</time>
      </trkpt>
      <trkpt lat="49.7759" lon="5.47609">
        <ele>405.3</ele>
        <time>2023-06-09T17:45:27Z</time>
      </trkpt>
      <trkpt lat="49.77576" lon="5.47594">
        <ele>405.3</ele>
        <time>2023-06-09T17:45:28Z</time>
      </trkpt>
      <trkpt lat="49.7755" lon="5.47559">
        <ele>405.3</ele>
        <time>2023-06-09T17:45:29Z</time>
      </trkpt>
      <trkpt lat="49.77536" lon="5.4754">
        <ele>405.8</ele>
        <time>2023-06-09T17:45:30Z</time>
      </trkpt>
      <trkpt lat="49.77525" lon="5.47516">
        <ele>406.3</ele>
        <time>2023-06-09T17:45:31Z</time>
      </trkpt>
      <trkpt lat="49.77525" lon="5.47516">
        <ele>405.3</ele>
        <time>2023-06-09T17:45:32Z</time>
      </trkpt>
      <trkpt lat="49.77512" lon="5.47491">
        <ele>406.8</ele>
        <time>2023-06-09T17:45:33Z</time>
      </trkpt>
      <trkpt lat="49.77493" lon="5.47433">
        <ele>407.7</ele>
        <time>2023-06-09T17:45:34Z</time>
      </trkpt>
      <trkpt lat="49.77474" lon="5.47378">
        <ele>410.6</ele>
        <time>2023-06-09T17:45:37Z</time>
      </trkpt>
      <trkpt lat="49.77445" lon="5.47297">
        <ele>413.5</ele>
        <time>2023-06-09T17:45:40Z</time>
      </trkpt>
      <trkpt lat="49.77417" lon="5.47217">
        <ele>417.4</ele>
        <time>2023-06-09T17:45:43Z</time>
      </trkpt>
      <trkpt lat="49.77408" lon="5.47191">
        <ele>417.4</ele>
        <time>2023-06-09T17:45:44Z</time>
      </trkpt>
      <trkpt lat="49.7737" lon="5.47085">
        <ele>420.2</ele>
        <time>2023-06-09T17:45:49Z</time>
      </trkpt>
      <trkpt lat="49.77364" lon="5.47068">
        <ele>420.2</ele>
        <time>2023-06-09T17:45:50Z</time>
      </trkpt>
      <trkpt lat="49.77343" lon="5.4701">
        <ele>421.7</ele>
        <time>2023-06-09T17:45:54Z</time>
      </trkpt>
      <trkpt lat="49.77321" lon="5.46944">
        <ele>421.7</ele>
        <time>2023-06-09T17:46:02Z</time>
      </trkpt>
      <trkpt lat="49.7732" lon="5.46941">
        <ele>422.6</ele>
        <time>2023-06-09T17:46:12Z</time>
      </trkpt>
      <trkpt lat="49.77335" lon="5.46986">
        <ele>420.2</ele>
        <time>2023-06-09T17:46:17Z</time>
      </trkpt>
      <trkpt lat="49.77372" lon="5.47091">
        <ele>416.9</ele>
        <time>2023-06-09T17:46:22Z</time>
      </trkpt>
      <trkpt lat="49.77387" lon="5.47133">
        <ele>414.9</ele>
        <time>2023-06-09T17:46:25Z</time>
      </trkpt>
      <trkpt lat="49.7742" lon="5.47225">
        <ele>411.6</ele>
        <time>2023-06-09T17:46:29Z</time>
      </trkpt>
      <trkpt lat="49.77453" lon="5.47319">
        <ele>407.7</ele>
        <time>2023-06-09T17:46:33Z</time>
      </trkpt>
      <trkpt lat="49.77461" lon="5.47343">
        <ele>407.7</ele>
        <time>2023-06-09T17:46:34Z</time>
      </trkpt>
      <trkpt lat="49.77486" lon="5.47413">
        <ele>405.8</ele>
        <time>2023-06-09T17:46:37Z</time>
      </trkpt>
      <trkpt lat="49.77519" lon="5.47506">
        <ele>402.4</ele>
        <time>2023-06-09T17:46:40Z</time>
      </trkpt>
      <trkpt lat="49.77568" lon="5.47584">
        <ele>404.4</ele>
        <time>2023-06-09T17:46:45Z</time>
      </trkpt>
      <trkpt lat="49.77581" lon="5.476">
        <ele>403.9</ele>
        <time>2023-06-09T17:46:46Z</time>
      </trkpt>
      <trkpt lat="49.77595" lon="5.47614">
        <ele>403.9</ele>
        <time>2023-06-09T17:46:47Z</time>
      </trkpt>
      <trkpt lat="49.77611" lon="5.47624">
        <ele>404.4</ele>
        <time>2023-06-09T17:46:48Z</time>
      </trkpt>
      <trkpt lat="49.7763" lon="5.47633">
        <ele>405.3</ele>
        <time>2023-06-09T17:46:49Z</time>
      </trkpt>
      <trkpt lat="49.77647" lon="5.47641">
        <ele>404.9</ele>
        <time>2023-06-09T17:46:50Z</time>
      </trkpt>
      <trkpt lat="49.77699" lon="5.47656">
        <ele>408.2</ele>
        <time>2023-06-09T17:46:53Z</time>
      </trkpt>
      <trkpt lat="49.77776" lon="5.4768">
        <ele>411.6</ele>
        <time>2023-06-09T17:46:57Z</time>
      </trkpt>
      <trkpt lat="49.7779" lon="5.47688">
        <ele>414</ele>
        <time>2023-06-09T17:46:59Z</time>
      </trkpt>
      <trkpt lat="49.77803" lon="5.477">
        <ele>413.5</ele>
        <time>2023-06-09T17:47:00Z</time>
      </trkpt>
      <trkpt lat="49.77815" lon="5.4771">
        <ele>413.5</ele>
        <time>2023-06-09T17:47:01Z</time>
      </trkpt>
      <trkpt lat="49.77845" lon="5.47745">
        <ele>416.4</ele>
        <time>2023-06-09T17:47:04Z</time>
      </trkpt>
      <trkpt lat="49.77881" lon="5.47802">
        <ele>417.4</ele>
        <time>2023-06-09T17:47:10Z</time>
      </trkpt>
      <trkpt lat="49.77884" lon="5.47806">
        <ele>418.3</ele>
        <time>2023-06-09T17:47:19Z</time>
      </trkpt>
      <trkpt lat="49.77884" lon="5.47806">
        <ele>418.3</ele>
        <time>2023-06-09T17:47:20Z</time>
      </trkpt>
      <trkpt lat="49.77885" lon="5.47809">
        <ele>418.3</ele>
        <time>2023-06-09T17:47:21Z</time>
      </trkpt>
      <trkpt lat="49.77892" lon="5.47807">
        <ele>418.3</ele>
        <time>2023-06-09T17:47:22Z</time>
      </trkpt>
      <trkpt lat="49.77897" lon="5.47803">
        <ele>418.3</ele>
        <time>2023-06-09T17:47:23Z</time>
      </trkpt>
      <trkpt lat="49.77904" lon="5.47798">
        <ele>418.3</ele>
        <time>2023-06-09T17:47:24Z</time>
      </trkpt>
      <trkpt lat="49.77933" lon="5.4778">
        <ele>421.7</ele>
        <time>2023-06-09T17:47:27Z</time>
      </trkpt>
      <trkpt lat="49.77961" lon="5.47761">
        <ele>421.7</ele>
        <time>2023-06-09T17:47:28Z</time>
      </trkpt>
      <trkpt lat="49.78024" lon="5.47718">
        <ele>425</ele>
        <time>2023-06-09T17:47:33Z</time>
      </trkpt>
      <trkpt lat="49.78076" lon="5.47694">
        <ele>428.4</ele>
        <time>2023-06-09T17:47:36Z</time>
      </trkpt>
      <trkpt lat="49.78131" lon="5.47675">
        <ele>433.2</ele>
        <time>2023-06-09T17:47:39Z</time>
      </trkpt>
      <trkpt lat="49.78168" lon="5.47664">
        <ele>436.6</ele>
        <time>2023-06-09T17:47:41Z</time>
      </trkpt>
      <trkpt lat="49.78261" lon="5.47637">
        <ele>438</ele>
        <time>2023-06-09T17:47:46Z</time>
      </trkpt>
      <trkpt lat="49.78281" lon="5.47638">
        <ele>438.5</ele>
        <time>2023-06-09T17:47:47Z</time>
      </trkpt>
      <trkpt lat="49.78301" lon="5.4764">
        <ele>438.5</ele>
        <time>2023-06-09T17:47:48Z</time>
      </trkpt>
      <trkpt lat="49.7832" lon="5.47652">
        <ele>439.5</ele>
        <time>2023-06-09T17:47:49Z</time>
      </trkpt>
      <trkpt lat="49.7834" lon="5.47664">
        <ele>440.4</ele>
        <time>2023-06-09T17:47:50Z</time>
      </trkpt>
      <trkpt lat="49.78377" lon="5.47696">
        <ele>441.9</ele>
        <time>2023-06-09T17:47:52Z</time>
      </trkpt>
      <trkpt lat="49.7845" lon="5.47758">
        <ele>442.8</ele>
        <time>2023-06-09T17:47:56Z</time>
      </trkpt>
      <trkpt lat="49.78468" lon="5.47768">
        <ele>444.3</ele>
        <time>2023-06-09T17:47:57Z</time>
      </trkpt>
      <trkpt lat="49.78488" lon="5.47775">
        <ele>444.3</ele>
        <time>2023-06-09T17:47:58Z</time>
      </trkpt>
      <trkpt lat="49.78509" lon="5.47782">
        <ele>443.8</ele>
        <time>2023-06-09T17:47:59Z</time>
      </trkpt>
      <trkpt lat="49.78531" lon="5.47783">
        <ele>443.3</ele>
        <time>2023-06-09T17:48:00Z</time>
      </trkpt>
      <trkpt lat="49.7858" lon="5.47784">
        <ele>442.3</ele>
        <time>2023-06-09T17:48:02Z</time>
      </trkpt>
      <trkpt lat="49.78722" lon="5.47793">
        <ele>444.3</ele>
        <time>2023-06-09T17:48:08Z</time>
      </trkpt>
      <trkpt lat="49.78757" lon="5.47823">
        <ele>444.3</ele>
        <time>2023-06-09T17:48:09Z</time>
      </trkpt>
      <trkpt lat="49.78775" lon="5.47843">
        <ele>446.2</ele>
        <time>2023-06-09T17:48:10Z</time>
      </trkpt>
      <trkpt lat="49.78775" lon="5.47843">
        <ele>447.1</ele>
        <time>2023-06-09T17:48:11Z</time>
      </trkpt>
      <trkpt lat="49.78791" lon="5.47867">
        <ele>448.6</ele>
        <time>2023-06-09T17:48:12Z</time>
      </trkpt>
      <trkpt lat="49.78806" lon="5.47888">
        <ele>448.1</ele>
        <time>2023-06-09T17:48:13Z</time>
      </trkpt>
      <trkpt lat="49.78834" lon="5.47926">
        <ele>449.1</ele>
        <time>2023-06-09T17:48:15Z</time>
      </trkpt>
      <trkpt lat="49.78861" lon="5.47952">
        <ele>450.5</ele>
        <time>2023-06-09T17:48:16Z</time>
      </trkpt>
      <trkpt lat="49.78875" lon="5.47958">
        <ele>451</ele>
        <time>2023-06-09T17:48:17Z</time>
      </trkpt>
      <trkpt lat="49.78875" lon="5.47958">
        <ele>451</ele>
        <time>2023-06-09T17:48:18Z</time>
      </trkpt>
      <trkpt lat="49.78891" lon="5.47957">
        <ele>451</ele>
        <time>2023-06-09T17:48:19Z</time>
      </trkpt>
      <trkpt lat="49.78904" lon="5.47953">
        <ele>450.8</ele>
        <time>2023-06-09T17:48:09Z</time>
      </trkpt>
      <trkpt lat="49.78903" lon="5.47953">
        <ele>450</ele>
        <time>2023-06-09T17:48:08Z</time>
      </trkpt>
      <trkpt lat="49.78868" lon="5.47955">
        <ele>444.8</ele>
        <time>2023-06-09T17:47:42Z</time>
      </trkpt>
      <trkpt lat="49.78868" lon="5.47955">
        <ele>444.8</ele>
        <time>2023-06-09T17:47:43Z</time>
      </trkpt>
      <trkpt lat="49.78851" lon="5.47943">
        <ele>445.2</ele>
        <time>2023-06-09T17:47:44Z</time>
      </trkpt>
      <trkpt lat="49.78821" lon="5.47908">
        <ele>446.2</ele>
        <time>2023-06-09T17:47:45Z</time>
      </trkpt>
      <trkpt lat="49.78821" lon="5.47908">
        <ele>446.7</ele>
        <time>2023-06-09T17:47:46Z</time>
      </trkpt>
      <trkpt lat="49.7879" lon="5.47866">
        <ele>447.6</ele>
        <time>2023-06-09T17:47:48Z</time>
      </trkpt>
      <trkpt lat="49.78743" lon="5.47807">
        <ele>448.1</ele>
        <time>2023-06-09T17:47:51Z</time>
      </trkpt>
      <trkpt lat="49.78724" lon="5.47795">
        <ele>448.6</ele>
        <time>2023-06-09T17:47:52Z</time>
      </trkpt>
      <trkpt lat="49.78704" lon="5.47788">
        <ele>449.6</ele>
        <time>2023-06-09T17:47:53Z</time>
      </trkpt>
      <trkpt lat="49.78684" lon="5.47787">
        <ele>450</ele>
        <time>2023-06-09T17:47:54Z</time>
      </trkpt>
      <trkpt lat="49.78662" lon="5.47785">
        <ele>450</ele>
        <time>2023-06-09T17:47:55Z</time>
      </trkpt>
      <trkpt lat="49.78508" lon="5.47782">
        <ele>450</ele>
        <time>2023-06-09T17:48:02Z</time>
      </trkpt>
      <trkpt lat="49.78488" lon="5.47775">
        <ele>449.6</ele>
        <time>2023-06-09T17:48:03Z</time>
      </trkpt>
      <trkpt lat="49.78469" lon="5.47768">
        <ele>448.6</ele>
        <time>2023-06-09T17:48:04Z</time>
      </trkpt>
      <trkpt lat="49.78449" lon="5.47758">
        <ele>448.6</ele>
        <time>2023-06-09T17:48:05Z</time>
      </trkpt>
      <trkpt lat="49.7843" lon="5.47745">
        <ele>448.6</ele>
        <time>2023-06-09T17:48:06Z</time>
      </trkpt>
      <trkpt lat="49.7833" lon="5.47658">
        <ele>446.2</ele>
        <time>2023-06-09T17:48:12Z</time>
      </trkpt>
      <trkpt lat="49.78314" lon="5.47648">
        <ele>446.2</ele>
        <time>2023-06-09T17:48:13Z</time>
      </trkpt>
      <trkpt lat="49.78298" lon="5.47638">
        <ele>445.7</ele>
        <time>2023-06-09T17:48:14Z</time>
      </trkpt>
      <trkpt lat="49.78279" lon="5.47638">
        <ele>445.2</ele>
        <time>2023-06-09T17:48:15Z</time>
      </trkpt>
      <trkpt lat="49.78243" lon="5.4764">
        <ele>444.3</ele>
        <time>2023-06-09T17:48:16Z</time>
      </trkpt>
      <trkpt lat="49.78225" lon="5.47645">
        <ele>442.8</ele>
        <time>2023-06-09T17:48:17Z</time>
      </trkpt>
      <trkpt lat="49.78175" lon="5.47662">
        <ele>439.5</ele>
        <time>2023-06-09T17:48:20Z</time>
      </trkpt>
      <trkpt lat="49.78126" lon="5.47677">
        <ele>435.6</ele>
        <time>2023-06-09T17:48:24Z</time>
      </trkpt>
      <trkpt lat="49.78034" lon="5.47712">
        <ele>432.3</ele>
        <time>2023-06-09T17:48:29Z</time>
      </trkpt>
      <trkpt lat="49.77994" lon="5.47738">
        <ele>428.9</ele>
        <time>2023-06-09T17:48:33Z</time>
      </trkpt>
      <trkpt lat="49.77952" lon="5.47767">
        <ele>426</ele>
        <time>2023-06-09T17:48:36Z</time>
      </trkpt>
      <trkpt lat="49.77905" lon="5.47798">
        <ele>423.6</ele>
        <time>2023-06-09T17:48:40Z</time>
      </trkpt>
      <trkpt lat="49.77895" lon="5.47804">
        <ele>422.6</ele>
        <time>2023-06-09T17:48:41Z</time>
      </trkpt>
      <trkpt lat="49.77889" lon="5.47808">
        <ele>422.6</ele>
        <time>2023-06-09T17:48:42Z</time>
      </trkpt>
      <trkpt lat="49.77879" lon="5.47797">
        <ele>421.7</ele>
        <time>2023-06-09T17:48:43Z</time>
      </trkpt>
      <trkpt lat="49.77871" lon="5.47784">
        <ele>421.2</ele>
        <time>2023-06-09T17:48:44Z</time>
      </trkpt>
      <trkpt lat="49.77852" lon="5.47755">
        <ele>420.7</ele>
        <time>2023-06-09T17:48:45Z</time>
      </trkpt>
      <trkpt lat="49.77802" lon="5.47698">
        <ele>417.4</ele>
        <time>2023-06-09T17:48:49Z</time>
      </trkpt>
      <trkpt lat="49.77787" lon="5.47687">
        <ele>416.4</ele>
        <time>2023-06-09T17:48:50Z</time>
      </trkpt>
      <trkpt lat="49.7777" lon="5.47676">
        <ele>414.9</ele>
        <time>2023-06-09T17:48:51Z</time>
      </trkpt>
      <trkpt lat="49.7777" lon="5.47676">
        <ele>413.5</ele>
        <time>2023-06-09T17:48:52Z</time>
      </trkpt>
      <trkpt lat="49.77751" lon="5.4767">
        <ele>412.5</ele>
        <time>2023-06-09T17:48:53Z</time>
      </trkpt>
      <trkpt lat="49.77732" lon="5.47665">
        <ele>411.6</ele>
        <time>2023-06-09T17:48:54Z</time>
      </trkpt>
      <trkpt lat="49.77691" lon="5.47654">
        <ele>408.7</ele>
        <time>2023-06-09T17:48:56Z</time>
      </trkpt>
      <trkpt lat="49.77603" lon="5.47619">
        <ele>405.8</ele>
        <time>2023-06-09T17:49:01Z</time>
      </trkpt>
      <trkpt lat="49.77588" lon="5.47606">
        <ele>406.3</ele>
        <time>2023-06-09T17:49:02Z</time>
      </trkpt>
      <trkpt lat="49.77562" lon="5.47575">
        <ele>406.3</ele>
        <time>2023-06-09T17:49:03Z</time>
      </trkpt>
      <trkpt lat="49.77549" lon="5.47557">
        <ele>406.3</ele>
        <time>2023-06-09T17:49:04Z</time>
      </trkpt>
      <trkpt lat="49.77549" lon="5.47557">
        <ele>405.8</ele>
        <time>2023-06-09T17:49:05Z</time>
      </trkpt>
      <trkpt lat="49.77524" lon="5.47515">
        <ele>405.3</ele>
        <time>2023-06-09T17:49:06Z</time>
      </trkpt>
      <trkpt lat="49.77524" lon="5.47515">
        <ele>405.8</ele>
        <time>2023-06-09T17:49:07Z</time>
      </trkpt>
      <trkpt lat="49.77494" lon="5.47434">
        <ele>409.7</ele>
        <time>2023-06-09T17:49:10Z</time>
      </trkpt>
      <trkpt lat="49.77453" lon="5.47321">
        <ele>413.5</ele>
        <time>2023-06-09T17:49:13Z</time>
      </trkpt>
      <trkpt lat="49.77433" lon="5.47262">
        <ele>417.4</ele>
        <time>2023-06-09T17:49:16Z</time>
      </trkpt>
      <trkpt lat="49.77391" lon="5.47143">
        <ele>421.2</ele>
        <time>2023-06-09T17:49:19Z</time>
      </trkpt>
      <trkpt lat="49.77347" lon="5.47021">
        <ele>424.6</ele>
        <time>2023-06-09T17:49:23Z</time>
      </trkpt>
      <trkpt lat="49.77317" lon="5.46929">
        <ele>427.4</ele>
        <time>2023-06-09T17:49:27Z</time>
      </trkpt>
      <trkpt lat="49.77286" lon="5.46796">
        <ele>430.8</ele>
        <time>2023-06-09T17:49:31Z</time>
      </trkpt>
      <trkpt lat="49.77274" lon="5.46729">
        <ele>431.8</ele>
        <time>2023-06-09T17:49:33Z</time>
      </trkpt>
      <trkpt lat="49.77204" lon="5.46391">
        <ele>430.3</ele>
        <time>2023-06-09T17:49:44Z</time>
      </trkpt>
      <trkpt lat="49.77145" lon="5.46243">
        <ele>428.4</ele>
        <time>2023-06-09T17:49:48Z</time>
      </trkpt>
      <trkpt lat="49.77096" lon="5.46101">
        <ele>426</ele>
        <time>2023-06-09T17:49:53Z</time>
      </trkpt>
      <trkpt lat="49.77096" lon="5.46101">
        <ele>424.6</ele>
        <time>2023-06-09T17:49:54Z</time>
      </trkpt>
      <trkpt lat="49.77093" lon="5.46071">
        <ele>424.6</ele>
        <time>2023-06-09T17:49:55Z</time>
      </trkpt>
      <trkpt lat="49.77091" lon="5.45843">
        <ele>427.4</ele>
        <time>2023-06-09T17:50:02Z</time>
      </trkpt>
      <trkpt lat="49.77084" lon="5.4578">
        <ele>428.9</ele>
        <time>2023-06-09T17:50:04Z</time>
      </trkpt>
      <trkpt lat="49.77078" lon="5.4575">
        <ele>429.9</ele>
        <time>2023-06-09T17:50:05Z</time>
      </trkpt>
      <trkpt lat="49.77072" lon="5.45719">
        <ele>430.3</ele>
        <time>2023-06-09T17:50:06Z</time>
      </trkpt>
      <trkpt lat="49.77051" lon="5.45572">
        <ele>434.6</ele>
        <time>2023-06-09T17:50:11Z</time>
      </trkpt>
      <trkpt lat="49.7705" lon="5.45451">
        <ele>438.5</ele>
        <time>2023-06-09T17:50:14Z</time>
      </trkpt>
      <trkpt lat="49.77049" lon="5.45399">
        <ele>440.4</ele>
        <time>2023-06-09T17:50:16Z</time>
      </trkpt>
      <trkpt lat="49.77049" lon="5.45399">
        <ele>439.9</ele>
        <time>2023-06-09T17:50:17Z</time>
      </trkpt>
      <trkpt lat="49.77045" lon="5.45374">
        <ele>440.9</ele>
        <time>2023-06-09T17:50:18Z</time>
      </trkpt>
      <trkpt lat="49.7704" lon="5.45346">
        <ele>441.9</ele>
        <time>2023-06-09T17:50:19Z</time>
      </trkpt>
      <trkpt lat="49.77035" lon="5.45318">
        <ele>442.8</ele>
        <time>2023-06-09T17:50:20Z</time>
      </trkpt>
      <trkpt lat="49.76971" lon="5.45058">
        <ele>440.9</ele>
        <time>2023-06-09T17:50:29Z</time>
      </trkpt>
      <trkpt lat="49.76955" lon="5.44959">
        <ele>439</ele>
        <time>2023-06-09T17:50:32Z</time>
      </trkpt>
      <trkpt lat="49.76942" lon="5.44777">
        <ele>436.1</ele>
        <time>2023-06-09T17:50:37Z</time>
      </trkpt>
      <trkpt lat="49.76923" lon="5.44587">
        <ele>435.1</ele>
        <time>2023-06-09T17:50:43Z</time>
      </trkpt>
      <trkpt lat="49.76914" lon="5.44534">
        <ele>434.6</ele>
        <time>2023-06-09T17:50:44Z</time>
      </trkpt>
      <trkpt lat="49.76905" lon="5.44508">
        <ele>434.6</ele>
        <time>2023-06-09T17:50:45Z</time>
      </trkpt>
      <trkpt lat="49.76895" lon="5.44483">
        <ele>434.2</ele>
        <time>2023-06-09T17:50:46Z</time>
      </trkpt>
      <trkpt lat="49.76895" lon="5.44483">
        <ele>434.2</ele>
        <time>2023-06-09T17:50:47Z</time>
      </trkpt>
      <trkpt lat="49.76882" lon="5.44459">
        <ele>434.2</ele>
        <time>2023-06-09T17:50:48Z</time>
      </trkpt>
      <trkpt lat="49.7687" lon="5.44437">
        <ele>435.6</ele>
        <time>2023-06-09T17:50:49Z</time>
      </trkpt>
      <trkpt lat="49.76854" lon="5.44411">
        <ele>435.6</ele>
        <time>2023-06-09T17:50:50Z</time>
      </trkpt>
      <trkpt lat="49.76777" lon="5.44293">
        <ele>437.1</ele>
        <time>2023-06-09T17:50:55Z</time>
      </trkpt>
      <trkpt lat="49.76762" lon="5.44271">
        <ele>436.6</ele>
        <time>2023-06-09T17:50:56Z</time>
      </trkpt>
      <trkpt lat="49.76751" lon="5.44248">
        <ele>436.6</ele>
        <time>2023-06-09T17:50:57Z</time>
      </trkpt>
      <trkpt lat="49.76743" lon="5.4422">
        <ele>436.1</ele>
        <time>2023-06-09T17:50:58Z</time>
      </trkpt>
      <trkpt lat="49.76733" lon="5.44168">
        <ele>436.1</ele>
        <time>2023-06-09T17:50:59Z</time>
      </trkpt>
      <trkpt lat="49.76732" lon="5.44141">
        <ele>436.6</ele>
        <time>2023-06-09T17:51:00Z</time>
      </trkpt>
      <trkpt lat="49.76733" lon="5.44111">
        <ele>437.1</ele>
        <time>2023-06-09T17:51:01Z</time>
      </trkpt>
      <trkpt lat="49.76728" lon="5.43911">
        <ele>437.1</ele>
        <time>2023-06-09T17:51:08Z</time>
      </trkpt>
      <trkpt lat="49.76699" lon="5.43579">
        <ele>436.1</ele>
        <time>2023-06-09T17:51:17Z</time>
      </trkpt>
      <trkpt lat="49.76697" lon="5.43482">
        <ele>432.3</ele>
        <time>2023-06-09T17:51:20Z</time>
      </trkpt>
      <trkpt lat="49.76699" lon="5.43452">
        <ele>431.3</ele>
        <time>2023-06-09T17:51:21Z</time>
      </trkpt>
      <trkpt lat="49.76702" lon="5.43423">
        <ele>430.3</ele>
        <time>2023-06-09T17:51:22Z</time>
      </trkpt>
      <trkpt lat="49.76707" lon="5.43396">
        <ele>429.4</ele>
        <time>2023-06-09T17:51:23Z</time>
      </trkpt>
      <trkpt lat="49.76716" lon="5.43373">
        <ele>427.9</ele>
        <time>2023-06-09T17:51:24Z</time>
      </trkpt>
      <trkpt lat="49.76726" lon="5.43356">
        <ele>426.5</ele>
        <time>2023-06-09T17:51:25Z</time>
      </trkpt>
      <trkpt lat="49.76752" lon="5.43321">
        <ele>425.5</ele>
        <time>2023-06-09T17:51:26Z</time>
      </trkpt>
      <trkpt lat="49.76752" lon="5.43321">
        <ele>424.1</ele>
        <time>2023-06-09T17:51:27Z</time>
      </trkpt>
      <trkpt lat="49.76803" lon="5.43282">
        <ele>422.6</ele>
        <time>2023-06-09T17:51:30Z</time>
      </trkpt>
      <trkpt lat="49.76818" lon="5.43269">
        <ele>422.6</ele>
        <time>2023-06-09T17:51:31Z</time>
      </trkpt>
      <trkpt lat="49.76833" lon="5.43253">
        <ele>421.7</ele>
        <time>2023-06-09T17:51:32Z</time>
      </trkpt>
      <trkpt lat="49.76848" lon="5.43237">
        <ele>421.2</ele>
        <time>2023-06-09T17:51:33Z</time>
      </trkpt>
      <trkpt lat="49.76887" lon="5.43169">
        <ele>417.8</ele>
        <time>2023-06-09T17:51:36Z</time>
      </trkpt>
      <trkpt lat="49.76934" lon="5.43087">
        <ele>414</ele>
        <time>2023-06-09T17:51:40Z</time>
      </trkpt>
      <trkpt lat="49.7694" lon="5.43068">
        <ele>412.5</ele>
        <time>2023-06-09T17:51:41Z</time>
      </trkpt>
      <trkpt lat="49.76946" lon="5.43046">
        <ele>411.6</ele>
        <time>2023-06-09T17:51:42Z</time>
      </trkpt>
      <trkpt lat="49.76964" lon="5.4298">
        <ele>409.2</ele>
        <time>2023-06-09T17:51:45Z</time>
      </trkpt>
      <trkpt lat="49.76978" lon="5.42934">
        <ele>408.2</ele>
        <time>2023-06-09T17:51:46Z</time>
      </trkpt>
      <trkpt lat="49.76978" lon="5.42934">
        <ele>406.8</ele>
        <time>2023-06-09T17:51:47Z</time>
      </trkpt>
      <trkpt lat="49.76989" lon="5.42919">
        <ele>405.3</ele>
        <time>2023-06-09T17:51:48Z</time>
      </trkpt>
      <trkpt lat="49.76999" lon="5.42902">
        <ele>404.4</ele>
        <time>2023-06-09T17:51:49Z</time>
      </trkpt>
      <trkpt lat="49.77019" lon="5.42873">
        <ele>403.4</ele>
        <time>2023-06-09T17:51:51Z</time>
      </trkpt>
      <trkpt lat="49.77027" lon="5.42861">
        <ele>402.9</ele>
        <time>2023-06-09T17:51:52Z</time>
      </trkpt>
      <trkpt lat="49.77035" lon="5.42831">
        <ele>402</ele>
        <time>2023-06-09T17:51:53Z</time>
      </trkpt>
      <trkpt lat="49.77035" lon="5.42831">
        <ele>401</ele>
        <time>2023-06-09T17:51:54Z</time>
      </trkpt>
      <trkpt lat="49.77037" lon="5.42816">
        <ele>401</ele>
        <time>2023-06-09T17:51:55Z</time>
      </trkpt>
      <trkpt lat="49.77037" lon="5.42803">
        <ele>401</ele>
        <time>2023-06-09T17:51:56Z</time>
      </trkpt>
      <trkpt lat="49.77033" lon="5.42781">
        <ele>400.1</ele>
        <time>2023-06-09T17:51:57Z</time>
      </trkpt>
      <trkpt lat="49.77023" lon="5.42741">
        <ele>399.1</ele>
        <time>2023-06-09T17:51:58Z</time>
      </trkpt>
      <trkpt lat="49.77023" lon="5.42741">
        <ele>399.1</ele>
        <time>2023-06-09T17:51:59Z</time>
      </trkpt>
      <trkpt lat="49.77006" lon="5.42712">
        <ele>398.6</ele>
        <time>2023-06-09T17:52:00Z</time>
      </trkpt>
      <trkpt lat="49.76996" lon="5.42705">
        <ele>398.1</ele>
        <time>2023-06-09T17:52:01Z</time>
      </trkpt>
      <trkpt lat="49.76984" lon="5.42698">
        <ele>397.2</ele>
        <time>2023-06-09T17:52:03Z</time>
      </trkpt>
      <trkpt lat="49.76971" lon="5.4269">
        <ele>396.2</ele>
        <time>2023-06-09T17:52:04Z</time>
      </trkpt>
      <trkpt lat="49.76957" lon="5.42683">
        <ele>396.2</ele>
        <time>2023-06-09T17:52:05Z</time>
      </trkpt>
      <trkpt lat="49.76903" lon="5.42659">
        <ele>392.8</ele>
        <time>2023-06-09T17:52:08Z</time>
      </trkpt>
      <trkpt lat="49.76871" lon="5.42644">
        <ele>390.9</ele>
        <time>2023-06-09T17:52:10Z</time>
      </trkpt>
      <trkpt lat="49.7684" lon="5.42629">
        <ele>389.5</ele>
        <time>2023-06-09T17:52:11Z</time>
      </trkpt>
      <trkpt lat="49.76825" lon="5.42616">
        <ele>388</ele>
        <time>2023-06-09T17:52:12Z</time>
      </trkpt>
      <trkpt lat="49.76825" lon="5.42616">
        <ele>386.6</ele>
        <time>2023-06-09T17:52:13Z</time>
      </trkpt>
      <trkpt lat="49.76806" lon="5.42574">
        <ele>385.6</ele>
        <time>2023-06-09T17:52:14Z</time>
      </trkpt>
      <trkpt lat="49.76806" lon="5.42574">
        <ele>384.2</ele>
        <time>2023-06-09T17:52:15Z</time>
      </trkpt>
      <trkpt lat="49.76772" lon="5.42513">
        <ele>379.9</ele>
        <time>2023-06-09T17:52:18Z</time>
      </trkpt>
      <trkpt lat="49.76746" lon="5.42473">
        <ele>377.9</ele>
        <time>2023-06-09T17:52:20Z</time>
      </trkpt>
      <trkpt lat="49.76738" lon="5.42455">
        <ele>377.4</ele>
        <time>2023-06-09T17:52:21Z</time>
      </trkpt>
      <trkpt lat="49.76728" lon="5.42434">
        <ele>377.4</ele>
        <time>2023-06-09T17:52:22Z</time>
      </trkpt>
      <trkpt lat="49.76723" lon="5.42414">
        <ele>377</ele>
        <time>2023-06-09T17:52:23Z</time>
      </trkpt>
      <trkpt lat="49.76723" lon="5.42366">
        <ele>376.5</ele>
        <time>2023-06-09T17:52:24Z</time>
      </trkpt>
      <trkpt lat="49.76723" lon="5.42366">
        <ele>376</ele>
        <time>2023-06-09T17:52:25Z</time>
      </trkpt>
      <trkpt lat="49.76726" lon="5.4234">
        <ele>375.1</ele>
        <time>2023-06-09T17:52:26Z</time>
      </trkpt>
      <trkpt lat="49.76729" lon="5.42313">
        <ele>374.6</ele>
        <time>2023-06-09T17:52:27Z</time>
      </trkpt>
      <trkpt lat="49.76731" lon="5.42285">
        <ele>374.1</ele>
        <time>2023-06-09T17:52:28Z</time>
      </trkpt>
      <trkpt lat="49.76727" lon="5.42259">
        <ele>373.6</ele>
        <time>2023-06-09T17:52:29Z</time>
      </trkpt>
      <trkpt lat="49.76723" lon="5.42234">
        <ele>372.6</ele>
        <time>2023-06-09T17:52:30Z</time>
      </trkpt>
      <trkpt lat="49.76717" lon="5.42208">
        <ele>372.6</ele>
        <time>2023-06-09T17:52:31Z</time>
      </trkpt>
      <trkpt lat="49.7671" lon="5.42185">
        <ele>371.7</ele>
        <time>2023-06-09T17:52:32Z</time>
      </trkpt>
      <trkpt lat="49.76704" lon="5.42161">
        <ele>370.7</ele>
        <time>2023-06-09T17:52:33Z</time>
      </trkpt>
      <trkpt lat="49.76694" lon="5.42138">
        <ele>369.3</ele>
        <time>2023-06-09T17:52:34Z</time>
      </trkpt>
      <trkpt lat="49.76682" lon="5.42117">
        <ele>368.3</ele>
        <time>2023-06-09T17:52:35Z</time>
      </trkpt>
      <trkpt lat="49.76659" lon="5.42072">
        <ele>365</ele>
        <time>2023-06-09T17:52:37Z</time>
      </trkpt>
      <trkpt lat="49.76636" lon="5.42027">
        <ele>361.6</ele>
        <time>2023-06-09T17:52:39Z</time>
      </trkpt>
      <trkpt lat="49.76624" lon="5.42006">
        <ele>360.6</ele>
        <time>2023-06-09T17:52:40Z</time>
      </trkpt>
      <trkpt lat="49.76616" lon="5.41984">
        <ele>360.1</ele>
        <time>2023-06-09T17:52:41Z</time>
      </trkpt>
      <trkpt lat="49.76605" lon="5.41906">
        <ele>371.8</ele>
        <time>2023-06-09T17:52:51Z</time>
      </trkpt>
      <trkpt lat="49.76604" lon="5.41898">
        <ele>371.5</ele>
        <time>2023-06-09T17:52:53Z</time>
      </trkpt>
      <trkpt lat="49.76586" lon="5.41756">
        <ele>367.3</ele>
        <time>2023-06-09T17:53:11Z</time>
      </trkpt>
      <trkpt lat="49.7656" lon="5.41556">
        <ele>355.5</ele>
        <time>2023-06-09T17:53:37Z</time>
      </trkpt>
      <trkpt lat="49.76566" lon="5.41534">
        <ele>355.5</ele>
        <time>2023-06-09T17:53:40Z</time>
      </trkpt>
      <trkpt lat="49.76573" lon="5.41538">
        <ele>347.2</ele>
        <time>2023-06-09T17:53:41Z</time>
      </trkpt>
      <trkpt lat="49.76572" lon="5.41511">
        <ele>347.2</ele>
        <time>2023-06-09T17:53:42Z</time>
      </trkpt>
      <trkpt lat="49.76575" lon="5.41373">
        <ele>348.1</ele>
        <time>2023-06-09T17:53:49Z</time>
      </trkpt>
      <trkpt lat="49.76582" lon="5.41328">
        <ele>348.6</ele>
        <time>2023-06-09T17:53:51Z</time>
      </trkpt>
      <trkpt lat="49.76589" lon="5.41305">
        <ele>348.1</ele>
        <time>2023-06-09T17:53:52Z</time>
      </trkpt>
      <trkpt lat="49.76618" lon="5.41212">
        <ele>347.6</ele>
        <time>2023-06-09T17:53:57Z</time>
      </trkpt>
      <trkpt lat="49.76642" lon="5.41078">
        <ele>346.7</ele>
        <time>2023-06-09T17:54:07Z</time>
      </trkpt>
      <trkpt lat="49.76656" lon="5.40996">
        <ele>346.2</ele>
        <time>2023-06-09T17:54:15Z</time>
      </trkpt>
      <trkpt lat="49.76688" lon="5.40824">
        <ele>344.8</ele>
        <time>2023-06-09T17:54:26Z</time>
      </trkpt>
      <trkpt lat="49.767" lon="5.40723">
        <ele>344.8</ele>
        <time>2023-06-09T17:54:34Z</time>
      </trkpt>
      <trkpt lat="49.767" lon="5.40723">
        <ele>344.3</ele>
        <time>2023-06-09T17:54:35Z</time>
      </trkpt>
      <trkpt lat="49.76702" lon="5.40709">
        <ele>344.3</ele>
        <time>2023-06-09T17:54:36Z</time>
      </trkpt>
      <trkpt lat="49.767" lon="5.40634">
        <ele>343.8</ele>
        <time>2023-06-09T17:54:41Z</time>
      </trkpt>
      <trkpt lat="49.76698" lon="5.4062">
        <ele>343.8</ele>
        <time>2023-06-09T17:54:42Z</time>
      </trkpt>
      <trkpt lat="49.76696" lon="5.40609">
        <ele>343.8</ele>
        <time>2023-06-09T17:54:43Z</time>
      </trkpt>
      <trkpt lat="49.76695" lon="5.40599">
        <ele>343.8</ele>
        <time>2023-06-09T17:54:44Z</time>
      </trkpt>
      <trkpt lat="49.76694" lon="5.40587">
        <ele>343.8</ele>
        <time>2023-06-09T17:54:45Z</time>
      </trkpt>
      <trkpt lat="49.76696" lon="5.40579">
        <ele>344.3</ele>
        <time>2023-06-09T17:54:46Z</time>
      </trkpt>
      <trkpt lat="49.76699" lon="5.4057">
        <ele>343.8</ele>
        <time>2023-06-09T17:54:47Z</time>
      </trkpt>
      <trkpt lat="49.76702" lon="5.4056">
        <ele>344.3</ele>
        <time>2023-06-09T17:54:48Z</time>
      </trkpt>
      <trkpt lat="49.76705" lon="5.4055">
        <ele>344.3</ele>
        <time>2023-06-09T17:54:49Z</time>
      </trkpt>
      <trkpt lat="49.76708" lon="5.40541">
        <ele>344.3</ele>
        <time>2023-06-09T17:54:50Z</time>
      </trkpt>
      <trkpt lat="49.7671" lon="5.40532">
        <ele>343.8</ele>
        <time>2023-06-09T17:54:51Z</time>
      </trkpt>
      <trkpt lat="49.76712" lon="5.40524">
        <ele>343.8</ele>
        <time>2023-06-09T17:54:52Z</time>
      </trkpt>
      <trkpt lat="49.76713" lon="5.40502">
        <ele>343.3</ele>
        <time>2023-06-09T17:54:53Z</time>
      </trkpt>
      <trkpt lat="49.76707" lon="5.40489">
        <ele>343.3</ele>
        <time>2023-06-09T17:54:54Z</time>
      </trkpt>
      <trkpt lat="49.76652" lon="5.40354">
        <ele>343.3</ele>
        <time>2023-06-09T17:55:03Z</time>
      </trkpt>
      <trkpt lat="49.76652" lon="5.40354">
        <ele>342.9</ele>
        <time>2023-06-09T17:55:04Z</time>
      </trkpt>
      <trkpt lat="49.76649" lon="5.40342">
        <ele>342.9</ele>
        <time>2023-06-09T17:55:05Z</time>
      </trkpt>
      <trkpt lat="49.76625" lon="5.40245">
        <ele>344.8</ele>
        <time>2023-06-09T17:55:12Z</time>
      </trkpt>
      <trkpt lat="49.76617" lon="5.40222">
        <ele>345.3</ele>
        <time>2023-06-09T17:55:13Z</time>
      </trkpt>
      <trkpt lat="49.76617" lon="5.40222">
        <ele>345.3</ele>
        <time>2023-06-09T17:55:14Z</time>
      </trkpt>
      <trkpt lat="49.76611" lon="5.40213">
        <ele>344.8</ele>
        <time>2023-06-09T17:55:15Z</time>
      </trkpt>
      <trkpt lat="49.76606" lon="5.40204">
        <ele>345.3</ele>
        <time>2023-06-09T17:55:16Z</time>
      </trkpt>
      <trkpt lat="49.76538" lon="5.4007">
        <ele>347.6</ele>
        <time>2023-06-09T17:55:29Z</time>
      </trkpt>
      <trkpt lat="49.76532" lon="5.40045">
        <ele>348.6</ele>
        <time>2023-06-09T17:55:31Z</time>
      </trkpt>
      <trkpt lat="49.76516" lon="5.39974">
        <ele>347.6</ele>
        <time>2023-06-09T17:55:37Z</time>
      </trkpt>
      <trkpt lat="49.7651" lon="5.39954">
        <ele>346.7</ele>
        <time>2023-06-09T17:55:39Z</time>
      </trkpt>
      <trkpt lat="49.76502" lon="5.3993">
        <ele>346.2</ele>
        <time>2023-06-09T17:55:42Z</time>
      </trkpt>
      <trkpt lat="49.76499" lon="5.39923">
        <ele>344.8</ele>
        <time>2023-06-09T17:55:43Z</time>
      </trkpt>
      <trkpt lat="49.76498" lon="5.39917">
        <ele>344.8</ele>
        <time>2023-06-09T17:55:44Z</time>
      </trkpt>
      <trkpt lat="49.76496" lon="5.39912">
        <ele>343.8</ele>
        <time>2023-06-09T17:55:47Z</time>
      </trkpt>
      <trkpt lat="49.76496" lon="5.39912">
        <ele>343.3</ele>
        <time>2023-06-09T17:55:48Z</time>
      </trkpt>
      <trkpt lat="49.76488" lon="5.39915">
        <ele>342.9</ele>
        <time>2023-06-09T17:55:49Z</time>
      </trkpt>
      <trkpt lat="49.76484" lon="5.39916">
        <ele>342.4</ele>
        <time>2023-06-09T17:55:50Z</time>
      </trkpt>
      <trkpt lat="49.76477" lon="5.39919">
        <ele>342.4</ele>
        <time>2023-06-09T17:55:51Z</time>
      </trkpt>
      <trkpt lat="49.76416" lon="5.39937">
        <ele>340.4</ele>
        <time>2023-06-09T17:55:58Z</time>
      </trkpt>
      <trkpt lat="49.76416" lon="5.39937">
        <ele>340.9</ele>
        <time>2023-06-09T17:55:59Z</time>
      </trkpt>
      <trkpt lat="49.76411" lon="5.39936">
        <ele>340.9</ele>
        <time>2023-06-09T17:56:00Z</time>
      </trkpt>
      <trkpt lat="49.76393" lon="5.39918">
        <ele>341.4</ele>
        <time>2023-06-09T17:56:01Z</time>
      </trkpt>
      <trkpt lat="49.76393" lon="5.39918">
        <ele>341.4</ele>
        <time>2023-06-09T17:56:02Z</time>
      </trkpt>
      <trkpt lat="49.76393" lon="5.39911">
        <ele>341.4</ele>
        <time>2023-06-09T17:56:03Z</time>
      </trkpt>
      <trkpt lat="49.76393" lon="5.39903">
        <ele>340.9</ele>
        <time>2023-06-09T17:56:04Z</time>
      </trkpt>
      <trkpt lat="49.76394" lon="5.39892">
        <ele>340.9</ele>
        <time>2023-06-09T17:56:05Z</time>
      </trkpt>
      <trkpt lat="49.76394" lon="5.39879">
        <ele>340.9</ele>
        <time>2023-06-09T17:56:06Z</time>
      </trkpt>
      <trkpt lat="49.76394" lon="5.39864">
        <ele>340.9</ele>
        <time>2023-06-09T17:56:07Z</time>
      </trkpt>
      <trkpt lat="49.76394" lon="5.39848">
        <ele>340.9</ele>
        <time>2023-06-09T17:56:08Z</time>
      </trkpt>
      <trkpt lat="49.76391" lon="5.39831">
        <ele>340.9</ele>
        <time>2023-06-09T17:56:09Z</time>
      </trkpt>
      <trkpt lat="49.76339" lon="5.39569">
        <ele>341.4</ele>
        <time>2023-06-09T17:56:24Z</time>
      </trkpt>
      <trkpt lat="49.7632" lon="5.39483">
        <ele>342.9</ele>
        <time>2023-06-09T17:56:31Z</time>
      </trkpt>
      <trkpt lat="49.76317" lon="5.3947">
        <ele>342.4</ele>
        <time>2023-06-09T17:56:39Z</time>
      </trkpt>
      <trkpt lat="49.76317" lon="5.3947">
        <ele>342.4</ele>
        <time>2023-06-09T17:56:54Z</time>
      </trkpt>
      <trkpt lat="49.76323" lon="5.39455">
        <ele>342.4</ele>
        <time>2023-06-09T17:56:55Z</time>
      </trkpt>
      <trkpt lat="49.76326" lon="5.39453">
        <ele>342.4</ele>
        <time>2023-06-09T17:56:56Z</time>
      </trkpt>
      <trkpt lat="49.76376" lon="5.39413">
        <ele>345.3</ele>
        <time>2023-06-09T17:57:02Z</time>
      </trkpt>
      <trkpt lat="49.76453" lon="5.39325">
        <ele>347.6</ele>
        <time>2023-06-09T17:57:10Z</time>
      </trkpt>
      <trkpt lat="49.76458" lon="5.39313">
        <ele>347.6</ele>
        <time>2023-06-09T17:57:11Z</time>
      </trkpt>
      <trkpt lat="49.76463" lon="5.39302">
        <ele>348.1</ele>
        <time>2023-06-09T17:57:12Z</time>
      </trkpt>
      <trkpt lat="49.76468" lon="5.39287">
        <ele>348.6</ele>
        <time>2023-06-09T17:57:13Z</time>
      </trkpt>
      <trkpt lat="49.76468" lon="5.39272">
        <ele>348.1</ele>
        <time>2023-06-09T17:57:14Z</time>
      </trkpt>
      <trkpt lat="49.76468" lon="5.39257">
        <ele>348.1</ele>
        <time>2023-06-09T17:57:15Z</time>
      </trkpt>
      <trkpt lat="49.76468" lon="5.39241">
        <ele>349.1</ele>
        <time>2023-06-09T17:57:16Z</time>
      </trkpt>
      <trkpt lat="49.76467" lon="5.39219">
        <ele>349.6</ele>
        <time>2023-06-09T17:57:17Z</time>
      </trkpt>
      <trkpt lat="49.76453" lon="5.39104">
        <ele>352.9</ele>
        <time>2023-06-09T17:57:22Z</time>
      </trkpt>
      <trkpt lat="49.76445" lon="5.39044">
        <ele>356.3</ele>
        <time>2023-06-09T17:57:26Z</time>
      </trkpt>
      <trkpt lat="49.76437" lon="5.38934">
        <ele>360.6</ele>
        <time>2023-06-09T17:57:30Z</time>
      </trkpt>
      <trkpt lat="49.76436" lon="5.38909">
        <ele>364.5</ele>
        <time>2023-06-09T17:57:32Z</time>
      </trkpt>
      <trkpt lat="49.76431" lon="5.38816">
        <ele>368.8</ele>
        <time>2023-06-09T17:57:35Z</time>
      </trkpt>
      <trkpt lat="49.76427" lon="5.38769">
        <ele>372.6</ele>
        <time>2023-06-09T17:57:38Z</time>
      </trkpt>
      <trkpt lat="49.76424" lon="5.38722">
        <ele>376.5</ele>
        <time>2023-06-09T17:57:40Z</time>
      </trkpt>
      <trkpt lat="49.7642" lon="5.38676">
        <ele>380.3</ele>
        <time>2023-06-09T17:57:42Z</time>
      </trkpt>
      <trkpt lat="49.76414" lon="5.38606">
        <ele>383.7</ele>
        <time>2023-06-09T17:57:44Z</time>
      </trkpt>
      <trkpt lat="49.76411" lon="5.38558">
        <ele>387.6</ele>
        <time>2023-06-09T17:57:46Z</time>
      </trkpt>
      <trkpt lat="49.76409" lon="5.38534">
        <ele>390.9</ele>
        <time>2023-06-09T17:57:48Z</time>
      </trkpt>
      <trkpt lat="49.76403" lon="5.38464">
        <ele>395.2</ele>
        <time>2023-06-09T17:57:51Z</time>
      </trkpt>
      <trkpt lat="49.76397" lon="5.3839">
        <ele>399.1</ele>
        <time>2023-06-09T17:57:54Z</time>
      </trkpt>
      <trkpt lat="49.76392" lon="5.38318">
        <ele>402.4</ele>
        <time>2023-06-09T17:57:57Z</time>
      </trkpt>
      <trkpt lat="49.76386" lon="5.38247">
        <ele>406.8</ele>
        <time>2023-06-09T17:58:00Z</time>
      </trkpt>
      <trkpt lat="49.76382" lon="5.38203">
        <ele>410.1</ele>
        <time>2023-06-09T17:58:02Z</time>
      </trkpt>
      <trkpt lat="49.76379" lon="5.38158">
        <ele>411.6</ele>
        <time>2023-06-09T17:58:04Z</time>
      </trkpt>
      <trkpt lat="49.76346" lon="5.37947">
        <ele>412.5</ele>
        <time>2023-06-09T17:58:14Z</time>
      </trkpt>
      <trkpt lat="49.76341" lon="5.37925">
        <ele>413</ele>
        <time>2023-06-09T17:58:15Z</time>
      </trkpt>
      <trkpt lat="49.76304" lon="5.37762">
        <ele>414.9</ele>
        <time>2023-06-09T17:58:24Z</time>
      </trkpt>
      <trkpt lat="49.76291" lon="5.37638">
        <ele>412.5</ele>
        <time>2023-06-09T17:58:29Z</time>
      </trkpt>
      <trkpt lat="49.76282" lon="5.37543">
        <ele>411.1</ele>
        <time>2023-06-09T17:58:36Z</time>
      </trkpt>
      <trkpt lat="49.76281" lon="5.37534">
        <ele>410.6</ele>
        <time>2023-06-09T17:58:37Z</time>
      </trkpt>
      <trkpt lat="49.7628" lon="5.37526">
        <ele>410.6</ele>
        <time>2023-06-09T17:58:38Z</time>
      </trkpt>
      <trkpt lat="49.76279" lon="5.37521">
        <ele>410.1</ele>
        <time>2023-06-09T17:58:39Z</time>
      </trkpt>
      <trkpt lat="49.76277" lon="5.3751">
        <ele>409.2</ele>
        <time>2023-06-09T17:58:43Z</time>
      </trkpt>
      <trkpt lat="49.76275" lon="5.375">
        <ele>409.2</ele>
        <time>2023-06-09T17:58:45Z</time>
      </trkpt>
      <trkpt lat="49.76264" lon="5.37491">
        <ele>409.2</ele>
        <time>2023-06-09T17:58:46Z</time>
      </trkpt>
      <trkpt lat="49.76263" lon="5.37482">
        <ele>409.7</ele>
        <time>2023-06-09T17:58:47Z</time>
      </trkpt>
      <trkpt lat="49.76258" lon="5.37381">
        <ele>413</ele>
        <time>2023-06-09T17:58:52Z</time>
      </trkpt>
      <trkpt lat="49.7625" lon="5.37237">
        <ele>416.4</ele>
        <time>2023-06-09T17:58:57Z</time>
      </trkpt>
      <trkpt lat="49.76225" lon="5.36917">
        <ele>414.5</ele>
        <time>2023-06-09T17:59:07Z</time>
      </trkpt>
      <trkpt lat="49.76218" lon="5.36832">
        <ele>415.9</ele>
        <time>2023-06-09T17:59:10Z</time>
      </trkpt>
      <trkpt lat="49.76189" lon="5.36648">
        <ele>418.8</ele>
        <time>2023-06-09T17:59:17Z</time>
      </trkpt>
      <trkpt lat="49.76184" lon="5.36628">
        <ele>419.8</ele>
        <time>2023-06-09T17:59:18Z</time>
      </trkpt>
      <trkpt lat="49.76132" lon="5.36553">
        <ele>420.2</ele>
        <time>2023-06-09T17:59:23Z</time>
      </trkpt>
      <trkpt lat="49.76037" lon="5.36442">
        <ele>417.4</ele>
        <time>2023-06-09T17:59:29Z</time>
      </trkpt>
      <trkpt lat="49.75817" lon="5.36183">
        <ele>415.4</ele>
        <time>2023-06-09T17:59:42Z</time>
      </trkpt>
      <trkpt lat="49.75762" lon="5.36127">
        <ele>412.1</ele>
        <time>2023-06-09T17:59:45Z</time>
      </trkpt>
      <trkpt lat="49.75702" lon="5.36082">
        <ele>408.7</ele>
        <time>2023-06-09T17:59:48Z</time>
      </trkpt>
      <trkpt lat="49.75633" lon="5.36037">
        <ele>405.3</ele>
        <time>2023-06-09T17:59:51Z</time>
      </trkpt>
      <trkpt lat="49.75537" lon="5.35979">
        <ele>403.4</ele>
        <time>2023-06-09T17:59:54Z</time>
      </trkpt>
      <trkpt lat="49.75348" lon="5.35864">
        <ele>399.6</ele>
        <time>2023-06-09T18:00:02Z</time>
      </trkpt>
      <trkpt lat="49.75324" lon="5.3585">
        <ele>396.2</ele>
        <time>2023-06-09T18:00:04Z</time>
      </trkpt>
      <trkpt lat="49.75278" lon="5.35822">
        <ele>392.4</ele>
        <time>2023-06-09T18:00:06Z</time>
      </trkpt>
      <trkpt lat="49.7523" lon="5.35793">
        <ele>388</ele>
        <time>2023-06-09T18:00:08Z</time>
      </trkpt>
      <trkpt lat="49.75182" lon="5.35764">
        <ele>385.1</ele>
        <time>2023-06-09T18:00:10Z</time>
      </trkpt>
      <trkpt lat="49.75109" lon="5.35719">
        <ele>388</ele>
        <time>2023-06-09T18:00:13Z</time>
      </trkpt>
      <trkpt lat="49.7504" lon="5.35674">
        <ele>390.4</ele>
        <time>2023-06-09T18:00:16Z</time>
      </trkpt>
      <trkpt lat="49.74898" lon="5.35581">
        <ele>387.6</ele>
        <time>2023-06-09T18:00:21Z</time>
      </trkpt>
      <trkpt lat="49.74739" lon="5.35477">
        <ele>386.1</ele>
        <time>2023-06-09T18:00:29Z</time>
      </trkpt>
      <trkpt lat="49.74558" lon="5.35359">
        <ele>386.6</ele>
        <time>2023-06-09T18:00:38Z</time>
      </trkpt>
      <trkpt lat="49.74471" lon="5.353">
        <ele>382.7</ele>
        <time>2023-06-09T18:00:44Z</time>
      </trkpt>
      <trkpt lat="49.74431" lon="5.35279">
        <ele>382.3</ele>
        <time>2023-06-09T18:00:47Z</time>
      </trkpt>
      <trkpt lat="49.74431" lon="5.35279">
        <ele>380.8</ele>
        <time>2023-06-09T18:00:48Z</time>
      </trkpt>
      <trkpt lat="49.74418" lon="5.35278">
        <ele>379.4</ele>
        <time>2023-06-09T18:00:49Z</time>
      </trkpt>
      <trkpt lat="49.74371" lon="5.35286">
        <ele>375.5</ele>
        <time>2023-06-09T18:00:52Z</time>
      </trkpt>
      <trkpt lat="49.74335" lon="5.35291">
        <ele>372.2</ele>
        <time>2023-06-09T18:00:54Z</time>
      </trkpt>
      <trkpt lat="49.74284" lon="5.35284">
        <ele>368.3</ele>
        <time>2023-06-09T18:00:57Z</time>
      </trkpt>
      <trkpt lat="49.74247" lon="5.35279">
        <ele>363.5</ele>
        <time>2023-06-09T18:00:59Z</time>
      </trkpt>
      <trkpt lat="49.7421" lon="5.35273">
        <ele>359.2</ele>
        <time>2023-06-09T18:01:01Z</time>
      </trkpt>
      <trkpt lat="49.74175" lon="5.35265">
        <ele>354.9</ele>
        <time>2023-06-09T18:01:03Z</time>
      </trkpt>
      <trkpt lat="49.7414" lon="5.35256">
        <ele>350.5</ele>
        <time>2023-06-09T18:01:05Z</time>
      </trkpt>
      <trkpt lat="49.7411" lon="5.35248">
        <ele>346.7</ele>
        <time>2023-06-09T18:01:07Z</time>
      </trkpt>
      <trkpt lat="49.74097" lon="5.35245">
        <ele>345.3</ele>
        <time>2023-06-09T18:01:08Z</time>
      </trkpt>
      <trkpt lat="49.74087" lon="5.35237">
        <ele>343.8</ele>
        <time>2023-06-09T18:01:09Z</time>
      </trkpt>
      <trkpt lat="49.74076" lon="5.35229">
        <ele>343.3</ele>
        <time>2023-06-09T18:01:10Z</time>
      </trkpt>
      <trkpt lat="49.74066" lon="5.35219">
        <ele>342.4</ele>
        <time>2023-06-09T18:01:11Z</time>
      </trkpt>
      <trkpt lat="49.74057" lon="5.35204">
        <ele>341.9</ele>
        <time>2023-06-09T18:01:12Z</time>
      </trkpt>
      <trkpt lat="49.74048" lon="5.35189">
        <ele>340.9</ele>
        <time>2023-06-09T18:01:13Z</time>
      </trkpt>
      <trkpt lat="49.74025" lon="5.35146">
        <ele>337.1</ele>
        <time>2023-06-09T18:01:16Z</time>
      </trkpt>
      <trkpt lat="49.74021" lon="5.35134">
        <ele>336.1</ele>
        <time>2023-06-09T18:01:17Z</time>
      </trkpt>
      <trkpt lat="49.74015" lon="5.3512">
        <ele>335.6</ele>
        <time>2023-06-09T18:01:18Z</time>
      </trkpt>
      <trkpt lat="49.74014" lon="5.35108">
        <ele>334.2</ele>
        <time>2023-06-09T18:01:19Z</time>
      </trkpt>
      <trkpt lat="49.74013" lon="5.35093">
        <ele>333.7</ele>
        <time>2023-06-09T18:01:20Z</time>
      </trkpt>
      <trkpt lat="49.74016" lon="5.35063">
        <ele>331.3</ele>
        <time>2023-06-09T18:01:21Z</time>
      </trkpt>
      <trkpt lat="49.74019" lon="5.35044">
        <ele>328.4</ele>
        <time>2023-06-09T18:01:23Z</time>
      </trkpt>
      <trkpt lat="49.74028" lon="5.34982">
        <ele>324.6</ele>
        <time>2023-06-09T18:01:26Z</time>
      </trkpt>
      <trkpt lat="49.7403" lon="5.34964">
        <ele>323.6</ele>
        <time>2023-06-09T18:01:27Z</time>
      </trkpt>
      <trkpt lat="49.74032" lon="5.34949">
        <ele>323.1</ele>
        <time>2023-06-09T18:01:28Z</time>
      </trkpt>
      <trkpt lat="49.74026" lon="5.34923">
        <ele>322.7</ele>
        <time>2023-06-09T18:01:29Z</time>
      </trkpt>
      <trkpt lat="49.74026" lon="5.34923">
        <ele>322.2</ele>
        <time>2023-06-09T18:01:30Z</time>
      </trkpt>
      <trkpt lat="49.74018" lon="5.34908">
        <ele>321.2</ele>
        <time>2023-06-09T18:01:31Z</time>
      </trkpt>
      <trkpt lat="49.74018" lon="5.34908">
        <ele>320.3</ele>
        <time>2023-06-09T18:01:32Z</time>
      </trkpt>
      <trkpt lat="49.74011" lon="5.34904">
        <ele>319.8</ele>
        <time>2023-06-09T18:01:33Z</time>
      </trkpt>
      <trkpt lat="49.74005" lon="5.34901">
        <ele>319.3</ele>
        <time>2023-06-09T18:01:34Z</time>
      </trkpt>
      <trkpt lat="49.73997" lon="5.34902">
        <ele>317.9</ele>
        <time>2023-06-09T18:01:35Z</time>
      </trkpt>
      <trkpt lat="49.73989" lon="5.34905">
        <ele>316.9</ele>
        <time>2023-06-09T18:01:36Z</time>
      </trkpt>
      <trkpt lat="49.73979" lon="5.34912">
        <ele>315.4</ele>
        <time>2023-06-09T18:01:37Z</time>
      </trkpt>
      <trkpt lat="49.73979" lon="5.34912">
        <ele>313.5</ele>
        <time>2023-06-09T18:01:38Z</time>
      </trkpt>
      <trkpt lat="49.73956" lon="5.34941">
        <ele>311.1</ele>
        <time>2023-06-09T18:01:40Z</time>
      </trkpt>
      <trkpt lat="49.73956" lon="5.34941">
        <ele>309.7</ele>
        <time>2023-06-09T18:01:41Z</time>
      </trkpt>
      <trkpt lat="49.73948" lon="5.34947">
        <ele>309.2</ele>
        <time>2023-06-09T18:01:42Z</time>
      </trkpt>
      <trkpt lat="49.73939" lon="5.34948">
        <ele>308.2</ele>
        <time>2023-06-09T18:01:43Z</time>
      </trkpt>
      <trkpt lat="49.73931" lon="5.34944">
        <ele>307.3</ele>
        <time>2023-06-09T18:01:44Z</time>
      </trkpt>
      <trkpt lat="49.73923" lon="5.34939">
        <ele>306.3</ele>
        <time>2023-06-09T18:01:45Z</time>
      </trkpt>
      <trkpt lat="49.73879" lon="5.34905">
        <ele>304.4</ele>
        <time>2023-06-09T18:01:50Z</time>
      </trkpt>
      <trkpt lat="49.73871" lon="5.34894">
        <ele>304.4</ele>
        <time>2023-06-09T18:01:51Z</time>
      </trkpt>
      <trkpt lat="49.73865" lon="5.34882">
        <ele>304.4</ele>
        <time>2023-06-09T18:01:52Z</time>
      </trkpt>
      <trkpt lat="49.73858" lon="5.34871">
        <ele>304.4</ele>
        <time>2023-06-09T18:01:53Z</time>
      </trkpt>
      <trkpt lat="49.73858" lon="5.34858">
        <ele>303.9</ele>
        <time>2023-06-09T18:01:54Z</time>
      </trkpt>
      <trkpt lat="49.73862" lon="5.34843">
        <ele>303.9</ele>
        <time>2023-06-09T18:01:55Z</time>
      </trkpt>
      <trkpt lat="49.7387" lon="5.34815">
        <ele>303.9</ele>
        <time>2023-06-09T18:01:56Z</time>
      </trkpt>
      <trkpt lat="49.7387" lon="5.34815">
        <ele>303.4</ele>
        <time>2023-06-09T18:01:57Z</time>
      </trkpt>
      <trkpt lat="49.73875" lon="5.348">
        <ele>303.4</ele>
        <time>2023-06-09T18:01:58Z</time>
      </trkpt>
      <trkpt lat="49.73914" lon="5.34697">
        <ele>307.8</ele>
        <time>2023-06-09T18:02:03Z</time>
      </trkpt>
      <trkpt lat="49.73942" lon="5.3463">
        <ele>311.6</ele>
        <time>2023-06-09T18:02:06Z</time>
      </trkpt>
      <trkpt lat="49.73952" lon="5.34609">
        <ele>312.6</ele>
        <time>2023-06-09T18:02:07Z</time>
      </trkpt>
      <trkpt lat="49.73964" lon="5.34591">
        <ele>314</ele>
        <time>2023-06-09T18:02:08Z</time>
      </trkpt>
      <trkpt lat="49.74004" lon="5.34551">
        <ele>317.4</ele>
        <time>2023-06-09T18:02:11Z</time>
      </trkpt>
      <trkpt lat="49.74026" lon="5.34527">
        <ele>319.8</ele>
        <time>2023-06-09T18:02:13Z</time>
      </trkpt>
      <trkpt lat="49.74033" lon="5.3451">
        <ele>320.7</ele>
        <time>2023-06-09T18:02:14Z</time>
      </trkpt>
      <trkpt lat="49.74037" lon="5.34495">
        <ele>324.6</ele>
        <time>2023-06-09T18:02:15Z</time>
      </trkpt>
      <trkpt lat="49.74042" lon="5.34462">
        <ele>327.9</ele>
        <time>2023-06-09T18:02:17Z</time>
      </trkpt>
      <trkpt lat="49.74047" lon="5.34422">
        <ele>331.3</ele>
        <time>2023-06-09T18:02:19Z</time>
      </trkpt>
      <trkpt lat="49.74055" lon="5.3439">
        <ele>335.2</ele>
        <time>2023-06-09T18:02:21Z</time>
      </trkpt>
      <trkpt lat="49.74059" lon="5.34375">
        <ele>336.6</ele>
        <time>2023-06-09T18:02:22Z</time>
      </trkpt>
      <trkpt lat="49.74077" lon="5.34328">
        <ele>339.5</ele>
        <time>2023-06-09T18:02:26Z</time>
      </trkpt>
      <trkpt lat="49.74079" lon="5.34316">
        <ele>341.4</ele>
        <time>2023-06-09T18:02:27Z</time>
      </trkpt>
      <trkpt lat="49.74079" lon="5.34311">
        <ele>343.3</ele>
        <time>2023-06-09T18:02:28Z</time>
      </trkpt>
      <trkpt lat="49.74078" lon="5.34304">
        <ele>344.3</ele>
        <time>2023-06-09T18:02:29Z</time>
      </trkpt>
      <trkpt lat="49.74076" lon="5.34295">
        <ele>345.3</ele>
        <time>2023-06-09T18:02:30Z</time>
      </trkpt>
      <trkpt lat="49.74072" lon="5.34289">
        <ele>346.2</ele>
        <time>2023-06-09T18:02:31Z</time>
      </trkpt>
      <trkpt lat="49.74066" lon="5.34283">
        <ele>346.7</ele>
        <time>2023-06-09T18:02:32Z</time>
      </trkpt>
      <trkpt lat="49.74058" lon="5.34277">
        <ele>347.6</ele>
        <time>2023-06-09T18:02:33Z</time>
      </trkpt>
      <trkpt lat="49.74018" lon="5.34247">
        <ele>351</ele>
        <time>2023-06-09T18:02:36Z</time>
      </trkpt>
      <trkpt lat="49.73999" lon="5.34227">
        <ele>355.3</ele>
        <time>2023-06-09T18:02:39Z</time>
      </trkpt>
      <trkpt lat="49.73972" lon="5.34195">
        <ele>358.7</ele>
        <time>2023-06-09T18:02:42Z</time>
      </trkpt>
      <trkpt lat="49.73926" lon="5.34141">
        <ele>362.1</ele>
        <time>2023-06-09T18:02:46Z</time>
      </trkpt>
      <trkpt lat="49.73895" lon="5.34106">
        <ele>365</ele>
        <time>2023-06-09T18:02:50Z</time>
      </trkpt>
      <trkpt lat="49.73823" lon="5.34055">
        <ele>368.3</ele>
        <time>2023-06-09T18:02:56Z</time>
      </trkpt>
      <trkpt lat="49.73782" lon="5.34029">
        <ele>370.7</ele>
        <time>2023-06-09T18:02:59Z</time>
      </trkpt>
      <trkpt lat="49.73706" lon="5.33965">
        <ele>371.2</ele>
        <time>2023-06-09T18:03:07Z</time>
      </trkpt>
      <trkpt lat="49.73665" lon="5.33943">
        <ele>372.2</ele>
        <time>2023-06-09T18:03:15Z</time>
      </trkpt>
      <trkpt lat="49.7362" lon="5.33929">
        <ele>369.8</ele>
        <time>2023-06-09T18:03:21Z</time>
      </trkpt>
      <trkpt lat="49.73561" lon="5.33914">
        <ele>366.4</ele>
        <time>2023-06-09T18:03:25Z</time>
      </trkpt>
      <trkpt lat="49.73442" lon="5.33887">
        <ele>363.5</ele>
        <time>2023-06-09T18:03:32Z</time>
      </trkpt>
      <trkpt lat="49.73338" lon="5.33875">
        <ele>361.1</ele>
        <time>2023-06-09T18:03:38Z</time>
      </trkpt>
      <trkpt lat="49.73158" lon="5.33848">
        <ele>359.7</ele>
        <time>2023-06-09T18:03:49Z</time>
      </trkpt>
      <trkpt lat="49.73035" lon="5.33808">
        <ele>359.2</ele>
        <time>2023-06-09T18:03:58Z</time>
      </trkpt>
      <trkpt lat="49.72987" lon="5.33789">
        <ele>358.7</ele>
        <time>2023-06-09T18:04:02Z</time>
      </trkpt>
      <trkpt lat="49.72978" lon="5.33785">
        <ele>358.7</ele>
        <time>2023-06-09T18:04:03Z</time>
      </trkpt>
      <trkpt lat="49.7296" lon="5.33787">
        <ele>358.7</ele>
        <time>2023-06-09T18:04:04Z</time>
      </trkpt>
      <trkpt lat="49.7296" lon="5.33787">
        <ele>358.7</ele>
        <time>2023-06-09T18:04:05Z</time>
      </trkpt>
      <trkpt lat="49.72955" lon="5.33798">
        <ele>359.2</ele>
        <time>2023-06-09T18:04:06Z</time>
      </trkpt>
      <trkpt lat="49.72895" lon="5.33861">
        <ele>355.8</ele>
        <time>2023-06-09T18:04:11Z</time>
      </trkpt>
      <trkpt lat="49.72879" lon="5.33875">
        <ele>355.8</ele>
        <time>2023-06-09T18:04:12Z</time>
      </trkpt>
      <trkpt lat="49.72721" lon="5.33957">
        <ele>356.8</ele>
        <time>2023-06-09T18:04:20Z</time>
      </trkpt>
      <trkpt lat="49.72608" lon="5.33985">
        <ele>356.8</ele>
        <time>2023-06-09T18:04:26Z</time>
      </trkpt>
      <trkpt lat="49.7254" lon="5.34032">
        <ele>355.3</ele>
        <time>2023-06-09T18:04:30Z</time>
      </trkpt>
      <trkpt lat="49.72428" lon="5.34161">
        <ele>352</ele>
        <time>2023-06-09T18:04:36Z</time>
      </trkpt>
      <trkpt lat="49.72399" lon="5.34196">
        <ele>350.1</ele>
        <time>2023-06-09T18:04:38Z</time>
      </trkpt>
      <trkpt lat="49.72399" lon="5.34196">
        <ele>349.1</ele>
        <time>2023-06-09T18:04:39Z</time>
      </trkpt>
      <trkpt lat="49.72369" lon="5.34232">
        <ele>348.6</ele>
        <time>2023-06-09T18:04:41Z</time>
      </trkpt>
      <trkpt lat="49.72337" lon="5.34263">
        <ele>348.6</ele>
        <time>2023-06-09T18:04:42Z</time>
      </trkpt>
      <trkpt lat="49.72319" lon="5.34275">
        <ele>348.6</ele>
        <time>2023-06-09T18:04:43Z</time>
      </trkpt>
      <trkpt lat="49.7225" lon="5.34324">
        <ele>348.6</ele>
        <time>2023-06-09T18:04:47Z</time>
      </trkpt>
      <trkpt lat="49.7225" lon="5.34324">
        <ele>348.6</ele>
        <time>2023-06-09T18:04:48Z</time>
      </trkpt>
      <trkpt lat="49.72074" lon="5.34525">
        <ele>347.6</ele>
        <time>2023-06-09T18:04:57Z</time>
      </trkpt>
      <trkpt lat="49.72014" lon="5.34584">
        <ele>350.1</ele>
        <time>2023-06-09T18:05:02Z</time>
      </trkpt>
      <trkpt lat="49.71999" lon="5.34597">
        <ele>350.5</ele>
        <time>2023-06-09T18:05:03Z</time>
      </trkpt>
      <trkpt lat="49.71866" lon="5.34663">
        <ele>351</ele>
        <time>2023-06-09T18:05:10Z</time>
      </trkpt>
      <trkpt lat="49.71607" lon="5.34773">
        <ele>350.5</ele>
        <time>2023-06-09T18:05:22Z</time>
      </trkpt>
      <trkpt lat="49.71467" lon="5.34783">
        <ele>352</ele>
        <time>2023-06-09T18:05:29Z</time>
      </trkpt>
      <trkpt lat="49.71416" lon="5.34789">
        <ele>351</ele>
        <time>2023-06-09T18:05:32Z</time>
      </trkpt>
      <trkpt lat="49.71416" lon="5.34789">
        <ele>351</ele>
        <time>2023-06-09T18:05:33Z</time>
      </trkpt>
      <trkpt lat="49.71406" lon="5.34793">
        <ele>351</ele>
        <time>2023-06-09T18:05:34Z</time>
      </trkpt>
      <trkpt lat="49.71322" lon="5.34852">
        <ele>348.1</ele>
        <time>2023-06-09T18:05:41Z</time>
      </trkpt>
      <trkpt lat="49.71315" lon="5.34845">
        <ele>348.1</ele>
        <time>2023-06-09T18:05:42Z</time>
      </trkpt>
      <trkpt lat="49.71315" lon="5.34845">
        <ele>348.1</ele>
        <time>2023-06-09T18:05:43Z</time>
      </trkpt>
      <trkpt lat="49.71223" lon="5.34801">
        <ele>350.1</ele>
        <time>2023-06-09T18:05:49Z</time>
      </trkpt>
      <trkpt lat="49.71142" lon="5.34767">
        <ele>351</ele>
        <time>2023-06-09T18:05:56Z</time>
      </trkpt>
      <trkpt lat="49.71038" lon="5.34762">
        <ele>348.6</ele>
        <time>2023-06-09T18:06:03Z</time>
      </trkpt>
      <trkpt lat="49.71023" lon="5.34756">
        <ele>348.1</ele>
        <time>2023-06-09T18:06:04Z</time>
      </trkpt>
      <trkpt lat="49.7096" lon="5.34732">
        <ele>345.3</ele>
        <time>2023-06-09T18:06:08Z</time>
      </trkpt>
      <trkpt lat="49.70904" lon="5.34709">
        <ele>342.4</ele>
        <time>2023-06-09T18:06:12Z</time>
      </trkpt>
      <trkpt lat="49.70848" lon="5.34676">
        <ele>339</ele>
        <time>2023-06-09T18:06:16Z</time>
      </trkpt>
      <trkpt lat="49.70778" lon="5.34634">
        <ele>335.6</ele>
        <time>2023-06-09T18:06:20Z</time>
      </trkpt>
      <trkpt lat="49.70734" lon="5.34612">
        <ele>333.2</ele>
        <time>2023-06-09T18:06:24Z</time>
      </trkpt>
      <trkpt lat="49.70605" lon="5.34511">
        <ele>332.3</ele>
        <time>2023-06-09T18:06:34Z</time>
      </trkpt>
      <trkpt lat="49.70464" lon="5.34358">
        <ele>330.4</ele>
        <time>2023-06-09T18:06:46Z</time>
      </trkpt>
      <trkpt lat="49.70412" lon="5.34294">
        <ele>327.9</ele>
        <time>2023-06-09T18:06:51Z</time>
      </trkpt>
      <trkpt lat="49.70369" lon="5.34237">
        <ele>326.5</ele>
        <time>2023-06-09T18:06:56Z</time>
      </trkpt>
      <trkpt lat="49.70352" lon="5.34227">
        <ele>326.5</ele>
        <time>2023-06-09T18:06:57Z</time>
      </trkpt>
      <trkpt lat="49.70352" lon="5.34227">
        <ele>326</ele>
        <time>2023-06-09T18:06:58Z</time>
      </trkpt>
      <trkpt lat="49.70344" lon="5.34224">
        <ele>325.5</ele>
        <time>2023-06-09T18:06:59Z</time>
      </trkpt>
      <trkpt lat="49.70336" lon="5.34221">
        <ele>325.5</ele>
        <time>2023-06-09T18:07:00Z</time>
      </trkpt>
      <trkpt lat="49.7033" lon="5.34225">
        <ele>325.1</ele>
        <time>2023-06-09T18:07:01Z</time>
      </trkpt>
      <trkpt lat="49.70324" lon="5.34231">
        <ele>325.1</ele>
        <time>2023-06-09T18:07:02Z</time>
      </trkpt>
      <trkpt lat="49.70317" lon="5.34237">
        <ele>325.1</ele>
        <time>2023-06-09T18:07:03Z</time>
      </trkpt>
      <trkpt lat="49.70302" lon="5.3425">
        <ele>324.6</ele>
        <time>2023-06-09T18:07:04Z</time>
      </trkpt>
      <trkpt lat="49.70302" lon="5.3425">
        <ele>324.1</ele>
        <time>2023-06-09T18:07:05Z</time>
      </trkpt>
      <trkpt lat="49.70295" lon="5.34255">
        <ele>324.1</ele>
        <time>2023-06-09T18:07:06Z</time>
      </trkpt>
      <trkpt lat="49.7029" lon="5.34255">
        <ele>324.1</ele>
        <time>2023-06-09T18:07:07Z</time>
      </trkpt>
      <trkpt lat="49.70287" lon="5.34252">
        <ele>324.1</ele>
        <time>2023-06-09T18:07:08Z</time>
      </trkpt>
      <trkpt lat="49.70284" lon="5.3425">
        <ele>324.1</ele>
        <time>2023-06-09T18:07:09Z</time>
      </trkpt>
      <trkpt lat="49.70274" lon="5.34236">
        <ele>324.1</ele>
        <time>2023-06-09T18:07:16Z</time>
      </trkpt>
      <trkpt lat="49.70253" lon="5.34196">
        <ele>323.6</ele>
        <time>2023-06-09T18:07:22Z</time>
      </trkpt>
      <trkpt lat="49.7025" lon="5.34191">
        <ele>323.6</ele>
        <time>2023-06-09T18:07:23Z</time>
      </trkpt>
      <trkpt lat="49.70247" lon="5.34186">
        <ele>323.6</ele>
        <time>2023-06-09T18:07:24Z</time>
      </trkpt>
      <trkpt lat="49.70242" lon="5.34182">
        <ele>323.6</ele>
        <time>2023-06-09T18:07:25Z</time>
      </trkpt>
      <trkpt lat="49.70236" lon="5.34182">
        <ele>323.6</ele>
        <time>2023-06-09T18:07:26Z</time>
      </trkpt>
      <trkpt lat="49.70229" lon="5.34181">
        <ele>323.6</ele>
        <time>2023-06-09T18:07:27Z</time>
      </trkpt>
      <trkpt lat="49.70135" lon="5.34173">
        <ele>324.6</ele>
        <time>2023-06-09T18:07:35Z</time>
      </trkpt>
      <trkpt lat="49.70114" lon="5.34157">
        <ele>325.5</ele>
        <time>2023-06-09T18:07:36Z</time>
      </trkpt>
      <trkpt lat="49.70105" lon="5.34149">
        <ele>326.5</ele>
        <time>2023-06-09T18:07:37Z</time>
      </trkpt>
      <trkpt lat="49.7009" lon="5.34134">
        <ele>327.5</ele>
        <time>2023-06-09T18:07:39Z</time>
      </trkpt>
      <trkpt lat="49.70083" lon="5.34127">
        <ele>327.9</ele>
        <time>2023-06-09T18:07:41Z</time>
      </trkpt>
      <trkpt lat="49.70065" lon="5.34108">
        <ele>328.4</ele>
        <time>2023-06-09T18:07:42Z</time>
      </trkpt>
      <trkpt lat="49.70065" lon="5.34108">
        <ele>327</ele>
        <time>2023-06-09T18:07:43Z</time>
      </trkpt>
      <trkpt lat="49.70055" lon="5.34098">
        <ele>326.5</ele>
        <time>2023-06-09T18:07:44Z</time>
      </trkpt>
      <trkpt lat="49.70047" lon="5.34084">
        <ele>326.5</ele>
        <time>2023-06-09T18:07:45Z</time>
      </trkpt>
      <trkpt lat="49.7004" lon="5.34069">
        <ele>326</ele>
        <time>2023-06-09T18:07:46Z</time>
      </trkpt>
      <trkpt lat="49.70009" lon="5.34003">
        <ele>326</ele>
        <time>2023-06-09T18:07:50Z</time>
      </trkpt>
      <trkpt lat="49.7" lon="5.33989">
        <ele>325.5</ele>
        <time>2023-06-09T18:07:51Z</time>
      </trkpt>
      <trkpt lat="49.69949" lon="5.3391">
        <ele>326</ele>
        <time>2023-06-09T18:07:57Z</time>
      </trkpt>
      <trkpt lat="49.69943" lon="5.33898">
        <ele>326</ele>
        <time>2023-06-09T18:07:58Z</time>
      </trkpt>
      <trkpt lat="49.69937" lon="5.33887">
        <ele>326.5</ele>
        <time>2023-06-09T18:07:59Z</time>
      </trkpt>
      <trkpt lat="49.69932" lon="5.33875">
        <ele>326.5</ele>
        <time>2023-06-09T18:08:00Z</time>
      </trkpt>
      <trkpt lat="49.69922" lon="5.33842">
        <ele>326.5</ele>
        <time>2023-06-09T18:08:01Z</time>
      </trkpt>
      <trkpt lat="49.69886" lon="5.33666">
        <ele>329.4</ele>
        <time>2023-06-09T18:08:10Z</time>
      </trkpt>
      <trkpt lat="49.69873" lon="5.33492">
        <ele>331.8</ele>
        <time>2023-06-09T18:08:18Z</time>
      </trkpt>
      <trkpt lat="49.69871" lon="5.33458">
        <ele>331.8</ele>
        <time>2023-06-09T18:08:20Z</time>
      </trkpt>
      <trkpt lat="49.6987" lon="5.3344">
        <ele>330.8</ele>
        <time>2023-06-09T18:08:21Z</time>
      </trkpt>
      <trkpt lat="49.69837" lon="5.33325">
        <ele>335.2</ele>
        <time>2023-06-09T18:08:26Z</time>
      </trkpt>
      <trkpt lat="49.69814" lon="5.33249">
        <ele>338</ele>
        <time>2023-06-09T18:08:30Z</time>
      </trkpt>
      <trkpt lat="49.69802" lon="5.3321">
        <ele>339.5</ele>
        <time>2023-06-09T18:08:33Z</time>
      </trkpt>
      <trkpt lat="49.69794" lon="5.33095">
        <ele>341.4</ele>
        <time>2023-06-09T18:08:39Z</time>
      </trkpt>
      <trkpt lat="49.69796" lon="5.32983">
        <ele>345.3</ele>
        <time>2023-06-09T18:08:43Z</time>
      </trkpt>
      <trkpt lat="49.69798" lon="5.32954">
        <ele>345.3</ele>
        <time>2023-06-09T18:08:44Z</time>
      </trkpt>
      <trkpt lat="49.69822" lon="5.32729">
        <ele>348.6</ele>
        <time>2023-06-09T18:08:52Z</time>
      </trkpt>
      <trkpt lat="49.69863" lon="5.32522">
        <ele>347.6</ele>
        <time>2023-06-09T18:09:01Z</time>
      </trkpt>
      <trkpt lat="49.69905" lon="5.32397">
        <ele>350.5</ele>
        <time>2023-06-09T18:09:09Z</time>
      </trkpt>
      <trkpt lat="49.6993" lon="5.32294">
        <ele>351.5</ele>
        <time>2023-06-09T18:09:17Z</time>
      </trkpt>
      <trkpt lat="49.69936" lon="5.32266">
        <ele>353.9</ele>
        <time>2023-06-09T18:09:22Z</time>
      </trkpt>
      <trkpt lat="49.69932" lon="5.32261">
        <ele>353.9</ele>
        <time>2023-06-09T18:09:23Z</time>
      </trkpt>
      <trkpt lat="49.69928" lon="5.32257">
        <ele>354.4</ele>
        <time>2023-06-09T18:09:24Z</time>
      </trkpt>
      <trkpt lat="49.69909" lon="5.3225">
        <ele>354.4</ele>
        <time>2023-06-09T18:09:27Z</time>
      </trkpt>
      <trkpt lat="49.69899" lon="5.32248">
        <ele>354.9</ele>
        <time>2023-06-09T18:09:28Z</time>
      </trkpt>
      <trkpt lat="49.69864" lon="5.32243">
        <ele>352.9</ele>
        <time>2023-06-09T18:09:31Z</time>
      </trkpt>
      <trkpt lat="49.69759" lon="5.32228">
        <ele>349.6</ele>
        <time>2023-06-09T18:09:40Z</time>
      </trkpt>
      <trkpt lat="49.69597" lon="5.322">
        <ele>347.6</ele>
        <time>2023-06-09T18:09:53Z</time>
      </trkpt>
      <trkpt lat="49.69553" lon="5.32184">
        <ele>348.1</ele>
        <time>2023-06-09T18:09:59Z</time>
      </trkpt>
      <trkpt lat="49.69527" lon="5.32173">
        <ele>347.2</ele>
        <time>2023-06-09T18:10:06Z</time>
      </trkpt>
      <trkpt lat="49.69419" lon="5.32129">
        <ele>346.2</ele>
        <time>2023-06-09T18:10:15Z</time>
      </trkpt>
      <trkpt lat="49.6923" lon="5.32052">
        <ele>342.4</ele>
        <time>2023-06-09T18:10:30Z</time>
      </trkpt>
      <trkpt lat="49.69156" lon="5.32033">
        <ele>340.4</ele>
        <time>2023-06-09T18:10:37Z</time>
      </trkpt>
      <trkpt lat="49.6915" lon="5.32032">
        <ele>340</ele>
        <time>2023-06-09T18:10:38Z</time>
      </trkpt>
      <trkpt lat="49.69146" lon="5.32032">
        <ele>340.9</ele>
        <time>2023-06-09T18:10:39Z</time>
      </trkpt>
      <trkpt lat="49.69143" lon="5.32031">
        <ele>340.9</ele>
        <time>2023-06-09T18:10:40Z</time>
      </trkpt>
      <trkpt lat="49.69139" lon="5.3202">
        <ele>340.9</ele>
        <time>2023-06-09T18:10:41Z</time>
      </trkpt>
      <trkpt lat="49.6914" lon="5.32015">
        <ele>340.9</ele>
        <time>2023-06-09T18:10:42Z</time>
      </trkpt>
      <trkpt lat="49.69142" lon="5.32008">
        <ele>340.9</ele>
        <time>2023-06-09T18:10:43Z</time>
      </trkpt>
      <trkpt lat="49.69169" lon="5.31918">
        <ele>340.9</ele>
        <time>2023-06-09T18:10:49Z</time>
      </trkpt>
      <trkpt lat="49.69232" lon="5.31761">
        <ele>344.8</ele>
        <time>2023-06-09T18:10:58Z</time>
      </trkpt>
      <trkpt lat="49.69241" lon="5.31746">
        <ele>344.8</ele>
        <time>2023-06-09T18:10:59Z</time>
      </trkpt>
      <trkpt lat="49.69285" lon="5.31677">
        <ele>345.3</ele>
        <time>2023-06-09T18:11:05Z</time>
      </trkpt>
      <trkpt lat="49.6929" lon="5.31671">
        <ele>345.7</ele>
        <time>2023-06-09T18:11:06Z</time>
      </trkpt>
      <trkpt lat="49.69293" lon="5.31665">
        <ele>345.3</ele>
        <time>2023-06-09T18:11:07Z</time>
      </trkpt>
      <trkpt lat="49.69294" lon="5.31663">
        <ele>344.8</ele>
        <time>2023-06-09T18:11:08Z</time>
      </trkpt>
      <trkpt lat="49.69288" lon="5.3166">
        <ele>344.8</ele>
        <time>2023-06-09T18:11:09Z</time>
      </trkpt>
      <trkpt lat="49.69285" lon="5.31658">
        <ele>344.8</ele>
        <time>2023-06-09T18:11:10Z</time>
      </trkpt>
      <trkpt lat="49.6928" lon="5.31656">
        <ele>345.3</ele>
        <time>2023-06-09T18:11:11Z</time>
      </trkpt>
      <trkpt lat="49.69267" lon="5.31651">
        <ele>345.3</ele>
        <time>2023-06-09T18:11:12Z</time>
      </trkpt>
      <trkpt lat="49.69258" lon="5.31652">
        <ele>346.2</ele>
        <time>2023-06-09T18:11:14Z</time>
      </trkpt>
      <trkpt lat="49.69248" lon="5.31654">
        <ele>346.2</ele>
        <time>2023-06-09T18:11:15Z</time>
      </trkpt>
      <trkpt lat="49.69237" lon="5.31656">
        <ele>346.2</ele>
        <time>2023-06-09T18:11:16Z</time>
      </trkpt>
      <trkpt lat="49.69226" lon="5.31658">
        <ele>346.2</ele>
        <time>2023-06-09T18:11:17Z</time>
      </trkpt>
      <trkpt lat="49.69216" lon="5.31665">
        <ele>345.7</ele>
        <time>2023-06-09T18:11:18Z</time>
      </trkpt>
      <trkpt lat="49.69085" lon="5.31751">
        <ele>344.3</ele>
        <time>2023-06-09T18:11:31Z</time>
      </trkpt>
      <trkpt lat="49.69073" lon="5.31756">
        <ele>344.3</ele>
        <time>2023-06-09T18:11:32Z</time>
      </trkpt>
      <trkpt lat="49.69062" lon="5.31761">
        <ele>343.8</ele>
        <time>2023-06-09T18:11:33Z</time>
      </trkpt>
      <trkpt lat="49.69052" lon="5.3177">
        <ele>344.3</ele>
        <time>2023-06-09T18:11:34Z</time>
      </trkpt>
      <trkpt lat="49.68928" lon="5.31889">
        <ele>341.9</ele>
        <time>2023-06-09T18:11:44Z</time>
      </trkpt>
      <trkpt lat="49.68742" lon="5.32089">
        <ele>341.9</ele>
        <time>2023-06-09T18:12:00Z</time>
      </trkpt>
      <trkpt lat="49.68713" lon="5.3212">
        <ele>342.4</ele>
        <time>2023-06-09T18:12:06Z</time>
      </trkpt>
      <trkpt lat="49.68711" lon="5.32122">
        <ele>342.4</ele>
        <time>2023-06-09T18:12:18Z</time>
      </trkpt>
      <trkpt lat="49.68692" lon="5.32139">
        <ele>342.9</ele>
        <time>2023-06-09T18:12:30Z</time>
      </trkpt>
      <trkpt lat="49.68627" lon="5.32195">
        <ele>344.8</ele>
        <time>2023-06-09T18:12:37Z</time>
      </trkpt>
      <trkpt lat="49.68545" lon="5.32299">
        <ele>345.3</ele>
        <time>2023-06-09T18:12:45Z</time>
      </trkpt>
      <trkpt lat="49.68476" lon="5.32373">
        <ele>346.2</ele>
        <time>2023-06-09T18:12:52Z</time>
      </trkpt>
      <trkpt lat="49.68398" lon="5.3246">
        <ele>343.8</ele>
        <time>2023-06-09T18:13:00Z</time>
      </trkpt>
      <trkpt lat="49.6836" lon="5.32503">
        <ele>340.4</ele>
        <time>2023-06-09T18:13:05Z</time>
      </trkpt>
      <trkpt lat="49.68318" lon="5.32551">
        <ele>339</ele>
        <time>2023-06-09T18:13:09Z</time>
      </trkpt>
      <trkpt lat="49.68156" lon="5.32733">
        <ele>336.1</ele>
        <time>2023-06-09T18:13:25Z</time>
      </trkpt>
      <trkpt lat="49.68118" lon="5.3277">
        <ele>334.7</ele>
        <time>2023-06-09T18:13:28Z</time>
      </trkpt>
      <trkpt lat="49.68051" lon="5.32815">
        <ele>332.8</ele>
        <time>2023-06-09T18:13:36Z</time>
      </trkpt>
      <trkpt lat="49.67958" lon="5.32833">
        <ele>331.8</ele>
        <time>2023-06-09T18:13:45Z</time>
      </trkpt>
      <trkpt lat="49.67941" lon="5.32834">
        <ele>329.9</ele>
        <time>2023-06-09T18:13:53Z</time>
      </trkpt>
      <trkpt lat="49.67922" lon="5.32838">
        <ele>328.9</ele>
        <time>2023-06-09T18:16:03Z</time>
      </trkpt>
      <trkpt lat="49.67915" lon="5.32841">
        <ele>328.9</ele>
        <time>2023-06-09T18:16:04Z</time>
      </trkpt>
      <trkpt lat="49.67908" lon="5.32843">
        <ele>328.9</ele>
        <time>2023-06-09T18:16:05Z</time>
      </trkpt>
      <trkpt lat="49.67891" lon="5.32852">
        <ele>328.9</ele>
        <time>2023-06-09T18:16:06Z</time>
      </trkpt>
      <trkpt lat="49.67891" lon="5.32852">
        <ele>328.4</ele>
        <time>2023-06-09T18:16:07Z</time>
      </trkpt>
      <trkpt lat="49.67876" lon="5.32864">
        <ele>328.4</ele>
        <time>2023-06-09T18:16:08Z</time>
      </trkpt>
      <trkpt lat="49.67876" lon="5.32864">
        <ele>327.9</ele>
        <time>2023-06-09T18:16:09Z</time>
      </trkpt>
      <trkpt lat="49.67861" lon="5.3288">
        <ele>326.5</ele>
        <time>2023-06-09T18:16:10Z</time>
      </trkpt>
      <trkpt lat="49.67842" lon="5.32902">
        <ele>323.1</ele>
        <time>2023-06-09T18:16:13Z</time>
      </trkpt>
      <trkpt lat="49.67778" lon="5.32998">
        <ele>322.7</ele>
        <time>2023-06-09T18:16:21Z</time>
      </trkpt>
      <trkpt lat="49.67772" lon="5.33005">
        <ele>322.7</ele>
        <time>2023-06-09T18:16:22Z</time>
      </trkpt>
      <trkpt lat="49.67765" lon="5.33012">
        <ele>322.2</ele>
        <time>2023-06-09T18:16:23Z</time>
      </trkpt>
      <trkpt lat="49.67757" lon="5.33019">
        <ele>322.2</ele>
        <time>2023-06-09T18:16:24Z</time>
      </trkpt>
      <trkpt lat="49.67748" lon="5.33026">
        <ele>322.2</ele>
        <time>2023-06-09T18:16:25Z</time>
      </trkpt>
      <trkpt lat="49.67715" lon="5.33049">
        <ele>321.2</ele>
        <time>2023-06-09T18:16:29Z</time>
      </trkpt>
      <trkpt lat="49.67701" lon="5.33059">
        <ele>321.2</ele>
        <time>2023-06-09T18:16:37Z</time>
      </trkpt>
      <trkpt lat="49.6768" lon="5.33077">
        <ele>319.8</ele>
        <time>2023-06-09T18:16:47Z</time>
      </trkpt>
      <trkpt lat="49.67661" lon="5.33097">
        <ele>316.4</ele>
        <time>2023-06-09T18:16:52Z</time>
      </trkpt>
      <trkpt lat="49.67648" lon="5.33119">
        <ele>313.1</ele>
        <time>2023-06-09T18:16:56Z</time>
      </trkpt>
      <trkpt lat="49.67629" lon="5.3315">
        <ele>315.4</ele>
        <time>2023-06-09T18:16:59Z</time>
      </trkpt>
      <trkpt lat="49.67584" lon="5.33226">
        <ele>315</ele>
        <time>2023-06-09T18:17:08Z</time>
      </trkpt>
      <trkpt lat="49.67544" lon="5.33276">
        <ele>311.6</ele>
        <time>2023-06-09T18:17:16Z</time>
      </trkpt>
      <trkpt lat="49.67534" lon="5.33286">
        <ele>310.6</ele>
        <time>2023-06-09T18:17:18Z</time>
      </trkpt>
      <trkpt lat="49.67529" lon="5.33291">
        <ele>310.2</ele>
        <time>2023-06-09T18:17:19Z</time>
      </trkpt>
      <trkpt lat="49.67524" lon="5.33296">
        <ele>309.7</ele>
        <time>2023-06-09T18:17:20Z</time>
      </trkpt>
      <trkpt lat="49.6752" lon="5.333">
        <ele>309.7</ele>
        <time>2023-06-09T18:17:21Z</time>
      </trkpt>
      <trkpt lat="49.67515" lon="5.33306">
        <ele>309.7</ele>
        <time>2023-06-09T18:17:22Z</time>
      </trkpt>
      <trkpt lat="49.67508" lon="5.33312">
        <ele>309.2</ele>
        <time>2023-06-09T18:17:23Z</time>
      </trkpt>
      <trkpt lat="49.67479" lon="5.33346">
        <ele>309.2</ele>
        <time>2023-06-09T18:17:27Z</time>
      </trkpt>
      <trkpt lat="49.67474" lon="5.33354">
        <ele>309.2</ele>
        <time>2023-06-09T18:17:28Z</time>
      </trkpt>
      <trkpt lat="49.6747" lon="5.33362">
        <ele>308.7</ele>
        <time>2023-06-09T18:17:29Z</time>
      </trkpt>
      <trkpt lat="49.67465" lon="5.3337">
        <ele>308.7</ele>
        <time>2023-06-09T18:17:30Z</time>
      </trkpt>
      <trkpt lat="49.67461" lon="5.33376">
        <ele>308.7</ele>
        <time>2023-06-09T18:17:31Z</time>
      </trkpt>
      <trkpt lat="49.67458" lon="5.33382">
        <ele>308.7</ele>
        <time>2023-06-09T18:17:32Z</time>
      </trkpt>
      <trkpt lat="49.67455" lon="5.33387">
        <ele>308.7</ele>
        <time>2023-06-09T18:17:33Z</time>
      </trkpt>
      <trkpt lat="49.67449" lon="5.33395">
        <ele>308.7</ele>
        <time>2023-06-09T18:17:34Z</time>
      </trkpt>
      <trkpt lat="49.67445" lon="5.33398">
        <ele>308.7</ele>
        <time>2023-06-09T18:17:35Z</time>
      </trkpt>
      <trkpt lat="49.6736" lon="5.33395">
        <ele>307.8</ele>
        <time>2023-06-09T18:17:45Z</time>
      </trkpt>
      <trkpt lat="49.67311" lon="5.3338">
        <ele>305.8</ele>
        <time>2023-06-09T18:17:52Z</time>
      </trkpt>
      <trkpt lat="49.67272" lon="5.33383">
        <ele>302</ele>
        <time>2023-06-09T18:17:57Z</time>
      </trkpt>
      <trkpt lat="49.67259" lon="5.33383">
        <ele>302</ele>
        <time>2023-06-09T18:17:58Z</time>
      </trkpt>
      <trkpt lat="49.67248" lon="5.33384">
        <ele>300.1</ele>
        <time>2023-06-09T18:18:01Z</time>
      </trkpt>
      <trkpt lat="49.67248" lon="5.33384">
        <ele>301</ele>
        <time>2023-06-09T18:18:26Z</time>
      </trkpt>
      <trkpt lat="49.67248" lon="5.33384">
        <ele>301</ele>
        <time>2023-06-09T18:19:59Z</time>
      </trkpt>
      <trkpt lat="49.67239" lon="5.33461">
        <ele>299.1</ele>
        <time>2023-06-09T18:20:07Z</time>
      </trkpt>
      <trkpt lat="49.67244" lon="5.33476">
        <ele>299.1</ele>
        <time>2023-06-09T18:20:08Z</time>
      </trkpt>
      <trkpt lat="49.6725" lon="5.33496">
        <ele>299.1</ele>
        <time>2023-06-09T18:20:09Z</time>
      </trkpt>
      <trkpt lat="49.67346" lon="5.33641">
        <ele>302</ele>
        <time>2023-06-09T18:20:18Z</time>
      </trkpt>
      <trkpt lat="49.67367" lon="5.3366">
        <ele>303.4</ele>
        <time>2023-06-09T18:20:21Z</time>
      </trkpt>
      <trkpt lat="49.67386" lon="5.33681">
        <ele>303.9</ele>
        <time>2023-06-09T18:20:22Z</time>
      </trkpt>
      <trkpt lat="49.67395" lon="5.33693">
        <ele>305.4</ele>
        <time>2023-06-09T18:20:24Z</time>
      </trkpt>
      <trkpt lat="49.67404" lon="5.33726">
        <ele>306.3</ele>
        <time>2023-06-09T18:20:26Z</time>
      </trkpt>
      <trkpt lat="49.67407" lon="5.33739">
        <ele>307.3</ele>
        <time>2023-06-09T18:20:27Z</time>
      </trkpt>
      <trkpt lat="49.6741" lon="5.33751">
        <ele>307.8</ele>
        <time>2023-06-09T18:20:28Z</time>
      </trkpt>
      <trkpt lat="49.6741" lon="5.33769">
        <ele>308.7</ele>
        <time>2023-06-09T18:20:29Z</time>
      </trkpt>
      <trkpt lat="49.67414" lon="5.33803">
        <ele>309.7</ele>
        <time>2023-06-09T18:20:30Z</time>
      </trkpt>
      <trkpt lat="49.6743" lon="5.33896">
        <ele>313.1</ele>
        <time>2023-06-09T18:20:36Z</time>
      </trkpt>
      <trkpt lat="49.67441" lon="5.33958">
        <ele>313.1</ele>
        <time>2023-06-09T18:20:40Z</time>
      </trkpt>
      <trkpt lat="49.67443" lon="5.33966">
        <ele>313.5</ele>
        <time>2023-06-09T18:20:41Z</time>
      </trkpt>
      <trkpt lat="49.67444" lon="5.33973">
        <ele>317.4</ele>
        <time>2023-06-09T18:20:43Z</time>
      </trkpt>
      <trkpt lat="49.67444" lon="5.33973">
        <ele>320.7</ele>
        <time>2023-06-09T18:20:46Z</time>
      </trkpt>
      <trkpt lat="49.67444" lon="5.33973">
        <ele>320.7</ele>
        <time>2023-06-09T18:20:47Z</time>
      </trkpt>
      <trkpt lat="49.67444" lon="5.33971">
        <ele>320.7</ele>
        <time>2023-06-09T18:20:48Z</time>
      </trkpt>
      <trkpt lat="49.67428" lon="5.33982">
        <ele>340.3</ele>
        <time>2023-06-09T18:20:49Z</time>
      </trkpt>
      <trkpt lat="49.67438" lon="5.33991">
        <ele>340</ele>
        <time>2023-06-09T18:20:50Z</time>
      </trkpt>
      <trkpt lat="49.67448" lon="5.34001">
        <ele>339.3</ele>
        <time>2023-06-09T18:20:51Z</time>
      </trkpt>
      <trkpt lat="49.67459" lon="5.34008">
        <ele>338.8</ele>
        <time>2023-06-09T18:20:51Z</time>
      </trkpt>
      <trkpt lat="49.67459" lon="5.34017">
        <ele>338.5</ele>
        <time>2023-06-09T18:20:52Z</time>
      </trkpt>
      <trkpt lat="49.67463" lon="5.34031">
        <ele>337.8</ele>
        <time>2023-06-09T18:20:52Z</time>
      </trkpt>
      <trkpt lat="49.67603" lon="5.34316">
        <ele>339.8</ele>
        <time>2023-06-09T18:21:07Z</time>
      </trkpt>
      <trkpt lat="49.67635" lon="5.34379">
        <ele>346.5</ele>
        <time>2023-06-09T18:21:10Z</time>
      </trkpt>
      <trkpt lat="49.67649" lon="5.34417">
        <ele>351.3</ele>
        <time>2023-06-09T18:21:12Z</time>
      </trkpt>
      <trkpt lat="49.67662" lon="5.34462">
        <ele>351.5</ele>
        <time>2023-06-09T18:21:14Z</time>
      </trkpt>
      <trkpt lat="49.67683" lon="5.34542">
        <ele>349.3</ele>
        <time>2023-06-09T18:21:18Z</time>
      </trkpt>
      <trkpt lat="49.67698" lon="5.34579">
        <ele>348.8</ele>
        <time>2023-06-09T18:21:20Z</time>
      </trkpt>
      <trkpt lat="49.6777" lon="5.34729">
        <ele>341.8</ele>
        <time>2023-06-09T18:21:27Z</time>
      </trkpt>
      <trkpt lat="49.67784" lon="5.34753">
        <ele>339.8</ele>
        <time>2023-06-09T18:21:29Z</time>
      </trkpt>
      <trkpt lat="49.67822" lon="5.34805">
        <ele>338</ele>
        <time>2023-06-09T18:21:32Z</time>
      </trkpt>
      <trkpt lat="49.67833" lon="5.34831">
        <ele>336</ele>
        <time>2023-06-09T18:21:33Z</time>
      </trkpt>
      <trkpt lat="49.67885" lon="5.34975">
        <ele>331</ele>
        <time>2023-06-09T18:21:40Z</time>
      </trkpt>
      <trkpt lat="49.67912" lon="5.35063">
        <ele>330.3</ele>
        <time>2023-06-09T18:21:44Z</time>
      </trkpt>
      <trkpt lat="49.67931" lon="5.35128">
        <ele>330.5</ele>
        <time>2023-06-09T18:21:47Z</time>
      </trkpt>
      <trkpt lat="49.68025" lon="5.35507">
        <ele>341.3</ele>
        <time>2023-06-09T18:22:04Z</time>
      </trkpt>
      <trkpt lat="49.68041" lon="5.35556">
        <ele>343</ele>
        <time>2023-06-09T18:22:06Z</time>
      </trkpt>
      <trkpt lat="49.68095" lon="5.35695">
        <ele>347</ele>
        <time>2023-06-09T18:22:13Z</time>
      </trkpt>
      <trkpt lat="49.68131" lon="5.35753">
        <ele>349</ele>
        <time>2023-06-09T18:22:16Z</time>
      </trkpt>
      <trkpt lat="49.68153" lon="5.35797">
        <ele>349.3</ele>
        <time>2023-06-09T18:22:18Z</time>
      </trkpt>
      <trkpt lat="49.68221" lon="5.36011">
        <ele>355.3</ele>
        <time>2023-06-09T18:22:28Z</time>
      </trkpt>
      <trkpt lat="49.68228" lon="5.36027">
        <ele>355.3</ele>
        <time>2023-06-09T18:22:29Z</time>
      </trkpt>
      <trkpt lat="49.68132" lon="5.36131">
        <ele>354.5</ele>
        <time>2023-06-09T18:22:36Z</time>
      </trkpt>
      <trkpt lat="49.68028" lon="5.36248">
        <ele>354.3</ele>
        <time>2023-06-09T18:23:05Z</time>
      </trkpt>
      <trkpt lat="49.67916" lon="5.36745">
        <ele>347.3</ele>
        <time>2023-06-09T18:26:15Z</time>
      </trkpt>
      <trkpt lat="49.6789" lon="5.36733">
        <ele>348</ele>
        <time>2023-06-09T18:26:21Z</time>
      </trkpt>
      <trkpt lat="49.6774" lon="5.36634">
        <ele>339.8</ele>
        <time>2023-06-09T18:26:47Z</time>
      </trkpt>
      <trkpt lat="49.67695" lon="5.36604">
        <ele>336.8</ele>
        <time>2023-06-09T18:26:55Z</time>
      </trkpt>
      <trkpt lat="49.6764" lon="5.36554">
        <ele>338.5</ele>
        <time>2023-06-09T18:27:05Z</time>
      </trkpt>
      <trkpt lat="49.67598" lon="5.36511">
        <ele>336.3</ele>
        <time>2023-06-09T18:27:09Z</time>
      </trkpt>
      <trkpt lat="49.67491" lon="5.3641">
        <ele>319.5</ele>
        <time>2023-06-09T18:27:17Z</time>
      </trkpt>
      <trkpt lat="49.6747" lon="5.36395">
        <ele>318.8</ele>
        <time>2023-06-09T18:27:18Z</time>
      </trkpt>
      <trkpt lat="49.67452" lon="5.36385">
        <ele>317.8</ele>
        <time>2023-06-09T18:27:19Z</time>
      </trkpt>
      <trkpt lat="49.67432" lon="5.36382">
        <ele>317</ele>
        <time>2023-06-09T18:27:20Z</time>
      </trkpt>
      <trkpt lat="49.67414" lon="5.36382">
        <ele>316.3</ele>
        <time>2023-06-09T18:27:22Z</time>
      </trkpt>
      <trkpt lat="49.67389" lon="5.3639">
        <ele>314</ele>
        <time>2023-06-09T18:27:23Z</time>
      </trkpt>
      <trkpt lat="49.67374" lon="5.36395">
        <ele>312.8</ele>
        <time>2023-06-09T18:27:24Z</time>
      </trkpt>
      <trkpt lat="49.67356" lon="5.36408">
        <ele>310.3</ele>
        <time>2023-06-09T18:27:26Z</time>
      </trkpt>
      <trkpt lat="49.67322" lon="5.36446">
        <ele>308.5</ele>
        <time>2023-06-09T18:27:28Z</time>
      </trkpt>
      <trkpt lat="49.67255" lon="5.36526">
        <ele>302</ele>
        <time>2023-06-09T18:27:34Z</time>
      </trkpt>
      <trkpt lat="49.67232" lon="5.36549">
        <ele>300.5</ele>
        <time>2023-06-09T18:27:35Z</time>
      </trkpt>
      <trkpt lat="49.67219" lon="5.36561">
        <ele>299</ele>
        <time>2023-06-09T18:27:36Z</time>
      </trkpt>
      <trkpt lat="49.6719" lon="5.36573">
        <ele>293.8</ele>
        <time>2023-06-09T18:27:38Z</time>
      </trkpt>
      <trkpt lat="49.67138" lon="5.36581">
        <ele>287.8</ele>
        <time>2023-06-09T18:27:42Z</time>
      </trkpt>
      <trkpt lat="49.67089" lon="5.36586">
        <ele>285.3</ele>
        <time>2023-06-09T18:27:45Z</time>
      </trkpt>
      <trkpt lat="49.67043" lon="5.36587">
        <ele>285</ele>
        <time>2023-06-09T18:27:48Z</time>
      </trkpt>
      <trkpt lat="49.67012" lon="5.36586">
        <ele>284.8</ele>
        <time>2023-06-09T18:27:50Z</time>
      </trkpt>
      <trkpt lat="49.66994" lon="5.36587">
        <ele>284.8</ele>
        <time>2023-06-09T18:27:51Z</time>
      </trkpt>
      <trkpt lat="49.66979" lon="5.36588">
        <ele>284.3</ele>
        <time>2023-06-09T18:27:52Z</time>
      </trkpt>
      <trkpt lat="49.66959" lon="5.36594">
        <ele>283.8</ele>
        <time>2023-06-09T18:27:53Z</time>
      </trkpt>
      <trkpt lat="49.66909" lon="5.36611">
        <ele>281.3</ele>
        <time>2023-06-09T18:27:56Z</time>
      </trkpt>
      <trkpt lat="49.66886" lon="5.36615">
        <ele>280.5</ele>
        <time>2023-06-09T18:27:58Z</time>
      </trkpt>
      <trkpt lat="49.66854" lon="5.36616">
        <ele>280.3</ele>
        <time>2023-06-09T18:28:00Z</time>
      </trkpt>
      <trkpt lat="49.66735" lon="5.36604">
        <ele>277</ele>
        <time>2023-06-09T18:28:07Z</time>
      </trkpt>
      <trkpt lat="49.66699" lon="5.36594">
        <ele>275</ele>
        <time>2023-06-09T18:28:10Z</time>
      </trkpt>
      <trkpt lat="49.66677" lon="5.3658">
        <ele>274.3</ele>
        <time>2023-06-09T18:28:11Z</time>
      </trkpt>
      <trkpt lat="49.66501" lon="5.3641">
        <ele>265.5</ele>
        <time>2023-06-09T18:28:25Z</time>
      </trkpt>
      <trkpt lat="49.66438" lon="5.3634">
        <ele>262.8</ele>
        <time>2023-06-09T18:28:29Z</time>
      </trkpt>
      <trkpt lat="49.6643" lon="5.36329">
        <ele>262.5</ele>
        <time>2023-06-09T18:28:30Z</time>
      </trkpt>
      <trkpt lat="49.66418" lon="5.36322">
        <ele>261.8</ele>
        <time>2023-06-09T18:28:31Z</time>
      </trkpt>
      <trkpt lat="49.66409" lon="5.36319">
        <ele>261.8</ele>
        <time>2023-06-09T18:28:32Z</time>
      </trkpt>
      <trkpt lat="49.6631" lon="5.36309">
        <ele>262.3</ele>
        <time>2023-06-09T18:28:38Z</time>
      </trkpt>
      <trkpt lat="49.66295" lon="5.36308">
        <ele>262.3</ele>
        <time>2023-06-09T18:28:39Z</time>
      </trkpt>
      <trkpt lat="49.6628" lon="5.36308">
        <ele>262.3</ele>
        <time>2023-06-09T18:28:40Z</time>
      </trkpt>
      <trkpt lat="49.66266" lon="5.36311">
        <ele>261.5</ele>
        <time>2023-06-09T18:28:41Z</time>
      </trkpt>
      <trkpt lat="49.66187" lon="5.36336">
        <ele>259.8</ele>
        <time>2023-06-09T18:28:46Z</time>
      </trkpt>
      <trkpt lat="49.66068" lon="5.36375">
        <ele>264.3</ele>
        <time>2023-06-09T18:28:54Z</time>
      </trkpt>
      <trkpt lat="49.66019" lon="5.36394">
        <ele>261.8</ele>
        <time>2023-06-09T18:28:57Z</time>
      </trkpt>
      <trkpt lat="49.65988" lon="5.36413">
        <ele>258.5</ele>
        <time>2023-06-09T18:28:59Z</time>
      </trkpt>
      <trkpt lat="49.65928" lon="5.3645">
        <ele>257</ele>
        <time>2023-06-09T18:29:03Z</time>
      </trkpt>
      <trkpt lat="49.65919" lon="5.36455">
        <ele>257</ele>
        <time>2023-06-09T18:29:04Z</time>
      </trkpt>
      <trkpt lat="49.65907" lon="5.36456">
        <ele>256.3</ele>
        <time>2023-06-09T18:29:04Z</time>
      </trkpt>
      <trkpt lat="49.65896" lon="5.36451">
        <ele>255.8</ele>
        <time>2023-06-09T18:29:05Z</time>
      </trkpt>
      <trkpt lat="49.65877" lon="5.36439">
        <ele>255.3</ele>
        <time>2023-06-09T18:29:06Z</time>
      </trkpt>
      <trkpt lat="49.65814" lon="5.364">
        <ele>254</ele>
        <time>2023-06-09T18:29:11Z</time>
      </trkpt>
      <trkpt lat="49.6572" lon="5.36332">
        <ele>248.8</ele>
        <time>2023-06-09T18:29:17Z</time>
      </trkpt>
      <trkpt lat="49.65694" lon="5.3631">
        <ele>248.5</ele>
        <time>2023-06-09T18:29:19Z</time>
      </trkpt>
      <trkpt lat="49.65671" lon="5.36286">
        <ele>247</ele>
        <time>2023-06-09T18:29:21Z</time>
      </trkpt>
      <trkpt lat="49.6561" lon="5.36219">
        <ele>249</ele>
        <time>2023-06-09T18:29:26Z</time>
      </trkpt>
      <trkpt lat="49.6555" lon="5.3617">
        <ele>247.3</ele>
        <time>2023-06-09T18:29:30Z</time>
      </trkpt>
      <trkpt lat="49.65519" lon="5.36143">
        <ele>246.5</ele>
        <time>2023-06-09T18:29:32Z</time>
      </trkpt>
      <trkpt lat="49.65489" lon="5.36116">
        <ele>244.5</ele>
        <time>2023-06-09T18:29:35Z</time>
      </trkpt>
      <trkpt lat="49.65472" lon="5.36099">
        <ele>243</ele>
        <time>2023-06-09T18:29:36Z</time>
      </trkpt>
      <trkpt lat="49.65461" lon="5.36078">
        <ele>241.8</ele>
        <time>2023-06-09T18:29:37Z</time>
      </trkpt>
      <trkpt lat="49.6545" lon="5.36051">
        <ele>241.3</ele>
        <time>2023-06-09T18:29:38Z</time>
      </trkpt>
      <trkpt lat="49.65425" lon="5.35972">
        <ele>240.5</ele>
        <time>2023-06-09T18:29:42Z</time>
      </trkpt>
      <trkpt lat="49.6542" lon="5.35962">
        <ele>240.5</ele>
        <time>2023-06-09T18:29:43Z</time>
      </trkpt>
      <trkpt lat="49.65415" lon="5.35954">
        <ele>240.3</ele>
        <time>2023-06-09T18:29:43Z</time>
      </trkpt>
      <trkpt lat="49.65408" lon="5.35948">
        <ele>240.5</ele>
        <time>2023-06-09T18:29:43Z</time>
      </trkpt>
      <trkpt lat="49.654" lon="5.35945">
        <ele>240.8</ele>
        <time>2023-06-09T18:29:44Z</time>
      </trkpt>
      <trkpt lat="49.65393" lon="5.35944">
        <ele>240.8</ele>
        <time>2023-06-09T18:29:44Z</time>
      </trkpt>
      <trkpt lat="49.65384" lon="5.35945">
        <ele>240.3</ele>
        <time>2023-06-09T18:29:45Z</time>
      </trkpt>
      <trkpt lat="49.65239" lon="5.35972">
        <ele>238.3</ele>
        <time>2023-06-09T18:29:54Z</time>
      </trkpt>
      <trkpt lat="49.65118" lon="5.35981">
        <ele>236.8</ele>
        <time>2023-06-09T18:30:02Z</time>
      </trkpt>
      <trkpt lat="49.65085" lon="5.35985">
        <ele>234.8</ele>
        <time>2023-06-09T18:30:04Z</time>
      </trkpt>
      <trkpt lat="49.64991" lon="5.36002">
        <ele>231.8</ele>
        <time>2023-06-09T18:30:10Z</time>
      </trkpt>
      <trkpt lat="49.64958" lon="5.36006">
        <ele>231.3</ele>
        <time>2023-06-09T18:30:12Z</time>
      </trkpt>
      <trkpt lat="49.6493" lon="5.36005">
        <ele>231.3</ele>
        <time>2023-06-09T18:30:14Z</time>
      </trkpt>
      <trkpt lat="49.64908" lon="5.36002">
        <ele>231.8</ele>
        <time>2023-06-09T18:30:16Z</time>
      </trkpt>
      <trkpt lat="49.64823" lon="5.35984">
        <ele>236.3</ele>
        <time>2023-06-09T18:30:21Z</time>
      </trkpt>
      <trkpt lat="49.64793" lon="5.35976">
        <ele>235.3</ele>
        <time>2023-06-09T18:30:23Z</time>
      </trkpt>
      <trkpt lat="49.64771" lon="5.35966">
        <ele>234.3</ele>
        <time>2023-06-09T18:30:24Z</time>
      </trkpt>
      <trkpt lat="49.64758" lon="5.35957">
        <ele>233.5</ele>
        <time>2023-06-09T18:30:25Z</time>
      </trkpt>
      <trkpt lat="49.64745" lon="5.35942">
        <ele>233.5</ele>
        <time>2023-06-09T18:30:26Z</time>
      </trkpt>
      <trkpt lat="49.64732" lon="5.35919">
        <ele>234</ele>
        <time>2023-06-09T18:30:28Z</time>
      </trkpt>
      <trkpt lat="49.64652" lon="5.35736">
        <ele>235.5</ele>
        <time>2023-06-09T18:30:37Z</time>
      </trkpt>
      <trkpt lat="49.64634" lon="5.3569">
        <ele>234.8</ele>
        <time>2023-06-09T18:30:39Z</time>
      </trkpt>
      <trkpt lat="49.64612" lon="5.3563">
        <ele>231.5</ele>
        <time>2023-06-09T18:30:42Z</time>
      </trkpt>
      <trkpt lat="49.64606" lon="5.35619">
        <ele>230.3</ele>
        <time>2023-06-09T18:30:42Z</time>
      </trkpt>
      <trkpt lat="49.646" lon="5.35613">
        <ele>228.8</ele>
        <time>2023-06-09T18:30:43Z</time>
      </trkpt>
      <trkpt lat="49.64592" lon="5.35611">
        <ele>226.5</ele>
        <time>2023-06-09T18:30:43Z</time>
      </trkpt>
      <trkpt lat="49.64584" lon="5.35613">
        <ele>224</ele>
        <time>2023-06-09T18:30:44Z</time>
      </trkpt>
      <trkpt lat="49.64574" lon="5.35621">
        <ele>224.5</ele>
        <time>2023-06-09T18:30:45Z</time>
      </trkpt>
      <trkpt lat="49.64553" lon="5.35638">
        <ele>226.5</ele>
        <time>2023-06-09T18:30:46Z</time>
      </trkpt>
      <trkpt lat="49.64545" lon="5.35642">
        <ele>227.5</ele>
        <time>2023-06-09T18:30:47Z</time>
      </trkpt>
      <trkpt lat="49.64541" lon="5.35642">
        <ele>228</ele>
        <time>2023-06-09T18:30:47Z</time>
      </trkpt>
      <trkpt lat="49.64534" lon="5.35638">
        <ele>229</ele>
        <time>2023-06-09T18:30:47Z</time>
      </trkpt>
      <trkpt lat="49.6453" lon="5.35631">
        <ele>229.3</ele>
        <time>2023-06-09T18:30:48Z</time>
      </trkpt>
      <trkpt lat="49.64519" lon="5.35594">
        <ele>229.3</ele>
        <time>2023-06-09T18:30:49Z</time>
      </trkpt>
      <trkpt lat="49.64507" lon="5.35561">
        <ele>228.8</ele>
        <time>2023-06-09T18:30:51Z</time>
      </trkpt>
      <trkpt lat="49.64488" lon="5.35524">
        <ele>230.3</ele>
        <time>2023-06-09T18:30:53Z</time>
      </trkpt>
      <trkpt lat="49.6447" lon="5.35497">
        <ele>232.5</ele>
        <time>2023-06-09T18:30:55Z</time>
      </trkpt>
      <trkpt lat="49.6445" lon="5.35471">
        <ele>234.5</ele>
        <time>2023-06-09T18:30:56Z</time>
      </trkpt>
      <trkpt lat="49.64431" lon="5.35454">
        <ele>235.3</ele>
        <time>2023-06-09T18:30:58Z</time>
      </trkpt>
      <trkpt lat="49.64246" lon="5.35353">
        <ele>247.5</ele>
        <time>2023-06-09T18:31:10Z</time>
      </trkpt>
      <trkpt lat="49.64103" lon="5.35248">
        <ele>241.8</ele>
        <time>2023-06-09T18:31:20Z</time>
      </trkpt>
      <trkpt lat="49.64021" lon="5.35204">
        <ele>238.5</ele>
        <time>2023-06-09T18:31:26Z</time>
      </trkpt>
      <trkpt lat="49.6388" lon="5.3505">
        <ele>225.3</ele>
        <time>2023-06-09T18:31:37Z</time>
      </trkpt>
      <trkpt lat="49.63842" lon="5.35009">
        <ele>222.8</ele>
        <time>2023-06-09T18:31:40Z</time>
      </trkpt>
      <trkpt lat="49.63836" lon="5.35002">
        <ele>222</ele>
        <time>2023-06-09T18:31:40Z</time>
      </trkpt>
      <trkpt lat="49.63832" lon="5.34995">
        <ele>221.5</ele>
        <time>2023-06-09T18:31:41Z</time>
      </trkpt>
      <trkpt lat="49.6383" lon="5.34987">
        <ele>221</ele>
        <time>2023-06-09T18:31:41Z</time>
      </trkpt>
      <trkpt lat="49.63828" lon="5.34979">
        <ele>220.5</ele>
        <time>2023-06-09T18:31:41Z</time>
      </trkpt>
      <trkpt lat="49.63826" lon="5.3497">
        <ele>219.5</ele>
        <time>2023-06-09T18:31:42Z</time>
      </trkpt>
      <trkpt lat="49.63827" lon="5.34962">
        <ele>218.5</ele>
        <time>2023-06-09T18:31:42Z</time>
      </trkpt>
      <trkpt lat="49.6384" lon="5.34883">
        <ele>212.3</ele>
        <time>2023-06-09T18:31:45Z</time>
      </trkpt>
      <trkpt lat="49.63848" lon="5.34833">
        <ele>212</ele>
        <time>2023-06-09T18:31:48Z</time>
      </trkpt>
      <trkpt lat="49.63849" lon="5.34824">
        <ele>213.5</ele>
        <time>2023-06-09T18:31:48Z</time>
      </trkpt>
      <trkpt lat="49.63848" lon="5.34815">
        <ele>215</ele>
        <time>2023-06-09T18:31:48Z</time>
      </trkpt>
      <trkpt lat="49.63846" lon="5.34808">
        <ele>216.5</ele>
        <time>2023-06-09T18:31:49Z</time>
      </trkpt>
      <trkpt lat="49.63842" lon="5.34801">
        <ele>217.5</ele>
        <time>2023-06-09T18:31:49Z</time>
      </trkpt>
      <trkpt lat="49.63838" lon="5.34797">
        <ele>218.3</ele>
        <time>2023-06-09T18:31:49Z</time>
      </trkpt>
      <trkpt lat="49.6383" lon="5.34793">
        <ele>219</ele>
        <time>2023-06-09T18:31:50Z</time>
      </trkpt>
      <trkpt lat="49.63663" lon="5.34716">
        <ele>220</ele>
        <time>2023-06-09T18:32:27Z</time>
      </trkpt>
      <trkpt lat="49.6362" lon="5.34691">
        <ele>220.3</ele>
        <time>2023-06-09T18:32:36Z</time>
      </trkpt>
      <trkpt lat="49.63536" lon="5.34641">
        <ele>216.8</ele>
        <time>2023-06-09T18:32:55Z</time>
      </trkpt>
      <trkpt lat="49.63487" lon="5.34608">
        <ele>212.8</ele>
        <time>2023-06-09T18:33:07Z</time>
      </trkpt>
      <trkpt lat="49.6347" lon="5.34593">
        <ele>211.5</ele>
        <time>2023-06-09T18:33:11Z</time>
      </trkpt>
      <trkpt lat="49.63459" lon="5.34582">
        <ele>210.5</ele>
        <time>2023-06-09T18:33:14Z</time>
      </trkpt>
      <trkpt lat="49.6347" lon="5.34593">
        <ele>211.5</ele>
        <time>2023-06-09T18:33:18Z</time>
      </trkpt>
      <trkpt lat="49.63487" lon="5.34608">
        <ele>212.8</ele>
        <time>2023-06-09T18:33:23Z</time>
      </trkpt>
      <trkpt lat="49.63536" lon="5.34641">
        <ele>216.8</ele>
        <time>2023-06-09T18:33:38Z</time>
      </trkpt>
      <trkpt lat="49.6362" lon="5.34691">
        <ele>220.3</ele>
        <time>2023-06-09T18:34:03Z</time>
      </trkpt>
      <trkpt lat="49.63663" lon="5.34716">
        <ele>220</ele>
        <time>2023-06-09T18:34:15Z</time>
      </trkpt>
      <trkpt lat="49.6383" lon="5.34793">
        <ele>219</ele>
        <time>2023-06-09T18:35:03Z</time>
      </trkpt>
      <trkpt lat="49.63838" lon="5.34797">
        <ele>218.3</ele>
        <time>2023-06-09T18:35:06Z</time>
      </trkpt>
      <trkpt lat="49.63842" lon="5.34801">
        <ele>217.5</ele>
        <time>2023-06-09T18:35:07Z</time>
      </trkpt>
      <trkpt lat="49.63846" lon="5.34808">
        <ele>216.5</ele>
        <time>2023-06-09T18:35:09Z</time>
      </trkpt>
      <trkpt lat="49.63848" lon="5.34815">
        <ele>215</ele>
        <time>2023-06-09T18:35:10Z</time>
      </trkpt>
      <trkpt lat="49.63849" lon="5.34824">
        <ele>213.5</ele>
        <time>2023-06-09T18:35:12Z</time>
      </trkpt>
      <trkpt lat="49.63848" lon="5.34833">
        <ele>212</ele>
        <time>2023-06-09T18:35:13Z</time>
      </trkpt>
      <trkpt lat="49.6384" lon="5.34883">
        <ele>212.3</ele>
        <time>2023-06-09T18:35:23Z</time>
      </trkpt>
      <trkpt lat="49.63827" lon="5.34962">
        <ele>218.5</ele>
        <time>2023-06-09T18:35:37Z</time>
      </trkpt>
      <trkpt lat="49.63826" lon="5.3497">
        <ele>219.5</ele>
        <time>2023-06-09T18:35:39Z</time>
      </trkpt>
      <trkpt lat="49.63828" lon="5.34979">
        <ele>220.5</ele>
        <time>2023-06-09T18:35:40Z</time>
      </trkpt>
      <trkpt lat="49.6383" lon="5.34987">
        <ele>221</ele>
        <time>2023-06-09T18:35:42Z</time>
      </trkpt>
      <trkpt lat="49.63832" lon="5.34995">
        <ele>221.5</ele>
        <time>2023-06-09T18:35:43Z</time>
      </trkpt>
      <trkpt lat="49.63836" lon="5.35002">
        <ele>222</ele>
        <time>2023-06-09T18:35:45Z</time>
      </trkpt>
      <trkpt lat="49.63842" lon="5.35009">
        <ele>222.8</ele>
        <time>2023-06-09T18:35:47Z</time>
      </trkpt>
      <trkpt lat="49.6388" lon="5.3505">
        <ele>225.3</ele>
        <time>2023-06-09T18:36:00Z</time>
      </trkpt>
      <trkpt lat="49.64021" lon="5.35204">
        <ele>238.5</ele>
        <time>2023-06-09T18:36:47Z</time>
      </trkpt>
      <trkpt lat="49.64103" lon="5.35248">
        <ele>241.8</ele>
        <time>2023-06-09T18:37:11Z</time>
      </trkpt>
      <trkpt lat="49.64246" lon="5.35353">
        <ele>247.5</ele>
        <time>2023-06-09T18:37:55Z</time>
      </trkpt>
      <trkpt lat="49.64431" lon="5.35454">
        <ele>235.3</ele>
        <time>2023-06-09T18:38:49Z</time>
      </trkpt>
      <trkpt lat="49.6445" lon="5.35471">
        <ele>234.5</ele>
        <time>2023-06-09T18:38:55Z</time>
      </trkpt>
      <trkpt lat="49.6447" lon="5.35497">
        <ele>232.5</ele>
        <time>2023-06-09T18:39:02Z</time>
      </trkpt>
      <trkpt lat="49.64488" lon="5.35524">
        <ele>230.3</ele>
        <time>2023-06-09T18:39:09Z</time>
      </trkpt>
      <trkpt lat="49.64507" lon="5.35561">
        <ele>228.8</ele>
        <time>2023-06-09T18:39:18Z</time>
      </trkpt>
      <trkpt lat="49.64519" lon="5.35594">
        <ele>229.3</ele>
        <time>2023-06-09T18:39:24Z</time>
      </trkpt>
      <trkpt lat="49.6453" lon="5.35631">
        <ele>229.3</ele>
        <time>2023-06-09T18:39:32Z</time>
      </trkpt>
      <trkpt lat="49.64534" lon="5.35638">
        <ele>229</ele>
        <time>2023-06-09T18:39:33Z</time>
      </trkpt>
      <trkpt lat="49.64541" lon="5.35642">
        <ele>228</ele>
        <time>2023-06-09T18:39:36Z</time>
      </trkpt>
      <trkpt lat="49.64545" lon="5.35642">
        <ele>227.5</ele>
        <time>2023-06-09T18:39:37Z</time>
      </trkpt>
      <trkpt lat="49.64553" lon="5.35638">
        <ele>226.5</ele>
        <time>2023-06-09T18:39:39Z</time>
      </trkpt>
      <trkpt lat="49.64574" lon="5.35621">
        <ele>224.5</ele>
        <time>2023-06-09T18:39:45Z</time>
      </trkpt>
      <trkpt lat="49.64584" lon="5.35613">
        <ele>224</ele>
        <time>2023-06-09T18:39:49Z</time>
      </trkpt>
      <trkpt lat="49.64592" lon="5.35611">
        <ele>226.5</ele>
        <time>2023-06-09T18:39:51Z</time>
      </trkpt>
      <trkpt lat="49.646" lon="5.35613">
        <ele>228.8</ele>
        <time>2023-06-09T18:39:53Z</time>
      </trkpt>
      <trkpt lat="49.64606" lon="5.35619">
        <ele>230.3</ele>
        <time>2023-06-09T18:39:55Z</time>
      </trkpt>
      <trkpt lat="49.64612" lon="5.3563">
        <ele>231.5</ele>
        <time>2023-06-09T18:39:58Z</time>
      </trkpt>
      <trkpt lat="49.64634" lon="5.3569">
        <ele>234.8</ele>
        <time>2023-06-09T18:40:10Z</time>
      </trkpt>
      <trkpt lat="49.64652" lon="5.35736">
        <ele>235.5</ele>
        <time>2023-06-09T18:40:19Z</time>
      </trkpt>
      <trkpt lat="49.64732" lon="5.35919">
        <ele>234</ele>
        <time>2023-06-09T18:40:59Z</time>
      </trkpt>
      <trkpt lat="49.64745" lon="5.35942">
        <ele>233.5</ele>
        <time>2023-06-09T18:41:04Z</time>
      </trkpt>
      <trkpt lat="49.64758" lon="5.35957">
        <ele>233.5</ele>
        <time>2023-06-09T18:41:09Z</time>
      </trkpt>
      <trkpt lat="49.64771" lon="5.35966">
        <ele>234.3</ele>
        <time>2023-06-09T18:41:13Z</time>
      </trkpt>
      <trkpt lat="49.64793" lon="5.35976">
        <ele>235.3</ele>
        <time>2023-06-09T18:41:19Z</time>
      </trkpt>
      <trkpt lat="49.64823" lon="5.35984">
        <ele>236.3</ele>
        <time>2023-06-09T18:41:27Z</time>
      </trkpt>
      <trkpt lat="49.64908" lon="5.36002">
        <ele>231.8</ele>
        <time>2023-06-09T18:41:51Z</time>
      </trkpt>
      <trkpt lat="49.6493" lon="5.36005">
        <ele>231.3</ele>
        <time>2023-06-09T18:41:57Z</time>
      </trkpt>
      <trkpt lat="49.64958" lon="5.36006">
        <ele>231.3</ele>
        <time>2023-06-09T18:42:05Z</time>
      </trkpt>
      <trkpt lat="49.64991" lon="5.36002">
        <ele>231.8</ele>
        <time>2023-06-09T18:42:14Z</time>
      </trkpt>
      <trkpt lat="49.65085" lon="5.35985">
        <ele>234.8</ele>
        <time>2023-06-09T18:42:40Z</time>
      </trkpt>
      <trkpt lat="49.65118" lon="5.35981">
        <ele>236.8</ele>
        <time>2023-06-09T18:42:49Z</time>
      </trkpt>
      <trkpt lat="49.65239" lon="5.35972">
        <ele>238.3</ele>
        <time>2023-06-09T18:43:23Z</time>
      </trkpt>
      <trkpt lat="49.65384" lon="5.35945">
        <ele>240.3</ele>
        <time>2023-06-09T18:44:03Z</time>
      </trkpt>
      <trkpt lat="49.65393" lon="5.35944">
        <ele>240.8</ele>
        <time>2023-06-09T18:44:05Z</time>
      </trkpt>
      <trkpt lat="49.654" lon="5.35945">
        <ele>240.8</ele>
        <time>2023-06-09T18:44:07Z</time>
      </trkpt>
      <trkpt lat="49.65408" lon="5.35948">
        <ele>240.5</ele>
        <time>2023-06-09T18:44:09Z</time>
      </trkpt>
      <trkpt lat="49.65415" lon="5.35954">
        <ele>240.3</ele>
        <time>2023-06-09T18:44:12Z</time>
      </trkpt>
      <trkpt lat="49.6542" lon="5.35962">
        <ele>240.5</ele>
        <time>2023-06-09T18:44:14Z</time>
      </trkpt>
      <trkpt lat="49.65425" lon="5.35972">
        <ele>240.5</ele>
        <time>2023-06-09T18:44:16Z</time>
      </trkpt>
      <trkpt lat="49.6545" lon="5.36051">
        <ele>241.3</ele>
        <time>2023-06-09T18:44:32Z</time>
      </trkpt>
      <trkpt lat="49.65461" lon="5.36078">
        <ele>241.8</ele>
        <time>2023-06-09T18:44:37Z</time>
      </trkpt>
      <trkpt lat="49.65472" lon="5.36099">
        <ele>243</ele>
        <time>2023-06-09T18:44:42Z</time>
      </trkpt>
      <trkpt lat="49.65489" lon="5.36116">
        <ele>244.5</ele>
        <time>2023-06-09T18:44:48Z</time>
      </trkpt>
      <trkpt lat="49.65519" lon="5.36143">
        <ele>246.5</ele>
        <time>2023-06-09T18:44:57Z</time>
      </trkpt>
      <trkpt lat="49.6555" lon="5.3617">
        <ele>247.3</ele>
        <time>2023-06-09T18:45:07Z</time>
      </trkpt>
      <trkpt lat="49.6561" lon="5.36219">
        <ele>249</ele>
        <time>2023-06-09T18:45:26Z</time>
      </trkpt>
      <trkpt lat="49.65671" lon="5.36286">
        <ele>247</ele>
        <time>2023-06-09T18:45:46Z</time>
      </trkpt>
      <trkpt lat="49.65694" lon="5.3631">
        <ele>248.5</ele>
        <time>2023-06-09T18:45:54Z</time>
      </trkpt>
      <trkpt lat="49.6572" lon="5.36332">
        <ele>248.8</ele>
        <time>2023-06-09T18:46:02Z</time>
      </trkpt>
      <trkpt lat="49.65814" lon="5.364">
        <ele>254</ele>
        <time>2023-06-09T18:46:31Z</time>
      </trkpt>
      <trkpt lat="49.65877" lon="5.36439">
        <ele>255.3</ele>
        <time>2023-06-09T18:46:50Z</time>
      </trkpt>
      <trkpt lat="49.65896" lon="5.36451">
        <ele>255.8</ele>
        <time>2023-06-09T18:46:55Z</time>
      </trkpt>
      <trkpt lat="49.65907" lon="5.36456">
        <ele>256.3</ele>
        <time>2023-06-09T18:46:58Z</time>
      </trkpt>
      <trkpt lat="49.65919" lon="5.36455">
        <ele>257</ele>
        <time>2023-06-09T18:47:02Z</time>
      </trkpt>
      <trkpt lat="49.65928" lon="5.3645">
        <ele>257</ele>
        <time>2023-06-09T18:47:04Z</time>
      </trkpt>
      <trkpt lat="49.65988" lon="5.36413">
        <ele>258.5</ele>
        <time>2023-06-09T18:47:22Z</time>
      </trkpt>
      <trkpt lat="49.66019" lon="5.36394">
        <ele>261.8</ele>
        <time>2023-06-09T18:47:31Z</time>
      </trkpt>
      <trkpt lat="49.66068" lon="5.36375">
        <ele>264.3</ele>
        <time>2023-06-09T18:47:45Z</time>
      </trkpt>
      <trkpt lat="49.66187" lon="5.36336">
        <ele>259.8</ele>
        <time>2023-06-09T18:48:19Z</time>
      </trkpt>
      <trkpt lat="49.66266" lon="5.36311">
        <ele>261.5</ele>
        <time>2023-06-09T18:48:41Z</time>
      </trkpt>
      <trkpt lat="49.6628" lon="5.36308">
        <ele>262.3</ele>
        <time>2023-06-09T18:48:44Z</time>
      </trkpt>
      <trkpt lat="49.66295" lon="5.36308">
        <ele>262.3</ele>
        <time>2023-06-09T18:48:48Z</time>
      </trkpt>
      <trkpt lat="49.6631" lon="5.36309">
        <ele>262.3</ele>
        <time>2023-06-09T18:48:52Z</time>
      </trkpt>
      <trkpt lat="49.66409" lon="5.36319">
        <ele>261.8</ele>
        <time>2023-06-09T18:49:17Z</time>
      </trkpt>
      <trkpt lat="49.66418" lon="5.36322">
        <ele>261.8</ele>
        <time>2023-06-09T18:49:19Z</time>
      </trkpt>
      <trkpt lat="49.6643" lon="5.36329">
        <ele>262.5</ele>
        <time>2023-06-09T18:49:22Z</time>
      </trkpt>
      <trkpt lat="49.66438" lon="5.3634">
        <ele>262.8</ele>
        <time>2023-06-09T18:49:25Z</time>
      </trkpt>
      <trkpt lat="49.66501" lon="5.3641">
        <ele>265.5</ele>
        <time>2023-06-09T18:49:44Z</time>
      </trkpt>
      <trkpt lat="49.66677" lon="5.3658">
        <ele>274.3</ele>
        <time>2023-06-09T18:50:36Z</time>
      </trkpt>
      <trkpt lat="49.66699" lon="5.36594">
        <ele>275</ele>
        <time>2023-06-09T18:50:42Z</time>
      </trkpt>
      <trkpt lat="49.66735" lon="5.36604">
        <ele>277</ele>
        <time>2023-06-09T18:50:51Z</time>
      </trkpt>
      <trkpt lat="49.66854" lon="5.36616">
        <ele>280.3</ele>
        <time>2023-06-09T18:51:21Z</time>
      </trkpt>
      <trkpt lat="49.66886" lon="5.36615">
        <ele>280.5</ele>
        <time>2023-06-09T18:51:29Z</time>
      </trkpt>
      <trkpt lat="49.66909" lon="5.36611">
        <ele>281.3</ele>
        <time>2023-06-09T18:51:35Z</time>
      </trkpt>
      <trkpt lat="49.66959" lon="5.36594">
        <ele>283.8</ele>
        <time>2023-06-09T18:51:47Z</time>
      </trkpt>
      <trkpt lat="49.66979" lon="5.36588">
        <ele>284.3</ele>
        <time>2023-06-09T18:51:52Z</time>
      </trkpt>
      <trkpt lat="49.66994" lon="5.36587">
        <ele>284.8</ele>
        <time>2023-06-09T18:51:56Z</time>
      </trkpt>
      <trkpt lat="49.67012" lon="5.36586">
        <ele>284.8</ele>
        <time>2023-06-09T18:52:01Z</time>
      </trkpt>
      <trkpt lat="49.67043" lon="5.36587">
        <ele>285</ele>
        <time>2023-06-09T18:52:09Z</time>
      </trkpt>
      <trkpt lat="49.67089" lon="5.36586">
        <ele>285.3</ele>
        <time>2023-06-09T18:52:20Z</time>
      </trkpt>
      <trkpt lat="49.67138" lon="5.36581">
        <ele>287.8</ele>
        <time>2023-06-09T18:52:32Z</time>
      </trkpt>
      <trkpt lat="49.6719" lon="5.36573">
        <ele>293.8</ele>
        <time>2023-06-09T18:52:45Z</time>
      </trkpt>
      <trkpt lat="49.67219" lon="5.36561">
        <ele>299</ele>
        <time>2023-06-09T18:52:53Z</time>
      </trkpt>
      <trkpt lat="49.67232" lon="5.36549">
        <ele>300.5</ele>
        <time>2023-06-09T18:52:56Z</time>
      </trkpt>
      <trkpt lat="49.67255" lon="5.36526">
        <ele>302</ele>
        <time>2023-06-09T18:53:03Z</time>
      </trkpt>
      <trkpt lat="49.67322" lon="5.36446">
        <ele>308.5</ele>
        <time>2023-06-09T18:53:24Z</time>
      </trkpt>
      <trkpt lat="49.67356" lon="5.36408">
        <ele>310.3</ele>
        <time>2023-06-09T18:53:35Z</time>
      </trkpt>
      <trkpt lat="49.67374" lon="5.36395">
        <ele>312.8</ele>
        <time>2023-06-09T18:53:40Z</time>
      </trkpt>
      <trkpt lat="49.67389" lon="5.3639">
        <ele>314</ele>
        <time>2023-06-09T18:53:44Z</time>
      </trkpt>
      <trkpt lat="49.67414" lon="5.36382">
        <ele>316.3</ele>
        <time>2023-06-09T18:53:50Z</time>
      </trkpt>
      <trkpt lat="49.67432" lon="5.36382">
        <ele>317</ele>
        <time>2023-06-09T18:53:55Z</time>
      </trkpt>
      <trkpt lat="49.67452" lon="5.36385">
        <ele>317.8</ele>
        <time>2023-06-09T18:54:00Z</time>
      </trkpt>
      <trkpt lat="49.6747" lon="5.36395">
        <ele>318.8</ele>
        <time>2023-06-09T18:54:04Z</time>
      </trkpt>
      <trkpt lat="49.67491" lon="5.3641">
        <ele>319.5</ele>
        <time>2023-06-09T18:54:10Z</time>
      </trkpt>
      <trkpt lat="49.67598" lon="5.36511">
        <ele>336.3</ele>
        <time>2023-06-09T18:54:41Z</time>
      </trkpt>
      <trkpt lat="49.6764" lon="5.36554">
        <ele>338.5</ele>
        <time>2023-06-09T18:54:54Z</time>
      </trkpt>
      <trkpt lat="49.67695" lon="5.36604">
        <ele>336.8</ele>
        <time>2023-06-09T18:55:10Z</time>
      </trkpt>
      <trkpt lat="49.6774" lon="5.36634">
        <ele>339.8</ele>
        <time>2023-06-09T18:55:22Z</time>
      </trkpt>
      <trkpt lat="49.6789" lon="5.36733">
        <ele>348</ele>
        <time>2023-06-09T18:56:03Z</time>
      </trkpt>
      <trkpt lat="49.67914" lon="5.36744">
        <ele>347.3</ele>
        <time>2023-06-09T18:56:08Z</time>
      </trkpt>
      <trkpt lat="49.67916" lon="5.36745">
        <ele>347.3</ele>
        <time>2023-06-09T18:56:08Z</time>
      </trkpt>
      <trkpt lat="49.68028" lon="5.36248">
        <ele>354.3</ele>
        <time>2023-06-09T18:58:50Z</time>
      </trkpt>
      <trkpt lat="49.68132" lon="5.36131">
        <ele>354.5</ele>
        <time>2023-06-09T18:59:15Z</time>
      </trkpt>
      <trkpt lat="49.68228" lon="5.36027">
        <ele>355.3</ele>
        <time>2023-06-09T18:59:38Z</time>
      </trkpt>
      <trkpt lat="49.68221" lon="5.36011">
        <ele>355.3</ele>
        <time>2023-06-09T18:59:40Z</time>
      </trkpt>
      <trkpt lat="49.6819" lon="5.35915">
        <ele>349.3</ele>
        <time>2023-06-09T18:59:54Z</time>
      </trkpt>
      <trkpt lat="49.68221" lon="5.36011">
        <ele>355.3</ele>
        <time>2023-06-09T19:00:07Z</time>
      </trkpt>
      <trkpt lat="49.68228" lon="5.36027">
        <ele>355.3</ele>
        <time>2023-06-09T19:00:08Z</time>
      </trkpt>
      <trkpt lat="49.68132" lon="5.36131">
        <ele>354.5</ele>
        <time>2023-06-09T19:00:15Z</time>
      </trkpt>
      <trkpt lat="49.68028" lon="5.36248">
        <ele>354.3</ele>
        <time>2023-06-09T19:00:23Z</time>
      </trkpt>
      <trkpt lat="49.67912" lon="5.36122">
        <ele>353</ele>
        <time>2023-06-09T19:00:32Z</time>
      </trkpt>
      <trkpt lat="49.67908" lon="5.36132">
        <ele>354.3</ele>
        <time>2023-06-09T19:00:33Z</time>
      </trkpt>
      <trkpt lat="49.67906" lon="5.36143">
        <ele>355.3</ele>
        <time>2023-06-09T19:00:33Z</time>
      </trkpt>
      <trkpt lat="49.67903" lon="5.3637">
        <ele>355</ele>
        <time>2023-06-09T19:00:43Z</time>
      </trkpt>
      <trkpt lat="49.67904" lon="5.36582">
        <ele>353</ele>
        <time>2023-06-09T19:00:51Z</time>
      </trkpt>
      <trkpt lat="49.67907" lon="5.36629">
        <ele>352.8</ele>
        <time>2023-06-09T19:00:53Z</time>
      </trkpt>
      <trkpt lat="49.67914" lon="5.36714">
        <ele>349.5</ele>
        <time>2023-06-09T19:00:57Z</time>
      </trkpt>
      <trkpt lat="49.67916" lon="5.36745">
        <ele>347.3</ele>
        <time>2023-06-09T19:00:58Z</time>
      </trkpt>
      <trkpt lat="49.6789" lon="5.36733">
        <ele>348</ele>
        <time>2023-06-09T19:01:00Z</time>
      </trkpt>
      <trkpt lat="49.6774" lon="5.36634">
        <ele>339.8</ele>
        <time>2023-06-09T19:01:10Z</time>
      </trkpt>
      <trkpt lat="49.67695" lon="5.36604">
        <ele>336.8</ele>
        <time>2023-06-09T19:01:13Z</time>
      </trkpt>
      <trkpt lat="49.6764" lon="5.36554">
        <ele>338.5</ele>
        <time>2023-06-09T19:01:17Z</time>
      </trkpt>
      <trkpt lat="49.67598" lon="5.36511">
        <ele>336.3</ele>
        <time>2023-06-09T19:01:21Z</time>
      </trkpt>
      <trkpt lat="49.67491" lon="5.3641">
        <ele>319.5</ele>
        <time>2023-06-09T19:01:29Z</time>
      </trkpt>
      <trkpt lat="49.6747" lon="5.36395">
        <ele>318.8</ele>
        <time>2023-06-09T19:01:30Z</time>
      </trkpt>
      <trkpt lat="49.67452" lon="5.36385">
        <ele>317.8</ele>
        <time>2023-06-09T19:01:31Z</time>
      </trkpt>
      <trkpt lat="49.67432" lon="5.36382">
        <ele>317</ele>
        <time>2023-06-09T19:01:33Z</time>
      </trkpt>
      <trkpt lat="49.67414" lon="5.36382">
        <ele>316.3</ele>
        <time>2023-06-09T19:01:34Z</time>
      </trkpt>
      <trkpt lat="49.67389" lon="5.3639">
        <ele>314</ele>
        <time>2023-06-09T19:01:35Z</time>
      </trkpt>
      <trkpt lat="49.67374" lon="5.36395">
        <ele>312.8</ele>
        <time>2023-06-09T19:01:36Z</time>
      </trkpt>
      <trkpt lat="49.67356" lon="5.36408">
        <ele>310.3</ele>
        <time>2023-06-09T19:01:38Z</time>
      </trkpt>
      <trkpt lat="49.67322" lon="5.36446">
        <ele>308.5</ele>
        <time>2023-06-09T19:01:40Z</time>
      </trkpt>
      <trkpt lat="49.67255" lon="5.36526">
        <ele>302</ele>
        <time>2023-06-09T19:01:46Z</time>
      </trkpt>
      <trkpt lat="49.67232" lon="5.36549">
        <ele>300.5</ele>
        <time>2023-06-09T19:01:47Z</time>
      </trkpt>
      <trkpt lat="49.67219" lon="5.36561">
        <ele>299</ele>
        <time>2023-06-09T19:01:48Z</time>
      </trkpt>
      <trkpt lat="49.6719" lon="5.36573">
        <ele>293.8</ele>
        <time>2023-06-09T19:01:50Z</time>
      </trkpt>
      <trkpt lat="49.67138" lon="5.36581">
        <ele>287.8</ele>
        <time>2023-06-09T19:01:54Z</time>
      </trkpt>
      <trkpt lat="49.67089" lon="5.36586">
        <ele>285.3</ele>
        <time>2023-06-09T19:01:57Z</time>
      </trkpt>
      <trkpt lat="49.67043" lon="5.36587">
        <ele>285</ele>
        <time>2023-06-09T19:02:00Z</time>
      </trkpt>
      <trkpt lat="49.67012" lon="5.36586">
        <ele>284.8</ele>
        <time>2023-06-09T19:02:02Z</time>
      </trkpt>
      <trkpt lat="49.66994" lon="5.36587">
        <ele>284.8</ele>
        <time>2023-06-09T19:02:03Z</time>
      </trkpt>
      <trkpt lat="49.66979" lon="5.36588">
        <ele>284.3</ele>
        <time>2023-06-09T19:02:04Z</time>
      </trkpt>
      <trkpt lat="49.66959" lon="5.36594">
        <ele>283.8</ele>
        <time>2023-06-09T19:02:05Z</time>
      </trkpt>
      <trkpt lat="49.66909" lon="5.36611">
        <ele>281.3</ele>
        <time>2023-06-09T19:02:08Z</time>
      </trkpt>
      <trkpt lat="49.66886" lon="5.36615">
        <ele>280.5</ele>
        <time>2023-06-09T19:02:10Z</time>
      </trkpt>
      <trkpt lat="49.66854" lon="5.36616">
        <ele>280.3</ele>
        <time>2023-06-09T19:02:12Z</time>
      </trkpt>
      <trkpt lat="49.66735" lon="5.36604">
        <ele>277</ele>
        <time>2023-06-09T19:02:25Z</time>
      </trkpt>
      <trkpt lat="49.66699" lon="5.36594">
        <ele>275</ele>
        <time>2023-06-09T19:02:29Z</time>
      </trkpt>
      <trkpt lat="49.66677" lon="5.3658">
        <ele>274.3</ele>
        <time>2023-06-09T19:02:31Z</time>
      </trkpt>
      <trkpt lat="49.66501" lon="5.3641">
        <ele>265.5</ele>
        <time>2023-06-09T19:02:54Z</time>
      </trkpt>
      <trkpt lat="49.66438" lon="5.3634">
        <ele>262.8</ele>
        <time>2023-06-09T19:03:02Z</time>
      </trkpt>
      <trkpt lat="49.6643" lon="5.36329">
        <ele>262.5</ele>
        <time>2023-06-09T19:03:03Z</time>
      </trkpt>
      <trkpt lat="49.66418" lon="5.36322">
        <ele>261.8</ele>
        <time>2023-06-09T19:03:04Z</time>
      </trkpt>
      <trkpt lat="49.66409" lon="5.36319">
        <ele>261.8</ele>
        <time>2023-06-09T19:03:05Z</time>
      </trkpt>
      <trkpt lat="49.6631" lon="5.36309">
        <ele>262.3</ele>
        <time>2023-06-09T19:03:16Z</time>
      </trkpt>
      <trkpt lat="49.66295" lon="5.36308">
        <ele>262.3</ele>
        <time>2023-06-09T19:03:18Z</time>
      </trkpt>
      <trkpt lat="49.6628" lon="5.36308">
        <ele>262.3</ele>
        <time>2023-06-09T19:03:19Z</time>
      </trkpt>
      <trkpt lat="49.66266" lon="5.36311">
        <ele>261.5</ele>
        <time>2023-06-09T19:03:21Z</time>
      </trkpt>
      <trkpt lat="49.66187" lon="5.36336">
        <ele>259.8</ele>
        <time>2023-06-09T19:03:30Z</time>
      </trkpt>
      <trkpt lat="49.66068" lon="5.36375">
        <ele>264.3</ele>
        <time>2023-06-09T19:03:37Z</time>
      </trkpt>
      <trkpt lat="49.66019" lon="5.36394">
        <ele>261.8</ele>
        <time>2023-06-09T19:03:41Z</time>
      </trkpt>
      <trkpt lat="49.65988" lon="5.36413">
        <ele>258.5</ele>
        <time>2023-06-09T19:03:43Z</time>
      </trkpt>
      <trkpt lat="49.65928" lon="5.3645">
        <ele>257</ele>
        <time>2023-06-09T19:03:47Z</time>
      </trkpt>
      <trkpt lat="49.65919" lon="5.36455">
        <ele>257</ele>
        <time>2023-06-09T19:03:47Z</time>
      </trkpt>
      <trkpt lat="49.65907" lon="5.36456">
        <ele>256.3</ele>
        <time>2023-06-09T19:03:48Z</time>
      </trkpt>
      <trkpt lat="49.65896" lon="5.36451">
        <ele>255.8</ele>
        <time>2023-06-09T19:03:49Z</time>
      </trkpt>
      <trkpt lat="49.65877" lon="5.36439">
        <ele>255.3</ele>
        <time>2023-06-09T19:03:50Z</time>
      </trkpt>
      <trkpt lat="49.65814" lon="5.364">
        <ele>254</ele>
        <time>2023-06-09T19:03:54Z</time>
      </trkpt>
      <trkpt lat="49.6572" lon="5.36332">
        <ele>248.8</ele>
        <time>2023-06-09T19:04:01Z</time>
      </trkpt>
      <trkpt lat="49.65694" lon="5.3631">
        <ele>248.5</ele>
        <time>2023-06-09T19:04:03Z</time>
      </trkpt>
      <trkpt lat="49.65671" lon="5.36286">
        <ele>247</ele>
        <time>2023-06-09T19:04:05Z</time>
      </trkpt>
      <trkpt lat="49.6561" lon="5.36219">
        <ele>249</ele>
        <time>2023-06-09T19:04:09Z</time>
      </trkpt>
      <trkpt lat="49.6555" lon="5.3617">
        <ele>247.3</ele>
        <time>2023-06-09T19:04:14Z</time>
      </trkpt>
      <trkpt lat="49.65519" lon="5.36143">
        <ele>246.5</ele>
        <time>2023-06-09T19:04:16Z</time>
      </trkpt>
      <trkpt lat="49.65489" lon="5.36116">
        <ele>244.5</ele>
        <time>2023-06-09T19:04:18Z</time>
      </trkpt>
      <trkpt lat="49.65472" lon="5.36099">
        <ele>243</ele>
        <time>2023-06-09T19:04:20Z</time>
      </trkpt>
      <trkpt lat="49.65461" lon="5.36078">
        <ele>241.8</ele>
        <time>2023-06-09T19:04:21Z</time>
      </trkpt>
      <trkpt lat="49.6545" lon="5.36051">
        <ele>241.3</ele>
        <time>2023-06-09T19:04:22Z</time>
      </trkpt>
      <trkpt lat="49.65425" lon="5.35972">
        <ele>240.5</ele>
        <time>2023-06-09T19:04:26Z</time>
      </trkpt>
      <trkpt lat="49.6542" lon="5.35962">
        <ele>240.5</ele>
        <time>2023-06-09T19:04:26Z</time>
      </trkpt>
      <trkpt lat="49.65415" lon="5.35954">
        <ele>240.3</ele>
        <time>2023-06-09T19:04:27Z</time>
      </trkpt>
      <trkpt lat="49.65408" lon="5.35948">
        <ele>240.5</ele>
        <time>2023-06-09T19:04:27Z</time>
      </trkpt>
      <trkpt lat="49.654" lon="5.35945">
        <ele>240.8</ele>
        <time>2023-06-09T19:04:28Z</time>
      </trkpt>
      <trkpt lat="49.65393" lon="5.35944">
        <ele>240.8</ele>
        <time>2023-06-09T19:04:28Z</time>
      </trkpt>
      <trkpt lat="49.65384" lon="5.35945">
        <ele>240.3</ele>
        <time>2023-06-09T19:04:29Z</time>
      </trkpt>
      <trkpt lat="49.65239" lon="5.35972">
        <ele>238.3</ele>
        <time>2023-06-09T19:04:38Z</time>
      </trkpt>
      <trkpt lat="49.65118" lon="5.35981">
        <ele>236.8</ele>
        <time>2023-06-09T19:04:46Z</time>
      </trkpt>
      <trkpt lat="49.65085" lon="5.35985">
        <ele>234.8</ele>
        <time>2023-06-09T19:04:48Z</time>
      </trkpt>
      <trkpt lat="49.64991" lon="5.36002">
        <ele>231.8</ele>
        <time>2023-06-09T19:04:54Z</time>
      </trkpt>
      <trkpt lat="49.64958" lon="5.36006">
        <ele>231.3</ele>
        <time>2023-06-09T19:04:56Z</time>
      </trkpt>
      <trkpt lat="49.6493" lon="5.36005">
        <ele>231.3</ele>
        <time>2023-06-09T19:04:58Z</time>
      </trkpt>
      <trkpt lat="49.64908" lon="5.36002">
        <ele>231.8</ele>
        <time>2023-06-09T19:04:59Z</time>
      </trkpt>
      <trkpt lat="49.64823" lon="5.35984">
        <ele>236.3</ele>
        <time>2023-06-09T19:05:05Z</time>
      </trkpt>
      <trkpt lat="49.64793" lon="5.35976">
        <ele>235.3</ele>
        <time>2023-06-09T19:05:06Z</time>
      </trkpt>
      <trkpt lat="49.64771" lon="5.35966">
        <ele>234.3</ele>
        <time>2023-06-09T19:05:08Z</time>
      </trkpt>
      <trkpt lat="49.64758" lon="5.35957">
        <ele>233.5</ele>
        <time>2023-06-09T19:05:09Z</time>
      </trkpt>
      <trkpt lat="49.64745" lon="5.35942">
        <ele>233.5</ele>
        <time>2023-06-09T19:05:10Z</time>
      </trkpt>
      <trkpt lat="49.64732" lon="5.35919">
        <ele>234</ele>
        <time>2023-06-09T19:05:11Z</time>
      </trkpt>
      <trkpt lat="49.64652" lon="5.35736">
        <ele>235.5</ele>
        <time>2023-06-09T19:05:20Z</time>
      </trkpt>
      <trkpt lat="49.64634" lon="5.3569">
        <ele>234.8</ele>
        <time>2023-06-09T19:05:22Z</time>
      </trkpt>
      <trkpt lat="49.64612" lon="5.3563">
        <ele>231.5</ele>
        <time>2023-06-09T19:05:25Z</time>
      </trkpt>
      <trkpt lat="49.64606" lon="5.35619">
        <ele>230.3</ele>
        <time>2023-06-09T19:05:26Z</time>
      </trkpt>
      <trkpt lat="49.646" lon="5.35613">
        <ele>228.8</ele>
        <time>2023-06-09T19:05:26Z</time>
      </trkpt>
      <trkpt lat="49.64592" lon="5.35611">
        <ele>226.5</ele>
        <time>2023-06-09T19:05:27Z</time>
      </trkpt>
      <trkpt lat="49.64584" lon="5.35613">
        <ele>224</ele>
        <time>2023-06-09T19:05:27Z</time>
      </trkpt>
      <trkpt lat="49.64574" lon="5.35621">
        <ele>224.5</ele>
        <time>2023-06-09T19:05:28Z</time>
      </trkpt>
      <trkpt lat="49.64553" lon="5.35638">
        <ele>226.5</ele>
        <time>2023-06-09T19:05:30Z</time>
      </trkpt>
      <trkpt lat="49.64545" lon="5.35642">
        <ele>227.5</ele>
        <time>2023-06-09T19:05:30Z</time>
      </trkpt>
      <trkpt lat="49.64541" lon="5.35642">
        <ele>228</ele>
        <time>2023-06-09T19:05:30Z</time>
      </trkpt>
      <trkpt lat="49.64534" lon="5.35638">
        <ele>229</ele>
        <time>2023-06-09T19:05:31Z</time>
      </trkpt>
      <trkpt lat="49.6453" lon="5.35631">
        <ele>229.3</ele>
        <time>2023-06-09T19:05:31Z</time>
      </trkpt>
      <trkpt lat="49.64519" lon="5.35594">
        <ele>229.3</ele>
        <time>2023-06-09T19:05:33Z</time>
      </trkpt>
      <trkpt lat="49.64507" lon="5.35561">
        <ele>228.8</ele>
        <time>2023-06-09T19:05:34Z</time>
      </trkpt>
      <trkpt lat="49.64488" lon="5.35524">
        <ele>230.3</ele>
        <time>2023-06-09T19:05:36Z</time>
      </trkpt>
      <trkpt lat="49.6447" lon="5.35497">
        <ele>232.5</ele>
        <time>2023-06-09T19:05:38Z</time>
      </trkpt>
      <trkpt lat="49.6445" lon="5.35471">
        <ele>234.5</ele>
        <time>2023-06-09T19:05:40Z</time>
      </trkpt>
      <trkpt lat="49.64431" lon="5.35454">
        <ele>235.3</ele>
        <time>2023-06-09T19:05:41Z</time>
      </trkpt>
      <trkpt lat="49.64246" lon="5.35353">
        <ele>247.5</ele>
        <time>2023-06-09T19:05:54Z</time>
      </trkpt>
      <trkpt lat="49.64103" lon="5.35248">
        <ele>241.8</ele>
        <time>2023-06-09T19:06:04Z</time>
      </trkpt>
      <trkpt lat="49.64021" lon="5.35204">
        <ele>238.5</ele>
        <time>2023-06-09T19:06:16Z</time>
      </trkpt>
      <trkpt lat="49.6388" lon="5.3505">
        <ele>225.3</ele>
        <time>2023-06-09T19:06:41Z</time>
      </trkpt>
      <trkpt lat="49.63842" lon="5.35009">
        <ele>222.8</ele>
        <time>2023-06-09T19:06:48Z</time>
      </trkpt>
      <trkpt lat="49.63836" lon="5.35002">
        <ele>222</ele>
        <time>2023-06-09T19:06:49Z</time>
      </trkpt>
      <trkpt lat="49.63832" lon="5.34995">
        <ele>221.5</ele>
        <time>2023-06-09T19:06:50Z</time>
      </trkpt>
      <trkpt lat="49.6383" lon="5.34987">
        <ele>221</ele>
        <time>2023-06-09T19:06:51Z</time>
      </trkpt>
      <trkpt lat="49.63828" lon="5.34979">
        <ele>220.5</ele>
        <time>2023-06-09T19:06:52Z</time>
      </trkpt>
      <trkpt lat="49.63826" lon="5.3497">
        <ele>219.5</ele>
        <time>2023-06-09T19:06:52Z</time>
      </trkpt>
      <trkpt lat="49.63827" lon="5.34962">
        <ele>218.5</ele>
        <time>2023-06-09T19:06:53Z</time>
      </trkpt>
      <trkpt lat="49.6384" lon="5.34883">
        <ele>212.3</ele>
        <time>2023-06-09T19:07:01Z</time>
      </trkpt>
      <trkpt lat="49.63848" lon="5.34833">
        <ele>212</ele>
        <time>2023-06-09T19:07:03Z</time>
      </trkpt>
      <trkpt lat="49.63849" lon="5.34824">
        <ele>213.5</ele>
        <time>2023-06-09T19:07:03Z</time>
      </trkpt>
      <trkpt lat="49.63848" lon="5.34815">
        <ele>215</ele>
        <time>2023-06-09T19:07:04Z</time>
      </trkpt>
      <trkpt lat="49.63846" lon="5.34808">
        <ele>216.5</ele>
        <time>2023-06-09T19:07:04Z</time>
      </trkpt>
      <trkpt lat="49.63842" lon="5.34801">
        <ele>217.5</ele>
        <time>2023-06-09T19:07:04Z</time>
      </trkpt>
      <trkpt lat="49.63838" lon="5.34797">
        <ele>218.3</ele>
        <time>2023-06-09T19:07:05Z</time>
      </trkpt>
      <trkpt lat="49.6383" lon="5.34793">
        <ele>219</ele>
        <time>2023-06-09T19:07:05Z</time>
      </trkpt>
      <trkpt lat="49.63663" lon="5.34716">
        <ele>220</ele>
        <time>2023-06-09T19:08:00Z</time>
      </trkpt>
      <trkpt lat="49.6362" lon="5.34691">
        <ele>220.3</ele>
        <time>2023-06-09T19:08:15Z</time>
      </trkpt>
      <trkpt lat="49.63536" lon="5.34641">
        <ele>216.8</ele>
        <time>2023-06-09T19:08:43Z</time>
      </trkpt>
      <trkpt lat="49.63487" lon="5.34608">
        <ele>212.8</ele>
        <time>2023-06-09T19:09:00Z</time>
      </trkpt>
      <trkpt lat="49.6347" lon="5.34593">
        <ele>211.5</ele>
        <time>2023-06-09T19:09:06Z</time>
      </trkpt>
      <trkpt lat="49.63459" lon="5.34582">
        <ele>210.5</ele>
        <time>2023-06-09T19:09:10Z</time>
      </trkpt>
      <trkpt lat="49.63455" lon="5.34577">
        <ele>209.8</ele>
        <time>2023-06-09T19:09:12Z</time>
      </trkpt>
      <trkpt lat="49.63455" lon="5.34577">
        <ele>209.8</ele>
        <time>2023-06-09T19:09:12Z</time>
      </trkpt>
      <trkpt lat="49.6345" lon="5.34537">
        <ele>208.3</ele>
        <time>2023-06-09T19:09:21Z</time>
      </trkpt>
      <trkpt lat="49.63436" lon="5.34503">
        <ele>206.3</ele>
        <time>2023-06-09T19:09:29Z</time>
      </trkpt>
      <trkpt lat="49.63434" lon="5.34496">
        <ele>206.3</ele>
        <time>2023-06-09T19:09:30Z</time>
      </trkpt>
      <trkpt lat="49.63423" lon="5.34446">
        <ele>206</ele>
        <time>2023-06-09T19:09:41Z</time>
      </trkpt>
      <trkpt lat="49.63419" lon="5.34434">
        <ele>205.8</ele>
        <time>2023-06-09T19:09:44Z</time>
      </trkpt>
      <trkpt lat="49.63413" lon="5.34421">
        <ele>205.8</ele>
        <time>2023-06-09T19:09:47Z</time>
      </trkpt>
      <trkpt lat="49.63409" lon="5.34416">
        <ele>205.5</ele>
        <time>2023-06-09T19:09:48Z</time>
      </trkpt>
      <trkpt lat="49.63402" lon="5.34409">
        <ele>206</ele>
        <time>2023-06-09T19:09:48Z</time>
      </trkpt>
      <trkpt lat="49.63388" lon="5.34403">
        <ele>206.3</ele>
        <time>2023-06-09T19:09:49Z</time>
      </trkpt>
      <trkpt lat="49.63379" lon="5.34401">
        <ele>206.3</ele>
        <time>2023-06-09T19:09:50Z</time>
      </trkpt>
      <trkpt lat="49.63342" lon="5.344">
        <ele>205.3</ele>
        <time>2023-06-09T19:09:52Z</time>
      </trkpt>
      <trkpt lat="49.63309" lon="5.34402">
        <ele>208.3</ele>
        <time>2023-06-09T19:09:54Z</time>
      </trkpt>
      <trkpt lat="49.63302" lon="5.34403">
        <ele>209</ele>
        <time>2023-06-09T19:09:54Z</time>
      </trkpt>
      <trkpt lat="49.63284" lon="5.34406">
        <ele>211.3</ele>
        <time>2023-06-09T19:09:56Z</time>
      </trkpt>
      <trkpt lat="49.63261" lon="5.34414">
        <ele>213.5</ele>
        <time>2023-06-09T19:09:57Z</time>
      </trkpt>
      <trkpt lat="49.63239" lon="5.34425">
        <ele>214.8</ele>
        <time>2023-06-09T19:09:59Z</time>
      </trkpt>
      <trkpt lat="49.63222" lon="5.34436">
        <ele>214.3</ele>
        <time>2023-06-09T19:10:00Z</time>
      </trkpt>
      <trkpt lat="49.63175" lon="5.3447">
        <ele>212</ele>
        <time>2023-06-09T19:10:03Z</time>
      </trkpt>
      <trkpt lat="49.63103" lon="5.34532">
        <ele>207.5</ele>
        <time>2023-06-09T19:10:08Z</time>
      </trkpt>
      <trkpt lat="49.6309" lon="5.3454">
        <ele>207.3</ele>
        <time>2023-06-09T19:10:09Z</time>
      </trkpt>
      <trkpt lat="49.63077" lon="5.34545">
        <ele>206.8</ele>
        <time>2023-06-09T19:10:10Z</time>
      </trkpt>
      <trkpt lat="49.63063" lon="5.34547">
        <ele>205.8</ele>
        <time>2023-06-09T19:10:11Z</time>
      </trkpt>
      <trkpt lat="49.6305" lon="5.34545">
        <ele>205.5</ele>
        <time>2023-06-09T19:10:12Z</time>
      </trkpt>
      <trkpt lat="49.63043" lon="5.34541">
        <ele>205.5</ele>
        <time>2023-06-09T19:10:12Z</time>
      </trkpt>
      <trkpt lat="49.63029" lon="5.34532">
        <ele>199.1</ele>
        <time>2023-06-09T19:10:13Z</time>
      </trkpt>
      <trkpt lat="49.63018" lon="5.34518">
        <ele>199.1</ele>
        <time>2023-06-09T19:10:14Z</time>
      </trkpt>
      <trkpt lat="49.63007" lon="5.34502">
        <ele>198.7</ele>
        <time>2023-06-09T19:10:15Z</time>
      </trkpt>
      <trkpt lat="49.62916" lon="5.343">
        <ele>199.6</ele>
        <time>2023-06-09T19:10:23Z</time>
      </trkpt>
      <trkpt lat="49.62902" lon="5.34281">
        <ele>199.6</ele>
        <time>2023-06-09T19:10:25Z</time>
      </trkpt>
      <trkpt lat="49.62887" lon="5.34266">
        <ele>199.6</ele>
        <time>2023-06-09T19:10:26Z</time>
      </trkpt>
      <trkpt lat="49.62871" lon="5.3425">
        <ele>199.6</ele>
        <time>2023-06-09T19:10:27Z</time>
      </trkpt>
      <trkpt lat="49.62856" lon="5.34235">
        <ele>198.7</ele>
        <time>2023-06-09T19:10:28Z</time>
      </trkpt>
      <trkpt lat="49.6284" lon="5.34219">
        <ele>198.2</ele>
        <time>2023-06-09T19:10:29Z</time>
      </trkpt>
      <trkpt lat="49.62822" lon="5.34211">
        <ele>198.2</ele>
        <time>2023-06-09T19:10:30Z</time>
      </trkpt>
      <trkpt lat="49.62802" lon="5.34203">
        <ele>197.7</ele>
        <time>2023-06-09T19:10:31Z</time>
      </trkpt>
      <trkpt lat="49.62625" lon="5.34176">
        <ele>199.1</ele>
        <time>2023-06-09T19:10:39Z</time>
      </trkpt>
      <trkpt lat="49.62588" lon="5.34184">
        <ele>197.7</ele>
        <time>2023-06-09T19:10:42Z</time>
      </trkpt>
      <trkpt lat="49.62421" lon="5.34218">
        <ele>194.8</ele>
        <time>2023-06-09T19:10:50Z</time>
      </trkpt>
      <trkpt lat="49.62199" lon="5.34235">
        <ele>194.8</ele>
        <time>2023-06-09T19:11:00Z</time>
      </trkpt>
      <trkpt lat="49.62121" lon="5.34198">
        <ele>192.9</ele>
        <time>2023-06-09T19:11:06Z</time>
      </trkpt>
      <trkpt lat="49.62108" lon="5.34186">
        <ele>192.9</ele>
        <time>2023-06-09T19:11:07Z</time>
      </trkpt>
      <trkpt lat="49.62081" lon="5.34161">
        <ele>191.4</ele>
        <time>2023-06-09T19:11:09Z</time>
      </trkpt>
      <trkpt lat="49.61997" lon="5.34062">
        <ele>194.8</ele>
        <time>2023-06-09T19:11:16Z</time>
      </trkpt>
      <trkpt lat="49.61903" lon="5.3395">
        <ele>194.8</ele>
        <time>2023-06-09T19:11:25Z</time>
      </trkpt>
      <trkpt lat="49.61896" lon="5.33934">
        <ele>194.8</ele>
        <time>2023-06-09T19:11:26Z</time>
      </trkpt>
      <trkpt lat="49.61889" lon="5.33917">
        <ele>194.8</ele>
        <time>2023-06-09T19:11:27Z</time>
      </trkpt>
      <trkpt lat="49.61861" lon="5.33817">
        <ele>195.8</ele>
        <time>2023-06-09T19:11:33Z</time>
      </trkpt>
      <trkpt lat="49.61859" lon="5.33808">
        <ele>195.8</ele>
        <time>2023-06-09T19:11:34Z</time>
      </trkpt>
      <trkpt lat="49.61855" lon="5.33796">
        <ele>195.3</ele>
        <time>2023-06-09T19:11:35Z</time>
      </trkpt>
      <trkpt lat="49.61855" lon="5.33796">
        <ele>195.8</ele>
        <time>2023-06-09T19:11:36Z</time>
      </trkpt>
      <trkpt lat="49.61845" lon="5.33794">
        <ele>195.3</ele>
        <time>2023-06-09T19:11:37Z</time>
      </trkpt>
      <trkpt lat="49.6184" lon="5.33797">
        <ele>195.3</ele>
        <time>2023-06-09T19:11:38Z</time>
      </trkpt>
      <trkpt lat="49.61834" lon="5.33801">
        <ele>195.3</ele>
        <time>2023-06-09T19:11:39Z</time>
      </trkpt>
      <trkpt lat="49.61826" lon="5.33807">
        <ele>195.3</ele>
        <time>2023-06-09T19:11:40Z</time>
      </trkpt>
      <trkpt lat="49.61805" lon="5.33828">
        <ele>194.3</ele>
        <time>2023-06-09T19:11:41Z</time>
      </trkpt>
      <trkpt lat="49.61805" lon="5.33828">
        <ele>193.8</ele>
        <time>2023-06-09T19:11:42Z</time>
      </trkpt>
      <trkpt lat="49.61795" lon="5.33841">
        <ele>193.4</ele>
        <time>2023-06-09T19:11:43Z</time>
      </trkpt>
      <trkpt lat="49.61773" lon="5.3387">
        <ele>192.4</ele>
        <time>2023-06-09T19:11:45Z</time>
      </trkpt>
      <trkpt lat="49.61684" lon="5.34017">
        <ele>191.4</ele>
        <time>2023-06-09T19:11:54Z</time>
      </trkpt>
      <trkpt lat="49.6167" lon="5.34036">
        <ele>193.4</ele>
        <time>2023-06-09T19:11:56Z</time>
      </trkpt>
      <trkpt lat="49.61664" lon="5.34043">
        <ele>193.4</ele>
        <time>2023-06-09T19:11:57Z</time>
      </trkpt>
      <trkpt lat="49.61664" lon="5.34043">
        <ele>195.3</ele>
        <time>2023-06-09T19:12:00Z</time>
      </trkpt>
      <trkpt lat="49.61638" lon="5.34065">
        <ele>195.3</ele>
        <time>2023-06-09T19:12:01Z</time>
      </trkpt>
      <trkpt lat="49.61638" lon="5.34065">
        <ele>195.8</ele>
        <time>2023-06-09T19:12:02Z</time>
      </trkpt>
      <trkpt lat="49.61634" lon="5.34059">
        <ele>195.8</ele>
        <time>2023-06-09T19:12:03Z</time>
      </trkpt>
      <trkpt lat="49.61631" lon="5.34052">
        <ele>195.8</ele>
        <time>2023-06-09T19:12:04Z</time>
      </trkpt>
      <trkpt lat="49.61628" lon="5.34042">
        <ele>195.8</ele>
        <time>2023-06-09T19:12:05Z</time>
      </trkpt>
      <trkpt lat="49.61619" lon="5.34013">
        <ele>195.8</ele>
        <time>2023-06-09T19:12:06Z</time>
      </trkpt>
      <trkpt lat="49.61571" lon="5.33826">
        <ele>193.4</ele>
        <time>2023-06-09T19:12:17Z</time>
      </trkpt>
      <trkpt lat="49.61558" lon="5.33647">
        <ele>193.8</ele>
        <time>2023-06-09T19:12:25Z</time>
      </trkpt>
      <trkpt lat="49.6157" lon="5.33378">
        <ele>196.7</ele>
        <time>2023-06-09T19:12:37Z</time>
      </trkpt>
      <trkpt lat="49.61573" lon="5.33342">
        <ele>197.7</ele>
        <time>2023-06-09T19:12:39Z</time>
      </trkpt>
      <trkpt lat="49.61623" lon="5.33181">
        <ele>198.7</ele>
        <time>2023-06-09T19:12:48Z</time>
      </trkpt>
      <trkpt lat="49.61657" lon="5.33074">
        <ele>197.7</ele>
        <time>2023-06-09T19:12:54Z</time>
      </trkpt>
      <trkpt lat="49.61662" lon="5.33057">
        <ele>197.7</ele>
        <time>2023-06-09T19:12:55Z</time>
      </trkpt>
      <trkpt lat="49.61666" lon="5.33043">
        <ele>198.2</ele>
        <time>2023-06-09T19:12:56Z</time>
      </trkpt>
      <trkpt lat="49.61673" lon="5.33024">
        <ele>196.3</ele>
        <time>2023-06-09T19:13:00Z</time>
      </trkpt>
      <trkpt lat="49.61673" lon="5.33024">
        <ele>196.7</ele>
        <time>2023-06-09T19:13:06Z</time>
      </trkpt>
      <trkpt lat="49.61673" lon="5.33024">
        <ele>196.7</ele>
        <time>2023-06-09T19:13:07Z</time>
      </trkpt>
      <trkpt lat="49.61673" lon="5.33023">
        <ele>196.7</ele>
        <time>2023-06-09T19:13:08Z</time>
      </trkpt>
      <trkpt lat="49.61671" lon="5.33015">
        <ele>196.3</ele>
        <time>2023-06-09T19:13:09Z</time>
      </trkpt>
      <trkpt lat="49.6167" lon="5.33005">
        <ele>195.8</ele>
        <time>2023-06-09T19:13:10Z</time>
      </trkpt>
      <trkpt lat="49.61668" lon="5.32992">
        <ele>195.8</ele>
        <time>2023-06-09T19:13:11Z</time>
      </trkpt>
      <trkpt lat="49.61653" lon="5.32892">
        <ele>192.4</ele>
        <time>2023-06-09T19:13:16Z</time>
      </trkpt>
      <trkpt lat="49.61642" lon="5.32815">
        <ele>191.4</ele>
        <time>2023-06-09T19:13:18Z</time>
      </trkpt>
      <trkpt lat="49.61619" lon="5.32689">
        <ele>190.5</ele>
        <time>2023-06-09T19:13:24Z</time>
      </trkpt>
      <trkpt lat="49.6161" lon="5.32667">
        <ele>190.5</ele>
        <time>2023-06-09T19:13:25Z</time>
      </trkpt>
      <trkpt lat="49.61601" lon="5.32645">
        <ele>190.5</ele>
        <time>2023-06-09T19:13:26Z</time>
      </trkpt>
      <trkpt lat="49.61529" lon="5.32494">
        <ele>192.9</ele>
        <time>2023-06-09T19:13:34Z</time>
      </trkpt>
      <trkpt lat="49.61443" lon="5.32362">
        <ele>191.9</ele>
        <time>2023-06-09T19:13:42Z</time>
      </trkpt>
      <trkpt lat="49.61399" lon="5.32317">
        <ele>191</ele>
        <time>2023-06-09T19:13:45Z</time>
      </trkpt>
      <trkpt lat="49.61115" lon="5.3203">
        <ele>190</ele>
        <time>2023-06-09T19:14:02Z</time>
      </trkpt>
      <trkpt lat="49.60956" lon="5.31904">
        <ele>191.9</ele>
        <time>2023-06-09T19:14:13Z</time>
      </trkpt>
      <trkpt lat="49.60872" lon="5.31839">
        <ele>195.3</ele>
        <time>2023-06-09T19:14:18Z</time>
      </trkpt>
      <trkpt lat="49.60715" lon="5.31695">
        <ele>195.3</ele>
        <time>2023-06-09T19:14:28Z</time>
      </trkpt>
      <trkpt lat="49.60704" lon="5.31673">
        <ele>195.3</ele>
        <time>2023-06-09T19:14:29Z</time>
      </trkpt>
      <trkpt lat="49.60693" lon="5.31649">
        <ele>194.8</ele>
        <time>2023-06-09T19:14:30Z</time>
      </trkpt>
      <trkpt lat="49.60682" lon="5.31624">
        <ele>194.8</ele>
        <time>2023-06-09T19:14:31Z</time>
      </trkpt>
      <trkpt lat="49.60675" lon="5.31597">
        <ele>193.8</ele>
        <time>2023-06-09T19:14:32Z</time>
      </trkpt>
      <trkpt lat="49.60668" lon="5.31569">
        <ele>194.3</ele>
        <time>2023-06-09T19:14:33Z</time>
      </trkpt>
      <trkpt lat="49.60655" lon="5.31521">
        <ele>193.8</ele>
        <time>2023-06-09T19:14:35Z</time>
      </trkpt>
      <trkpt lat="49.60646" lon="5.31499">
        <ele>193.8</ele>
        <time>2023-06-09T19:14:36Z</time>
      </trkpt>
      <trkpt lat="49.60635" lon="5.31479">
        <ele>193.4</ele>
        <time>2023-06-09T19:14:37Z</time>
      </trkpt>
      <trkpt lat="49.60583" lon="5.31391">
        <ele>191.9</ele>
        <time>2023-06-09T19:14:41Z</time>
      </trkpt>
      <trkpt lat="49.60528" lon="5.31299">
        <ele>190</ele>
        <time>2023-06-09T19:14:45Z</time>
      </trkpt>
      <trkpt lat="49.60394" lon="5.31125">
        <ele>191.9</ele>
        <time>2023-06-09T19:14:53Z</time>
      </trkpt>
      <trkpt lat="49.60377" lon="5.31116">
        <ele>191.9</ele>
        <time>2023-06-09T19:14:54Z</time>
      </trkpt>
      <trkpt lat="49.60265" lon="5.31074">
        <ele>188.6</ele>
        <time>2023-06-09T19:15:01Z</time>
      </trkpt>
      <trkpt lat="49.60196" lon="5.31049">
        <ele>186.2</ele>
        <time>2023-06-09T19:15:05Z</time>
      </trkpt>
      <trkpt lat="49.60151" lon="5.31033">
        <ele>186.2</ele>
        <time>2023-06-09T19:15:08Z</time>
      </trkpt>
      <trkpt lat="49.60138" lon="5.31024">
        <ele>186.2</ele>
        <time>2023-06-09T19:15:09Z</time>
      </trkpt>
      <trkpt lat="49.60127" lon="5.3101">
        <ele>187.1</ele>
        <time>2023-06-09T19:15:10Z</time>
      </trkpt>
      <trkpt lat="49.60109" lon="5.30978">
        <ele>187.6</ele>
        <time>2023-06-09T19:15:11Z</time>
      </trkpt>
      <trkpt lat="49.60109" lon="5.30978">
        <ele>187.6</ele>
        <time>2023-06-09T19:15:12Z</time>
      </trkpt>
      <trkpt lat="49.60104" lon="5.3096">
        <ele>187.6</ele>
        <time>2023-06-09T19:15:13Z</time>
      </trkpt>
      <trkpt lat="49.60094" lon="5.30925">
        <ele>187.1</ele>
        <time>2023-06-09T19:15:14Z</time>
      </trkpt>
      <trkpt lat="49.6009" lon="5.30905">
        <ele>187.6</ele>
        <time>2023-06-09T19:15:15Z</time>
      </trkpt>
      <trkpt lat="49.60051" lon="5.30723">
        <ele>188.6</ele>
        <time>2023-06-09T19:15:25Z</time>
      </trkpt>
      <trkpt lat="49.60015" lon="5.30653">
        <ele>187.1</ele>
        <time>2023-06-09T19:15:31Z</time>
      </trkpt>
      <trkpt lat="49.60007" lon="5.30638">
        <ele>187.1</ele>
        <time>2023-06-09T19:15:33Z</time>
      </trkpt>
      <trkpt lat="49.60004" lon="5.30632">
        <ele>187.1</ele>
        <time>2023-06-09T19:15:34Z</time>
      </trkpt>
      <trkpt lat="49.60014" lon="5.3062">
        <ele>187.1</ele>
        <time>2023-06-09T19:15:35Z</time>
      </trkpt>
      <trkpt lat="49.60021" lon="5.30612">
        <ele>185.7</ele>
        <time>2023-06-09T19:15:36Z</time>
      </trkpt>
      <trkpt lat="49.6003" lon="5.30603">
        <ele>184.7</ele>
        <time>2023-06-09T19:15:37Z</time>
      </trkpt>
      <trkpt lat="49.6004" lon="5.30593">
        <ele>184.7</ele>
        <time>2023-06-09T19:15:38Z</time>
      </trkpt>
      <trkpt lat="49.60171" lon="5.30482">
        <ele>181.8</ele>
        <time>2023-06-09T19:15:48Z</time>
      </trkpt>
      <trkpt lat="49.6035" lon="5.30331">
        <ele>182.3</ele>
        <time>2023-06-09T19:16:00Z</time>
      </trkpt>
      <trkpt lat="49.60444" lon="5.30258">
        <ele>182.3</ele>
        <time>2023-06-09T19:16:09Z</time>
      </trkpt>
      <trkpt lat="49.60452" lon="5.30252">
        <ele>181.8</ele>
        <time>2023-06-09T19:16:10Z</time>
      </trkpt>
      <trkpt lat="49.60458" lon="5.30248">
        <ele>180.9</ele>
        <time>2023-06-09T19:16:11Z</time>
      </trkpt>
      <trkpt lat="49.60462" lon="5.30235">
        <ele>180.4</ele>
        <time>2023-06-09T19:16:12Z</time>
      </trkpt>
      <trkpt lat="49.6046" lon="5.30227">
        <ele>181.3</ele>
        <time>2023-06-09T19:16:13Z</time>
      </trkpt>
      <trkpt lat="49.60456" lon="5.30216">
        <ele>180.9</ele>
        <time>2023-06-09T19:16:14Z</time>
      </trkpt>
      <trkpt lat="49.60452" lon="5.30202">
        <ele>180.9</ele>
        <time>2023-06-09T19:16:15Z</time>
      </trkpt>
      <trkpt lat="49.60435" lon="5.30151">
        <ele>180.9</ele>
        <time>2023-06-09T19:16:18Z</time>
      </trkpt>
      <trkpt lat="49.60432" lon="5.30134">
        <ele>180.9</ele>
        <time>2023-06-09T19:16:19Z</time>
      </trkpt>
      <trkpt lat="49.60424" lon="5.30083">
        <ele>181.8</ele>
        <time>2023-06-09T19:16:22Z</time>
      </trkpt>
      <trkpt lat="49.60414" lon="5.2997">
        <ele>182.3</ele>
        <time>2023-06-09T19:16:28Z</time>
      </trkpt>
      <trkpt lat="49.60409" lon="5.29959">
        <ele>182.3</ele>
        <time>2023-06-09T19:16:29Z</time>
      </trkpt>
      <trkpt lat="49.60403" lon="5.29951">
        <ele>182.3</ele>
        <time>2023-06-09T19:16:30Z</time>
      </trkpt>
      <trkpt lat="49.60396" lon="5.29943">
        <ele>182.8</ele>
        <time>2023-06-09T19:16:31Z</time>
      </trkpt>
      <trkpt lat="49.60377" lon="5.29939">
        <ele>182.8</ele>
        <time>2023-06-09T19:16:32Z</time>
      </trkpt>
      <trkpt lat="49.60377" lon="5.29939">
        <ele>182.8</ele>
        <time>2023-06-09T19:16:33Z</time>
      </trkpt>
      <trkpt lat="49.60348" lon="5.29937">
        <ele>182.8</ele>
        <time>2023-06-09T19:16:34Z</time>
      </trkpt>
      <trkpt lat="49.60348" lon="5.29937">
        <ele>182.3</ele>
        <time>2023-06-09T19:16:35Z</time>
      </trkpt>
      <trkpt lat="49.60334" lon="5.29935">
        <ele>182.8</ele>
        <time>2023-06-09T19:16:36Z</time>
      </trkpt>
      <trkpt lat="49.60321" lon="5.29928">
        <ele>181.8</ele>
        <time>2023-06-09T19:16:37Z</time>
      </trkpt>
      <trkpt lat="49.60296" lon="5.29913">
        <ele>181.8</ele>
        <time>2023-06-09T19:16:38Z</time>
      </trkpt>
      <trkpt lat="49.60296" lon="5.29913">
        <ele>181.3</ele>
        <time>2023-06-09T19:16:39Z</time>
      </trkpt>
      <trkpt lat="49.60284" lon="5.299">
        <ele>180.9</ele>
        <time>2023-06-09T19:16:40Z</time>
      </trkpt>
      <trkpt lat="49.60271" lon="5.29887">
        <ele>180.4</ele>
        <time>2023-06-09T19:16:41Z</time>
      </trkpt>
      <trkpt lat="49.60141" lon="5.29765">
        <ele>181.3</ele>
        <time>2023-06-09T19:16:50Z</time>
      </trkpt>
      <trkpt lat="49.60024" lon="5.29654">
        <ele>184.2</ele>
        <time>2023-06-09T19:16:58Z</time>
      </trkpt>
      <trkpt lat="49.59862" lon="5.29471">
        <ele>184.7</ele>
        <time>2023-06-09T19:17:11Z</time>
      </trkpt>
      <trkpt lat="49.59844" lon="5.29438">
        <ele>183.3</ele>
        <time>2023-06-09T19:17:13Z</time>
      </trkpt>
      <trkpt lat="49.59755" lon="5.29228">
        <ele>184.2</ele>
        <time>2023-06-09T19:17:23Z</time>
      </trkpt>
      <trkpt lat="49.59689" lon="5.29034">
        <ele>182.8</ele>
        <time>2023-06-09T19:17:32Z</time>
      </trkpt>
      <trkpt lat="49.59634" lon="5.28861">
        <ele>183.8</ele>
        <time>2023-06-09T19:17:40Z</time>
      </trkpt>
      <trkpt lat="49.59591" lon="5.28598">
        <ele>179.9</ele>
        <time>2023-06-09T19:17:51Z</time>
      </trkpt>
      <trkpt lat="49.5959" lon="5.28579">
        <ele>178.9</ele>
        <time>2023-06-09T19:17:52Z</time>
      </trkpt>
      <trkpt lat="49.59592" lon="5.28541">
        <ele>178.5</ele>
        <time>2023-06-09T19:17:53Z</time>
      </trkpt>
      <trkpt lat="49.59592" lon="5.28541">
        <ele>178</ele>
        <time>2023-06-09T19:17:54Z</time>
      </trkpt>
      <trkpt lat="49.59595" lon="5.28482">
        <ele>179.4</ele>
        <time>2023-06-09T19:17:57Z</time>
      </trkpt>
      <trkpt lat="49.59596" lon="5.28467">
        <ele>179.9</ele>
        <time>2023-06-09T19:17:58Z</time>
      </trkpt>
      <trkpt lat="49.59593" lon="5.28455">
        <ele>179.9</ele>
        <time>2023-06-09T19:17:59Z</time>
      </trkpt>
      <trkpt lat="49.59589" lon="5.28443">
        <ele>179.9</ele>
        <time>2023-06-09T19:18:00Z</time>
      </trkpt>
      <trkpt lat="49.59587" lon="5.28434">
        <ele>180.4</ele>
        <time>2023-06-09T19:18:01Z</time>
      </trkpt>
      <trkpt lat="49.5958" lon="5.28425">
        <ele>179.9</ele>
        <time>2023-06-09T19:18:02Z</time>
      </trkpt>
      <trkpt lat="49.59572" lon="5.28415">
        <ele>179.9</ele>
        <time>2023-06-09T19:18:03Z</time>
      </trkpt>
      <trkpt lat="49.59563" lon="5.28403">
        <ele>179.9</ele>
        <time>2023-06-09T19:18:04Z</time>
      </trkpt>
      <trkpt lat="49.59521" lon="5.28358">
        <ele>178</ele>
        <time>2023-06-09T19:18:08Z</time>
      </trkpt>
      <trkpt lat="49.5951" lon="5.28349">
        <ele>178</ele>
        <time>2023-06-09T19:18:09Z</time>
      </trkpt>
      <trkpt lat="49.59497" lon="5.28345">
        <ele>178</ele>
        <time>2023-06-09T19:18:10Z</time>
      </trkpt>
      <trkpt lat="49.59387" lon="5.28311">
        <ele>176.5</ele>
        <time>2023-06-09T19:18:17Z</time>
      </trkpt>
      <trkpt lat="49.59375" lon="5.28301">
        <ele>176.1</ele>
        <time>2023-06-09T19:18:18Z</time>
      </trkpt>
      <trkpt lat="49.59361" lon="5.28289">
        <ele>176.1</ele>
        <time>2023-06-09T19:18:19Z</time>
      </trkpt>
      <trkpt lat="49.59348" lon="5.28276">
        <ele>177</ele>
        <time>2023-06-09T19:18:20Z</time>
      </trkpt>
      <trkpt lat="49.59338" lon="5.28261">
        <ele>177.5</ele>
        <time>2023-06-09T19:18:21Z</time>
      </trkpt>
      <trkpt lat="49.5933" lon="5.28245">
        <ele>177.5</ele>
        <time>2023-06-09T19:18:22Z</time>
      </trkpt>
      <trkpt lat="49.59323" lon="5.28231">
        <ele>177.5</ele>
        <time>2023-06-09T19:18:23Z</time>
      </trkpt>
      <trkpt lat="49.59316" lon="5.28217">
        <ele>178</ele>
        <time>2023-06-09T19:18:24Z</time>
      </trkpt>
      <trkpt lat="49.5931" lon="5.28204">
        <ele>178</ele>
        <time>2023-06-09T19:18:25Z</time>
      </trkpt>
      <trkpt lat="49.59307" lon="5.28189">
        <ele>177.5</ele>
        <time>2023-06-09T19:18:26Z</time>
      </trkpt>
      <trkpt lat="49.59301" lon="5.2816">
        <ele>177</ele>
        <time>2023-06-09T19:18:27Z</time>
      </trkpt>
      <trkpt lat="49.593" lon="5.28144">
        <ele>176.5</ele>
        <time>2023-06-09T19:18:28Z</time>
      </trkpt>
      <trkpt lat="49.593" lon="5.28144">
        <ele>176.1</ele>
        <time>2023-06-09T19:18:29Z</time>
      </trkpt>
      <trkpt lat="49.59299" lon="5.28128">
        <ele>175.6</ele>
        <time>2023-06-09T19:18:30Z</time>
      </trkpt>
      <trkpt lat="49.59267" lon="5.27931">
        <ele>176.5</ele>
        <time>2023-06-09T19:18:43Z</time>
      </trkpt>
      <trkpt lat="49.59236" lon="5.27837">
        <ele>178</ele>
        <time>2023-06-09T19:18:50Z</time>
      </trkpt>
      <trkpt lat="49.59231" lon="5.27824">
        <ele>178.5</ele>
        <time>2023-06-09T19:18:51Z</time>
      </trkpt>
      <trkpt lat="49.59228" lon="5.27813">
        <ele>178.9</ele>
        <time>2023-06-09T19:18:52Z</time>
      </trkpt>
      <trkpt lat="49.59228" lon="5.27799">
        <ele>178.9</ele>
        <time>2023-06-09T19:18:53Z</time>
      </trkpt>
      <trkpt lat="49.59227" lon="5.27785">
        <ele>179.4</ele>
        <time>2023-06-09T19:18:54Z</time>
      </trkpt>
      <trkpt lat="49.59221" lon="5.2765">
        <ele>181.3</ele>
        <time>2023-06-09T19:19:03Z</time>
      </trkpt>
      <trkpt lat="49.59221" lon="5.27641">
        <ele>181.8</ele>
        <time>2023-06-09T19:19:04Z</time>
      </trkpt>
      <trkpt lat="49.59221" lon="5.27633">
        <ele>181.3</ele>
        <time>2023-06-09T19:19:05Z</time>
      </trkpt>
      <trkpt lat="49.5922" lon="5.27629">
        <ele>181.3</ele>
        <time>2023-06-09T19:19:06Z</time>
      </trkpt>
      <trkpt lat="49.59212" lon="5.27626">
        <ele>180.9</ele>
        <time>2023-06-09T19:19:07Z</time>
      </trkpt>
      <trkpt lat="49.59208" lon="5.27628">
        <ele>180.9</ele>
        <time>2023-06-09T19:19:08Z</time>
      </trkpt>
      <trkpt lat="49.59202" lon="5.27631">
        <ele>180.4</ele>
        <time>2023-06-09T19:19:09Z</time>
      </trkpt>
      <trkpt lat="49.59115" lon="5.27669">
        <ele>177.5</ele>
        <time>2023-06-09T19:19:18Z</time>
      </trkpt>
      <trkpt lat="49.5902" lon="5.27733">
        <ele>177</ele>
        <time>2023-06-09T19:19:27Z</time>
      </trkpt>
      <trkpt lat="49.58982" lon="5.27762">
        <ele>177.5</ele>
        <time>2023-06-09T19:19:31Z</time>
      </trkpt>
      <trkpt lat="49.58976" lon="5.27766">
        <ele>177.5</ele>
        <time>2023-06-09T19:19:32Z</time>
      </trkpt>
      <trkpt lat="49.58971" lon="5.2777">
        <ele>177.5</ele>
        <time>2023-06-09T19:19:33Z</time>
      </trkpt>
      <trkpt lat="49.58969" lon="5.27772">
        <ele>178</ele>
        <time>2023-06-09T19:19:34Z</time>
      </trkpt>
      <trkpt lat="49.58962" lon="5.27767">
        <ele>178</ele>
        <time>2023-06-09T19:19:35Z</time>
      </trkpt>
      <trkpt lat="49.5896" lon="5.2776">
        <ele>178</ele>
        <time>2023-06-09T19:19:36Z</time>
      </trkpt>
      <trkpt lat="49.58956" lon="5.27751">
        <ele>177.5</ele>
        <time>2023-06-09T19:19:37Z</time>
      </trkpt>
      <trkpt lat="49.58952" lon="5.27739">
        <ele>177</ele>
        <time>2023-06-09T19:19:38Z</time>
      </trkpt>
      <trkpt lat="49.58902" lon="5.27613">
        <ele>175.6</ele>
        <time>2023-06-09T19:19:45Z</time>
      </trkpt>
      <trkpt lat="49.58826" lon="5.27404">
        <ele>174.1</ele>
        <time>2023-06-09T19:19:55Z</time>
      </trkpt>
      <trkpt lat="49.58749" lon="5.27076">
        <ele>177.5</ele>
        <time>2023-06-09T19:20:10Z</time>
      </trkpt>
      <trkpt lat="49.58672" lon="5.26863">
        <ele>175.1</ele>
        <time>2023-06-09T19:20:21Z</time>
      </trkpt>
      <trkpt lat="49.58634" lon="5.26784">
        <ele>173.2</ele>
        <time>2023-06-09T19:20:28Z</time>
      </trkpt>
      <trkpt lat="49.5863" lon="5.26775">
        <ele>173.7</ele>
        <time>2023-06-09T19:20:35Z</time>
      </trkpt>
      <trkpt lat="49.58627" lon="5.26769">
        <ele>173.7</ele>
        <time>2023-06-09T19:20:36Z</time>
      </trkpt>
      <trkpt lat="49.58624" lon="5.2676">
        <ele>173.7</ele>
        <time>2023-06-09T19:20:37Z</time>
      </trkpt>
      <trkpt lat="49.5862" lon="5.2675">
        <ele>173.7</ele>
        <time>2023-06-09T19:20:38Z</time>
      </trkpt>
      <trkpt lat="49.58615" lon="5.26738">
        <ele>173.7</ele>
        <time>2023-06-09T19:20:39Z</time>
      </trkpt>
      <trkpt lat="49.58553" lon="5.26582">
        <ele>174.6</ele>
        <time>2023-06-09T19:20:49Z</time>
      </trkpt>
      <trkpt lat="49.58471" lon="5.26456">
        <ele>173.7</ele>
        <time>2023-06-09T19:20:58Z</time>
      </trkpt>
      <trkpt lat="49.58433" lon="5.2639">
        <ele>175.6</ele>
        <time>2023-06-09T19:21:04Z</time>
      </trkpt>
      <trkpt lat="49.58432" lon="5.26388">
        <ele>175.6</ele>
        <time>2023-06-09T19:21:11Z</time>
      </trkpt>
      <trkpt lat="49.58431" lon="5.26387">
        <ele>176.1</ele>
        <time>2023-06-09T19:21:12Z</time>
      </trkpt>
      <trkpt lat="49.58431" lon="5.26386">
        <ele>175.6</ele>
        <time>2023-06-09T19:21:13Z</time>
      </trkpt>
      <trkpt lat="49.5843" lon="5.26385">
        <ele>175.6</ele>
        <time>2023-06-09T19:21:14Z</time>
      </trkpt>
      <trkpt lat="49.5843" lon="5.26385">
        <ele>175.6</ele>
        <time>2023-06-09T19:21:15Z</time>
      </trkpt>
      <trkpt lat="49.58438" lon="5.264">
        <ele>175.6</ele>
        <time>2023-06-09T19:21:16Z</time>
      </trkpt>
      <trkpt lat="49.58441" lon="5.26408">
        <ele>174.1</ele>
        <time>2023-06-09T19:21:17Z</time>
      </trkpt>
      <trkpt lat="49.58441" lon="5.26408">
        <ele>174.1</ele>
        <time>2023-06-09T19:21:18Z</time>
      </trkpt>
      <trkpt lat="49.58441" lon="5.26435">
        <ele>174.1</ele>
        <time>2023-06-09T19:21:19Z</time>
      </trkpt>
      <trkpt lat="49.58436" lon="5.26445">
        <ele>174.1</ele>
        <time>2023-06-09T19:21:20Z</time>
      </trkpt>
      <trkpt lat="49.58359" lon="5.2657">
        <ele>174.1</ele>
        <time>2023-06-09T19:21:29Z</time>
      </trkpt>
      <trkpt lat="49.58327" lon="5.26607">
        <ele>177</ele>
        <time>2023-06-09T19:21:34Z</time>
      </trkpt>
      <trkpt lat="49.58284" lon="5.26644">
        <ele>180.9</ele>
        <time>2023-06-09T19:21:38Z</time>
      </trkpt>
      <trkpt lat="49.58272" lon="5.26655">
        <ele>180.9</ele>
        <time>2023-06-09T19:21:39Z</time>
      </trkpt>
      <trkpt lat="49.58158" lon="5.26763">
        <ele>185.2</ele>
        <time>2023-06-09T19:21:47Z</time>
      </trkpt>
      <trkpt lat="49.58146" lon="5.26776">
        <ele>188.6</ele>
        <time>2023-06-09T19:21:49Z</time>
      </trkpt>
      <trkpt lat="49.58106" lon="5.26818">
        <ele>192.4</ele>
        <time>2023-06-09T19:21:52Z</time>
      </trkpt>
      <trkpt lat="49.5806" lon="5.26872">
        <ele>193.8</ele>
        <time>2023-06-09T19:21:55Z</time>
      </trkpt>
      <trkpt lat="49.57965" lon="5.2701">
        <ele>197.2</ele>
        <time>2023-06-09T19:22:04Z</time>
      </trkpt>
      <trkpt lat="49.57932" lon="5.27072">
        <ele>201.1</ele>
        <time>2023-06-09T19:22:07Z</time>
      </trkpt>
      <trkpt lat="49.5791" lon="5.27112">
        <ele>204.4</ele>
        <time>2023-06-09T19:22:09Z</time>
      </trkpt>
      <trkpt lat="49.57877" lon="5.27172">
        <ele>208.3</ele>
        <time>2023-06-09T19:22:12Z</time>
      </trkpt>
      <trkpt lat="49.57838" lon="5.2723">
        <ele>211.2</ele>
        <time>2023-06-09T19:22:15Z</time>
      </trkpt>
      <trkpt lat="49.5781" lon="5.27268">
        <ele>214.5</ele>
        <time>2023-06-09T19:22:17Z</time>
      </trkpt>
      <trkpt lat="49.57782" lon="5.27302">
        <ele>218.4</ele>
        <time>2023-06-09T19:22:19Z</time>
      </trkpt>
      <trkpt lat="49.57739" lon="5.27353">
        <ele>222.2</ele>
        <time>2023-06-09T19:22:21Z</time>
      </trkpt>
      <trkpt lat="49.57696" lon="5.27405">
        <ele>225.1</ele>
        <time>2023-06-09T19:22:24Z</time>
      </trkpt>
      <trkpt lat="49.57668" lon="5.27439">
        <ele>228.9</ele>
        <time>2023-06-09T19:22:27Z</time>
      </trkpt>
      <trkpt lat="49.5764" lon="5.27473">
        <ele>232.8</ele>
        <time>2023-06-09T19:22:29Z</time>
      </trkpt>
      <trkpt lat="49.57613" lon="5.27505">
        <ele>237.1</ele>
        <time>2023-06-09T19:22:31Z</time>
      </trkpt>
      <trkpt lat="49.57588" lon="5.27535">
        <ele>240.5</ele>
        <time>2023-06-09T19:22:33Z</time>
      </trkpt>
      <trkpt lat="49.57575" lon="5.27545">
        <ele>242.4</ele>
        <time>2023-06-09T19:22:34Z</time>
      </trkpt>
      <trkpt lat="49.57561" lon="5.27554">
        <ele>244.3</ele>
        <time>2023-06-09T19:22:35Z</time>
      </trkpt>
      <trkpt lat="49.57532" lon="5.27571">
        <ele>247.7</ele>
        <time>2023-06-09T19:22:37Z</time>
      </trkpt>
      <trkpt lat="49.57502" lon="5.2759">
        <ele>251.5</ele>
        <time>2023-06-09T19:22:39Z</time>
      </trkpt>
      <trkpt lat="49.57471" lon="5.27609">
        <ele>255.4</ele>
        <time>2023-06-09T19:22:41Z</time>
      </trkpt>
      <trkpt lat="49.57439" lon="5.27628">
        <ele>259.7</ele>
        <time>2023-06-09T19:22:43Z</time>
      </trkpt>
      <trkpt lat="49.57408" lon="5.27647">
        <ele>264.5</ele>
        <time>2023-06-09T19:22:45Z</time>
      </trkpt>
      <trkpt lat="49.57378" lon="5.27665">
        <ele>269.3</ele>
        <time>2023-06-09T19:22:47Z</time>
      </trkpt>
      <trkpt lat="49.57348" lon="5.27683">
        <ele>272.7</ele>
        <time>2023-06-09T19:22:49Z</time>
      </trkpt>
      <trkpt lat="49.57319" lon="5.27701">
        <ele>275.6</ele>
        <time>2023-06-09T19:22:51Z</time>
      </trkpt>
      <trkpt lat="49.57278" lon="5.27726">
        <ele>278</ele>
        <time>2023-06-09T19:22:53Z</time>
      </trkpt>
      <trkpt lat="49.57278" lon="5.27726">
        <ele>278.9</ele>
        <time>2023-06-09T19:22:54Z</time>
      </trkpt>
      <trkpt lat="49.57267" lon="5.27742">
        <ele>278.9</ele>
        <time>2023-06-09T19:22:55Z</time>
      </trkpt>
      <trkpt lat="49.5717" lon="5.27904">
        <ele>280.4</ele>
        <time>2023-06-09T19:23:04Z</time>
      </trkpt>
      <trkpt lat="49.57162" lon="5.2792">
        <ele>280.8</ele>
        <time>2023-06-09T19:23:05Z</time>
      </trkpt>
      <trkpt lat="49.5715" lon="5.27939">
        <ele>281.3</ele>
        <time>2023-06-09T19:23:06Z</time>
      </trkpt>
      <trkpt lat="49.5715" lon="5.27939">
        <ele>282.3</ele>
        <time>2023-06-09T19:23:07Z</time>
      </trkpt>
      <trkpt lat="49.57144" lon="5.27941">
        <ele>283.7</ele>
        <time>2023-06-09T19:23:08Z</time>
      </trkpt>
      <trkpt lat="49.5714" lon="5.27942">
        <ele>284.7</ele>
        <time>2023-06-09T19:23:09Z</time>
      </trkpt>
      <trkpt lat="49.57137" lon="5.27938">
        <ele>284.7</ele>
        <time>2023-06-09T19:23:10Z</time>
      </trkpt>
      <trkpt lat="49.57135" lon="5.27928">
        <ele>285.6</ele>
        <time>2023-06-09T19:23:11Z</time>
      </trkpt>
      <trkpt lat="49.57134" lon="5.27917">
        <ele>286.1</ele>
        <time>2023-06-09T19:23:12Z</time>
      </trkpt>
      <trkpt lat="49.57132" lon="5.27905">
        <ele>287.1</ele>
        <time>2023-06-09T19:23:13Z</time>
      </trkpt>
      <trkpt lat="49.57136" lon="5.27853">
        <ele>290.5</ele>
        <time>2023-06-09T19:23:16Z</time>
      </trkpt>
      <trkpt lat="49.57139" lon="5.27813">
        <ele>294.3</ele>
        <time>2023-06-09T19:23:18Z</time>
      </trkpt>
      <trkpt lat="49.57141" lon="5.27774">
        <ele>298.6</ele>
        <time>2023-06-09T19:23:20Z</time>
      </trkpt>
      <trkpt lat="49.57141" lon="5.27736">
        <ele>302.5</ele>
        <time>2023-06-09T19:23:22Z</time>
      </trkpt>
      <trkpt lat="49.57135" lon="5.27671">
        <ele>307.3</ele>
        <time>2023-06-09T19:23:25Z</time>
      </trkpt>
      <trkpt lat="49.57132" lon="5.27647">
        <ele>310.6</ele>
        <time>2023-06-09T19:23:26Z</time>
      </trkpt>
      <trkpt lat="49.57128" lon="5.27606">
        <ele>315.4</ele>
        <time>2023-06-09T19:23:28Z</time>
      </trkpt>
      <trkpt lat="49.57125" lon="5.27555">
        <ele>318.3</ele>
        <time>2023-06-09T19:23:30Z</time>
      </trkpt>
      <trkpt lat="49.57124" lon="5.27522">
        <ele>323.1</ele>
        <time>2023-06-09T19:23:33Z</time>
      </trkpt>
      <trkpt lat="49.57122" lon="5.2749">
        <ele>327.5</ele>
        <time>2023-06-09T19:23:35Z</time>
      </trkpt>
      <trkpt lat="49.57121" lon="5.27459">
        <ele>331.3</ele>
        <time>2023-06-09T19:23:37Z</time>
      </trkpt>
      <trkpt lat="49.57118" lon="5.27406">
        <ele>335.6</ele>
        <time>2023-06-09T19:23:39Z</time>
      </trkpt>
      <trkpt lat="49.57118" lon="5.27406">
        <ele>338</ele>
        <time>2023-06-09T19:23:40Z</time>
      </trkpt>
      <trkpt lat="49.57117" lon="5.27389">
        <ele>339.5</ele>
        <time>2023-06-09T19:23:41Z</time>
      </trkpt>
      <trkpt lat="49.57113" lon="5.27376">
        <ele>341.9</ele>
        <time>2023-06-09T19:23:42Z</time>
      </trkpt>
      <trkpt lat="49.57109" lon="5.27362">
        <ele>343.3</ele>
        <time>2023-06-09T19:23:43Z</time>
      </trkpt>
      <trkpt lat="49.57105" lon="5.2735">
        <ele>344.8</ele>
        <time>2023-06-09T19:23:44Z</time>
      </trkpt>
      <trkpt lat="49.57091" lon="5.27323">
        <ele>347.6</ele>
        <time>2023-06-09T19:23:47Z</time>
      </trkpt>
      <trkpt lat="49.57087" lon="5.27316">
        <ele>347.2</ele>
        <time>2023-06-09T19:23:55Z</time>
      </trkpt>
      <trkpt lat="49.57087" lon="5.27316">
        <ele>347.6</ele>
        <time>2023-06-09T19:25:06Z</time>
      </trkpt>
      <trkpt lat="49.57084" lon="5.2731">
        <ele>348.1</ele>
        <time>2023-06-09T19:25:07Z</time>
      </trkpt>
      <trkpt lat="49.57082" lon="5.27305">
        <ele>349.1</ele>
        <time>2023-06-09T19:25:09Z</time>
      </trkpt>
      <trkpt lat="49.57079" lon="5.273">
        <ele>349.6</ele>
        <time>2023-06-09T19:25:10Z</time>
      </trkpt>
      <trkpt lat="49.57074" lon="5.27298">
        <ele>350.1</ele>
        <time>2023-06-09T19:25:11Z</time>
      </trkpt>
      <trkpt lat="49.5707" lon="5.27296">
        <ele>350.5</ele>
        <time>2023-06-09T19:25:12Z</time>
      </trkpt>
      <trkpt lat="49.57065" lon="5.27295">
        <ele>350.5</ele>
        <time>2023-06-09T19:25:13Z</time>
      </trkpt>
      <trkpt lat="49.57057" lon="5.27293">
        <ele>350.5</ele>
        <time>2023-06-09T19:25:16Z</time>
      </trkpt>
      <trkpt lat="49.57056" lon="5.27293">
        <ele>350.5</ele>
        <time>2023-06-09T19:25:17Z</time>
      </trkpt>
      <trkpt lat="49.57055" lon="5.27295">
        <ele>350.5</ele>
        <time>2023-06-09T19:25:18Z</time>
      </trkpt>
      <trkpt lat="49.57055" lon="5.27295">
        <ele>351</ele>
        <time>2023-06-09T19:25:19Z</time>
      </trkpt>
      <trkpt lat="49.57048" lon="5.27307">
        <ele>351</ele>
        <time>2023-06-09T19:25:20Z</time>
      </trkpt>
      <trkpt lat="49.57043" lon="5.27306">
        <ele>351</ele>
        <time>2023-06-09T19:25:21Z</time>
      </trkpt>
      <trkpt lat="49.57038" lon="5.27305">
        <ele>351</ele>
        <time>2023-06-09T19:25:22Z</time>
      </trkpt>
      <trkpt lat="49.57033" lon="5.27304">
        <ele>351.5</ele>
        <time>2023-06-09T19:25:23Z</time>
      </trkpt>
      <trkpt lat="49.57026" lon="5.27303">
        <ele>352</ele>
        <time>2023-06-09T19:25:24Z</time>
      </trkpt>
      <trkpt lat="49.57013" lon="5.27301">
        <ele>352</ele>
        <time>2023-06-09T19:25:25Z</time>
      </trkpt>
      <trkpt lat="49.56937" lon="5.27281">
        <ele>348.6</ele>
        <time>2023-06-09T19:25:35Z</time>
      </trkpt>
      <trkpt lat="49.56928" lon="5.27278">
        <ele>348.6</ele>
        <time>2023-06-09T19:25:36Z</time>
      </trkpt>
      <trkpt lat="49.56849" lon="5.27242">
        <ele>345.3</ele>
        <time>2023-06-09T19:25:45Z</time>
      </trkpt>
      <trkpt lat="49.56826" lon="5.27232">
        <ele>341.9</ele>
        <time>2023-06-09T19:25:48Z</time>
      </trkpt>
      <trkpt lat="49.56766" lon="5.27204">
        <ele>339</ele>
        <time>2023-06-09T19:25:52Z</time>
      </trkpt>
      <trkpt lat="49.56743" lon="5.27194">
        <ele>335.6</ele>
        <time>2023-06-09T19:25:55Z</time>
      </trkpt>
      <trkpt lat="49.56709" lon="5.27178">
        <ele>332.3</ele>
        <time>2023-06-09T19:25:58Z</time>
      </trkpt>
      <trkpt lat="49.56665" lon="5.27159">
        <ele>328.9</ele>
        <time>2023-06-09T19:26:02Z</time>
      </trkpt>
      <trkpt lat="49.5665" lon="5.27152">
        <ele>327.5</ele>
        <time>2023-06-09T19:26:04Z</time>
      </trkpt>
      <trkpt lat="49.56643" lon="5.27148">
        <ele>326.5</ele>
        <time>2023-06-09T19:26:05Z</time>
      </trkpt>
      <trkpt lat="49.56637" lon="5.27138">
        <ele>326</ele>
        <time>2023-06-09T19:26:06Z</time>
      </trkpt>
      <trkpt lat="49.56633" lon="5.27126">
        <ele>325.1</ele>
        <time>2023-06-09T19:26:07Z</time>
      </trkpt>
      <trkpt lat="49.56629" lon="5.2711">
        <ele>325.1</ele>
        <time>2023-06-09T19:26:08Z</time>
      </trkpt>
      <trkpt lat="49.56624" lon="5.2709">
        <ele>324.1</ele>
        <time>2023-06-09T19:26:09Z</time>
      </trkpt>
      <trkpt lat="49.56601" lon="5.26998">
        <ele>320.7</ele>
        <time>2023-06-09T19:26:13Z</time>
      </trkpt>
      <trkpt lat="49.56536" lon="5.26786">
        <ele>321.7</ele>
        <time>2023-06-09T19:26:22Z</time>
      </trkpt>
      <trkpt lat="49.56469" lon="5.26633">
        <ele>318.8</ele>
        <time>2023-06-09T19:26:29Z</time>
      </trkpt>
      <trkpt lat="49.56414" lon="5.26516">
        <ele>315</ele>
        <time>2023-06-09T19:26:33Z</time>
      </trkpt>
      <trkpt lat="49.56381" lon="5.26446">
        <ele>312.1</ele>
        <time>2023-06-09T19:26:37Z</time>
      </trkpt>
      <trkpt lat="49.56295" lon="5.26267">
        <ele>308.7</ele>
        <time>2023-06-09T19:26:44Z</time>
      </trkpt>
      <trkpt lat="49.56252" lon="5.26176">
        <ele>307.8</ele>
        <time>2023-06-09T19:26:51Z</time>
      </trkpt>
      <trkpt lat="49.56166" lon="5.26042">
        <ele>305.8</ele>
        <time>2023-06-09T19:27:00Z</time>
      </trkpt>
      <trkpt lat="49.56114" lon="5.25964">
        <ele>302.9</ele>
        <time>2023-06-09T19:27:06Z</time>
      </trkpt>
      <trkpt lat="49.56073" lon="5.25902">
        <ele>299.6</ele>
        <time>2023-06-09T19:27:10Z</time>
      </trkpt>
      <trkpt lat="49.56026" lon="5.25831">
        <ele>296.2</ele>
        <time>2023-06-09T19:27:16Z</time>
      </trkpt>
      <trkpt lat="49.56023" lon="5.25824">
        <ele>295.3</ele>
        <time>2023-06-09T19:27:17Z</time>
      </trkpt>
      <trkpt lat="49.5602" lon="5.25818">
        <ele>294.8</ele>
        <time>2023-06-09T19:27:18Z</time>
      </trkpt>
      <trkpt lat="49.56015" lon="5.25806">
        <ele>294.3</ele>
        <time>2023-06-09T19:27:25Z</time>
      </trkpt>
      <trkpt lat="49.56013" lon="5.25801">
        <ele>294.3</ele>
        <time>2023-06-09T19:27:26Z</time>
      </trkpt>
      <trkpt lat="49.56002" lon="5.25797">
        <ele>288</ele>
        <time>2023-06-09T19:27:27Z</time>
      </trkpt>
    </trkseg>
  </trk>
</gpx>